GFSSW_850_spd_000.txt.gz
Wind_Speed
13 14 13 13 14 15 16 17 16 14 14 14 15 16 16 17 18 21 22 14 12 9 10 11 11 9 9 9 7 5 6 4 5 4 11 15 10 9 7 13 10 13 9 21 26
14 14 14 14 14 14 15 17 17 16 15 15 14 15 18 18 20 22 19 20 16 14 17 17 14 13 10 8 6 9 7 5 4 1 12 17 13 15 10 14 12 13 10 26 27
16 16 16 15 15 14 14 16 17 18 16 16 16 16 17 19 19 6 4 4 16 17 14 16 12 13 13 10 10 8 11 6 1 2 13 20 13 14 11 12 14 18 19 29 29
16 17 17 18 17 16 15 15 16 17 18 17 17 17 18 15 6 3 5 13 6 17 16 19 17 17 13 13 13 10 11 10 5 8 13 18 17 13 12 4 15 17 22 31 29
18 18 17 18 19 19 17 17 17 17 17 19 18 18 18 10 17 17 16 10 8 12 20 23 22 22 16 12 11 12 11 9 9 9 13 16 16 10 14 9 13 18 24 30 29
20 20 20 19 19 19 20 20 18 18 17 18 19 17 14 16 10 9 5 6 4 17 20 24 19 24 11 13 12 5 8 9 10 12 14 15 11 12 14 14 13 21 25 29 29
20 21 22 22 22 20 20 21 22 20 20 18 18 17 15 22 13 19 17 10 10 16 18 26 20 21 16 11 14 10 11 5 10 15 10 15 11 14 12 16 15 21 23 27 28
19 20 21 23 24 23 20 21 22 22 21 19 16 11 11 12 14 12 10 11 9 14 17 16 27 17 19 9 8 14 14 12 11 16 10 16 12 17 16 19 17 19 23 27 28
23 22 19 19 21 23 22 21 22 21 20 17 9 5 9 8 5 5 8 10 10 12 9 15 20 19 19 14 15 15 14 13 12 15 7 16 7 16 18 19 18 19 23 26 26
22 24 22 21 20 19 19 19 18 18 14 9 9 6 10 6 10 2 5 12 12 16 11 17 17 15 15 16 17 18 17 11 14 15 13 17 10 5 15 20 20 21 23 25 27
23 24 23 22 21 19 13 11 7 5 7 11 9 15 9 6 6 6 7 15 12 19 14 21 19 21 23 21 20 17 15 13 16 14 17 15 13 10 12 17 20 21 24 25 27
24 26 24 21 21 15 9 6 3 4 15 20 29 29 27 14 12 22 17 18 17 17 18 15 22 22 22 21 23 20 18 17 14 8 15 12 14 12 13 18 21 24 25 26 25
24 26 25 21 17 4 12 3 2 9 9 13 13 12 9 21 15 17 30 26 20 21 21 19 19 20 19 22 23 22 21 18 16 11 15 10 14 14 16 18 20 23 26 28 28
22 25 26 23 7 14 3 4 10 9 6 6 7 7 9 8 8 14 33 28 18 23 21 20 19 23 17 23 22 23 22 19 16 12 13 16 12 14 15 16 18 25 28 29 31
26 23 25 22 19 8 7 7 7 1 6 8 9 7 8 10 3 7 23 30 21 18 21 20 23 21 23 23 24 24 21 20 20 15 18 15 10 13 5 14 19 26 32 33 33
25 20 26 21 19 9 4 3 1 7 9 7 9 12 11 13 5 6 17 24 21 20 17 23 19 20 21 21 22 19 16 12 17 15 18 24 15 15 13 15 16 18 29 34 34
27 23 19 21 10 9 7 3 6 10 4 10 10 13 11 7 10 11 18 21 18 20 21 20 22 16 20 21 23 22 17 11 15 15 15 18 20 16 12 12 16 16 22 31 34
27 27 20 19 15 15 10 8 14 5 18 4 5 11 13 9 9 14 16 19 25 22 15 18 20 27 17 28 25 26 25 16 23 15 14 21 16 18 19 22 26 18 17 24 34
27 23 19 10 8 13 14 15 10 16 10 14 14 15 16 14 8 10 19 20 23 25 23 20 25 24 25 18 27 28 25 26 25 20 16 17 14 22 17 15 17 16 16 22 31
30 22 15 10 11 13 11 24 20 16 9 13 17 12 13 17 14 13 16 16 20 24 22 15 13 24 23 21 25 29 21 24 20 26 23 20 18 11 18 19 17 14 18 22 27
17 10 6 9 10 15 14 22 21 29 18 18 18 20 13 15 14 12 8 11 16 19 22 22 13 15 23 27 28 20 23 21 23 21 19 18 19 16 16 15 15 12 17 19 23
10 5 5 4 11 14 16 19 15 17 27 25 17 20 19 16 16 14 12 9 9 16 24 22 15 15 19 27 29 26 25 26 17 27 20 22 18 12 13 17 23 25 19 12 17
10 15 10 11 8 13 15 15 16 21 21 21 27 22 19 18 20 17 16 13 10 10 14 20 18 14 19 19 18 27 31 27 26 20 26 20 18 16 9 12 16 14 17 11 12
9 4 9 11 19 12 16 13 19 18 19 25 21 20 23 23 19 10 12 13 11 17 7 6 18 22 16 22 21 25 26 30 30 23 23 26 21 21 18 16 18 19 22 14 12
9 5 2 6 7 5 11 14 14 15 15 16 21 22 19 20 21 20 17 10 10 9 6 6 15 16 21 21 19 24 28 28 31 32 29 23 29 24 22 20 20 25 23 17 16
7 7 6 15 16 14 12 13 14 14 9 16 16 19 21 20 19 17 21 18 17 14 15 13 11 10 17 22 24 23 26 27 26 27 31 33 31 23 31 32 31 30 29 21 22
9 10 9 11 8 7 11 13 9 6 12 18 15 11 9 8 9 11 12 15 14 12 13 14 13 10 16 15 20 24 27 27 29 27 24 25 28 30 27 22 29 31 27 25 26

GFSSW_850_spd_003.txt.gz
Wind_Speed
15 16 16 15 15 16 17 16 15 15 15 15 17 17 16 17 18 21 15 13 10 10 13 9 12 12 12 16 17 14 9 1 6 18 15 12 12 9 11 16 14 6 18 25 27
15 16 16 16 17 17 17 17 17 16 16 15 16 19 18 19 20 22 20 21 21 16 15 17 16 14 17 15 17 9 8 8 8 17 17 10 13 14 13 15 14 10 22 26 27
16 16 16 16 17 17 18 18 18 18 17 16 15 17 18 19 22 11 8 3 16 20 16 18 15 16 19 20 16 15 12 20 10 8 13 14 12 13 13 12 18 17 23 28 27
15 16 18 18 18 18 19 19 20 20 19 18 16 15 17 14 7 1 6 8 0 22 19 20 21 20 20 17 17 14 17 15 6 7 6 13 15 13 9 14 16 18 22 28 28
17 17 17 18 19 20 20 21 20 20 21 20 18 16 16 10 18 15 15 16 9 17 21 23 24 23 20 19 17 12 10 4 4 8 9 14 12 11 10 10 16 19 23 27 27
20 19 19 19 19 20 21 21 21 20 20 21 19 17 15 19 10 6 6 6 11 17 23 23 23 23 21 23 17 13 14 9 5 11 11 10 13 10 15 13 18 21 24 26 27
21 21 22 21 21 19 20 22 22 21 20 20 18 16 13 22 7 9 12 11 12 16 21 25 25 21 24 18 20 15 10 13 10 10 11 14 14 13 20 16 19 21 22 25 26
21 21 22 22 23 23 21 20 21 21 20 18 16 10 12 9 11 17 14 14 15 16 19 17 23 24 23 22 23 19 17 16 14 14 13 17 18 17 16 20 20 21 22 25 27
23 23 24 22 21 22 22 22 20 19 19 17 8 6 14 10 11 11 14 15 15 15 16 17 17 28 19 17 16 16 17 20 13 16 14 16 12 18 20 21 20 21 22 24 26
26 23 26 24 23 21 20 20 18 18 15 9 9 7 18 14 11 10 10 14 15 16 14 18 18 18 19 18 17 19 21 20 18 17 13 16 8 19 20 20 20 22 22 24 27
27 26 25 24 23 21 17 9 8 5 13 16 11 13 4 8 11 11 11 14 19 19 17 23 17 23 26 25 23 22 20 19 16 24 19 18 16 15 17 17 20 24 24 26 27
27 28 25 23 21 15 9 7 8 8 16 23 32 33 28 18 17 22 14 17 20 19 20 16 24 24 24 25 24 27 23 18 12 17 21 18 19 18 19 17 19 22 26 27 27
24 27 26 22 16 5 13 7 3 12 10 21 29 29 30 27 30 25 28 27 19 23 23 24 22 25 26 26 26 25 24 20 17 25 22 15 17 17 15 23 20 21 24 28 31
25 25 25 23 6 11 4 3 8 11 7 13 11 12 16 17 17 25 24 36 24 24 24 25 21 25 28 28 26 24 24 25 20 12 13 19 16 21 19 21 20 24 26 28 32
27 21 24 18 18 8 7 7 9 4 7 10 12 14 21 20 13 19 23 32 26 22 18 25 26 25 30 30 29 26 24 24 23 17 20 24 17 11 21 21 22 22 27 29 31
27 23 23 12 15 13 13 8 4 7 14 9 12 15 19 22 16 10 18 30 26 21 23 24 26 27 24 28 23 24 22 23 23 19 19 22 17 19 17 19 16 24 28 29 31
27 24 20 20 8 3 4 5 7 12 4 12 16 19 21 18 19 14 18 24 23 22 22 22 28 23 25 24 25 28 24 16 19 18 20 22 18 18 18 16 20 18 25 30 32
31 26 19 18 11 15 8 9 16 12 28 3 17 20 24 19 18 19 17 20 27 24 16 21 21 29 22 28 28 31 27 19 23 18 18 23 23 21 21 16 10 17 19 26 30
30 20 18 15 15 13 17 16 14 21 17 19 12 20 23 23 20 20 22 22 24 26 24 18 25 20 29 26 27 29 28 27 27 23 20 21 26 24 11 14 19 21 25 18 26
27 22 21 13 12 13 14 27 22 32 15 14 24 19 21 23 21 21 20 20 23 26 26 20 17 23 25 25 27 34 24 26 22 27 25 22 22 16 19 20 20 17 19 17 22
18 11 5 6 9 19 17 23 27 43 35 26 22 24 25 23 25 25 24 23 20 24 25 24 18 16 24 31 31 20 27 23 25 23 21 20 18 20 12 13 20 21 30 21 19
16 8 4 5 14 15 19 26 30 28 28 28 22 25 24 24 20 20 18 23 20 19 26 24 16 15 21 25 27 29 28 32 18 28 20 22 18 14 16 17 15 16 15 15 24
14 21 22 20 14 15 22 27 29 28 27 27 25 29 24 26 23 21 19 21 9 15 19 20 19 16 21 20 24 30 29 31 33 22 26 22 20 21 5 10 18 18 23 26 8
12 6 16 21 23 21 22 23 23 25 21 22 23 26 26 30 25 22 25 23 18 14 3 9 20 23 18 22 19 26 31 31 30 23 22 26 25 22 21 14 13 17 15 15 9
9 10 11 11 11 13 15 20 16 20 22 26 22 28 27 25 27 26 26 20 26 21 13 15 20 23 25 24 19 23 29 30 33 30 28 24 30 26 25 22 20 25 22 24 21
9 9 12 19 25 19 15 19 18 18 16 24 22 23 24 24 22 23 26 23 20 20 20 20 18 18 20 23 24 24 22 30 29 32 33 33 31 25 28 32 22 25 24 24 25
14 17 12 11 16 15 13 17 24 18 16 17 23 16 22 9 18 21 23 18 24 17 22 20 16 17 20 21 18 23 27 25 24 27 27 29 30 27 29 26 26 34 30 31 33

GFSSW_850_spd_006.txt.gz
Wind_Speed
17 17 17 17 17 17 18 18 18 17 16 17 19 19 19 21 21 23 24 16 14 17 15 9 12 16 17 15 19 22 8 9 7 8 14 9 14 9 20 19 26 4 31 30 33
17 17 17 17 17 18 18 19 19 19 18 17 18 18 19 22 25 29 22 14 14 16 17 17 18 16 21 18 22 5 6 5 21 5 12 12 15 13 12 15 13 21 30 30 31
18 18 19 18 18 19 20 19 19 19 20 19 18 18 18 20 25 14 9 17 21 23 21 18 19 20 21 18 22 10 2 15 25 20 14 11 18 12 20 11 18 32 30 30 31
19 19 19 20 20 20 20 20 20 20 20 19 19 19 18 16 6 4 1 8 6 21 22 22 23 23 18 16 21 11 19 20 7 8 14 13 19 12 15 17 23 25 28 30 29
20 20 20 20 20 21 22 22 21 21 20 19 19 19 17 11 26 18 13 12 14 16 24 24 25 24 20 18 22 17 21 24 7 8 7 12 17 16 8 22 23 24 28 30 28
22 21 21 21 21 21 21 22 23 21 20 20 18 18 14 18 8 11 13 12 12 17 23 24 23 23 24 21 21 21 14 13 8 9 10 14 18 16 15 18 23 25 29 29 28
25 24 22 22 23 23 22 22 23 23 20 19 17 16 14 30 10 8 9 13 12 16 23 24 24 22 25 20 25 26 19 8 10 13 8 15 16 11 22 17 24 23 27 29 28
24 24 24 23 24 25 25 22 22 22 21 19 15 12 14 19 16 19 16 17 15 17 18 20 22 25 24 22 25 22 19 15 18 17 11 15 14 14 25 20 23 25 26 28 29
25 25 24 24 23 24 23 23 23 21 19 18 9 6 15 10 20 20 20 20 17 18 19 19 22 25 24 18 18 21 17 21 20 13 15 15 5 5 21 22 24 25 26 27 28
27 26 26 24 23 24 22 19 20 20 15 12 12 9 25 19 15 16 17 19 19 18 20 21 19 15 18 17 16 20 20 18 17 18 18 18 12 10 32 22 22 26 27 28 29
28 28 26 25 22 21 19 13 10 5 7 16 11 16 13 14 18 15 14 18 20 20 18 23 15 20 25 25 22 23 20 22 15 11 17 18 12 16 39 26 25 27 27 29 29
29 30 28 24 20 14 10 7 13 12 17 25 36 33 34 13 13 20 16 18 21 19 20 19 24 24 24 25 26 27 26 23 14 19 20 18 25 28 29 26 28 28 27 28 28
30 30 29 23 14 4 12 18 12 13 13 23 38 40 41 32 29 25 24 24 17 22 23 23 22 23 25 26 27 26 25 22 20 18 23 16 15 23 28 27 24 25 29 29 31
31 30 29 28 4 8 10 7 9 12 7 11 21 27 34 36 34 35 31 30 21 23 23 24 25 25 27 29 27 26 24 26 24 13 13 15 11 12 18 21 20 27 27 31 33
28 27 28 16 20 15 8 11 13 8 7 3 19 7 18 33 7 36 38 34 27 26 21 24 26 27 27 31 29 26 26 25 24 21 19 20 13 12 24 21 25 21 30 30 33
28 25 25 16 15 12 10 15 9 6 11 8 12 13 20 25 26 18 32 35 32 27 26 26 26 27 27 25 29 26 23 24 22 19 17 18 15 19 15 19 19 24 30 31 32
29 26 21 22 17 4 4 7 6 11 8 14 17 16 22 22 27 17 23 26 22 24 24 26 26 25 25 26 26 29 23 16 18 17 17 20 21 11 20 23 21 4 15 34 33
31 28 20 18 16 8 10 8 16 12 27 15 13 20 22 23 25 25 21 22 27 25 18 21 21 26 23 29 25 27 27 17 21 18 19 22 22 17 24 25 16 25 58 39 38
32 26 24 17 19 14 16 15 11 21 17 18 22 19 23 25 25 25 26 23 25 28 24 19 25 20 30 23 27 27 26 27 26 22 18 18 18 23 17 18 18 33 30 26 39
32 29 23 13 14 20 14 29 18 26 23 21 23 22 26 25 28 26 26 27 25 27 26 25 20 21 23 26 29 30 19 23 20 25 25 20 23 11 19 16 20 12 23 19 18
23 16 18 4 18 19 17 23 27 42 40 30 28 28 28 25 27 28 28 24 27 25 26 24 22 20 23 26 26 18 22 24 21 20 17 17 17 15 16 15 19 19 22 22 19
19 9 7 7 15 16 18 27 32 31 41 30 29 31 30 29 27 27 29 27 27 21 26 26 17 19 26 25 28 29 29 27 17 21 19 20 16 17 7 10 10 11 22 20 27
16 24 27 24 15 15 23 30 31 29 29 32 32 30 26 30 27 29 27 27 29 27 25 20 21 16 24 24 25 30 28 25 26 21 21 19 16 21 6 4 14 16 24 22 5
10 6 18 22 31 24 23 26 27 34 26 30 24 29 31 28 28 27 27 29 23 22 8 8 18 26 18 21 18 25 30 28 26 18 21 22 20 25 12 14 11 16 23 16 11
7 8 18 10 19 8 16 22 21 25 26 24 16 19 19 21 26 27 28 29 26 26 14 15 16 21 28 29 25 25 29 29 27 26 22 21 27 18 22 15 18 21 13 13 10
7 11 15 25 29 23 12 19 20 25 19 19 12 22 20 19 15 17 21 24 24 25 19 22 17 18 24 25 27 24 27 28 29 29 27 26 25 21 21 29 12 21 17 22 21
14 19 10 14 18 16 17 20 17 23 23 22 18 17 17 16 27 33 34 36 28 21 22 20 17 16 21 25 23 24 26 22 23 24 25 22 23 17 19 15 14 16 20 26 23

GFSSW_850_spd_009.txt.gz
Wind_Speed
18 18 17 17 17 18 18 18 18 17 17 19 20 20 20 22 22 26 29 24 16 15 15 8 9 15 13 27 28 10 4 2 12 7 7 17 24 32 30 42 27 2 33 39 39
19 19 19 19 19 19 19 20 19 19 18 18 20 19 20 22 26 31 23 18 19 14 18 20 18 11 18 20 28 11 5 15 7 17 6 16 27 22 23 27 16 35 31 41 38
20 20 19 19 20 20 21 20 20 19 20 19 19 19 19 21 25 10 8 11 19 19 17 14 15 20 23 25 27 15 5 7 5 19 14 17 19 26 27 16 35 43 44 42 40
21 21 20 20 20 21 21 21 22 21 20 20 20 18 18 16 5 4 6 5 8 14 20 21 20 23 14 13 28 11 21 10 14 9 10 13 24 21 25 29 41 48 52 45 42
23 23 22 21 21 22 23 23 23 23 22 20 20 18 16 10 27 15 14 10 9 12 21 27 24 24 13 16 21 15 12 20 20 23 14 21 17 21 20 42 42 41 41 45 43
26 25 24 23 23 22 22 22 23 24 23 21 20 18 14 11 17 7 16 21 16 15 17 26 17 25 18 19 13 24 19 19 24 24 24 11 17 19 36 44 42 39 36 37 42
26 27 26 26 26 25 23 22 21 23 23 21 20 19 18 34 9 6 12 11 9 16 16 23 26 24 21 12 29 25 15 15 15 9 7 20 12 2 37 41 42 39 35 31 33
29 27 26 25 26 26 26 24 23 22 22 20 18 16 17 27 20 13 22 21 15 13 15 18 20 26 24 21 22 14 9 7 10 10 10 15 15 18 35 38 36 38 36 33 31
32 32 29 26 26 25 25 23 23 21 20 19 12 9 17 13 17 25 22 21 18 18 22 14 22 25 19 7 7 7 10 10 11 9 6 8 8 18 31 36 34 37 37 36 35
30 31 31 28 25 25 24 19 17 16 12 9 10 6 23 21 18 16 20 24 21 20 18 20 22 7 9 6 10 9 7 11 12 7 11 8 9 9 22 29 33 36 38 38 39
32 31 30 27 24 23 23 14 10 4 2 10 10 15 30 18 14 19 21 21 22 24 12 23 8 16 13 15 12 14 16 17 16 9 10 10 11 12 20 18 13 34 37 40 41
31 32 32 27 23 15 11 10 12 17 20 24 35 41 41 24 15 20 24 22 20 14 10 10 17 12 10 11 17 20 19 19 16 12 8 14 16 18 18 20 26 29 37 40 42
30 31 32 28 15 5 9 13 17 17 10 23 36 34 46 37 35 29 28 26 10 15 15 16 10 17 17 18 19 22 20 18 12 12 12 16 2 6 8 6 20 22 39 42 45
28 29 29 33 5 10 4 10 8 15 5 8 10 12 25 36 16 38 36 22 13 16 14 14 18 19 23 23 20 19 22 21 21 13 8 12 6 6 11 6 6 24 35 40 44
31 28 26 20 25 18 15 10 12 14 5 6 8 9 17 30 13 34 38 31 20 18 10 19 16 20 20 22 19 20 13 21 21 13 7 16 4 7 13 19 29 28 38 41 44
33 29 27 22 20 15 13 4 13 2 9 7 10 9 13 25 22 3 43 39 22 15 15 17 18 17 18 15 21 17 15 17 17 11 11 12 13 7 11 25 26 28 34 41 43
33 30 25 25 21 11 13 7 3 7 8 6 7 10 16 13 23 25 23 26 23 17 20 16 21 22 17 17 14 20 11 12 12 10 8 10 12 9 17 12 25 24 33 36 43
37 31 26 23 20 7 3 3 11 9 14 18 9 10 15 14 18 20 15 20 23 19 9 15 17 24 15 21 18 13 18 13 13 13 9 9 13 8 15 16 31 29 39 38 33
36 32 24 19 13 9 12 9 6 9 9 12 19 13 14 17 12 19 19 22 22 24 18 15 16 9 24 20 18 14 19 15 6 8 6 8 9 13 15 16 19 23 32 39 36
35 32 26 5 14 23 11 16 8 13 23 21 9 8 12 15 15 17 22 19 22 26 24 9 7 19 19 23 18 20 8 13 15 17 18 16 11 12 7 17 15 15 22 36 36
23 14 5 14 18 21 15 11 17 29 31 11 15 25 25 24 19 23 22 23 25 21 23 23 16 19 9 16 22 12 17 13 8 15 13 9 16 8 11 12 19 20 36 36 43
12 5 11 23 9 12 13 16 26 25 33 25 21 26 26 26 28 23 24 22 21 25 22 19 15 14 23 19 20 24 12 13 8 9 6 9 15 10 17 0 21 28 31 35 24
13 20 18 8 5 8 12 21 24 23 22 23 25 23 23 27 25 24 26 27 27 18 21 14 18 11 14 14 19 19 21 12 19 4 13 6 17 18 20 1 5 3 16 30 26
8 5 12 26 12 13 12 12 16 24 20 21 19 20 15 18 17 17 25 20 27 23 23 16 12 26 18 13 6 9 21 22 16 15 14 23 13 15 8 8 9 29 26 19 17
5 6 16 7 13 19 10 11 17 13 15 23 13 17 20 16 20 12 15 23 22 27 13 6 18 18 17 17 18 25 15 25 22 20 15 13 19 13 17 10 11 14 24 27 18
5 6 8 17 20 17 17 12 16 15 9 16 16 18 18 6 18 18 19 17 11 16 20 12 10 10 8 12 21 21 19 19 26 23 19 17 20 6 12 20 9 19 24 20 9
11 11 7 7 11 11 12 16 16 16 12 16 18 12 14 16 18 21 28 29 23 25 24 12 5 4 10 7 8 15 27 20 11 23 21 19 19 8 10 8 4 22 26 12 12

GFSSW_850_spd_015.txt.gz
Wind_Speed
17 17 17 17 17 17 17 17 18 17 17 17 17 17 18 20 19 21 26 20 16 16 12 24 23 24 30 19 13 4 2 4 5 6 4 12 8 17 12 21 12 13 13 34 37
18 18 18 18 18 18 18 18 18 19 18 17 17 16 18 20 23 25 14 12 18 24 28 23 28 30 15 12 9 6 2 6 6 5 11 22 21 24 9 22 2 8 21 39 36
19 19 19 19 19 19 19 19 19 19 19 18 16 16 17 18 22 6 3 2 20 28 27 24 21 26 14 9 11 6 6 7 19 7 26 26 23 20 20 11 16 37 42 41 40
23 22 22 21 20 20 20 20 20 20 19 19 17 14 15 13 6 1 2 2 15 30 25 24 26 19 9 12 21 6 16 17 25 22 25 24 28 11 30 15 32 39 48 48 39
23 23 23 23 23 22 21 21 21 20 19 19 19 15 14 11 26 9 3 4 12 26 30 22 23 23 7 7 14 14 15 13 28 17 26 29 29 19 34 7 35 39 45 46 43
23 23 23 23 23 23 23 22 22 21 21 20 19 16 14 11 16 9 18 23 11 23 28 27 15 22 8 8 8 9 16 12 14 23 24 21 18 15 27 22 34 43 42 41 44
27 26 26 25 23 23 22 23 21 21 22 22 19 17 20 37 10 5 11 12 23 21 24 24 24 18 11 5 9 5 4 5 7 12 13 33 10 17 28 35 38 39 40 41 44
31 29 28 28 27 26 23 20 21 21 20 20 17 16 15 16 16 29 25 13 14 22 24 17 19 25 6 4 8 3 2 2 1 3 7 26 18 13 37 38 36 37 37 40 40
30 30 30 29 29 28 25 20 19 17 14 12 10 11 13 11 17 22 32 29 22 21 24 17 14 11 11 4 3 4 4 5 9 6 6 7 4 10 38 37 35 36 37 38 37
33 32 32 33 30 29 23 17 7 5 2 2 6 5 16 8 3 5 13 28 25 24 22 13 12 4 2 4 8 5 4 4 6 5 8 3 2 19 34 36 36 37 35 36 36
35 34 34 34 35 26 14 4 6 2 6 10 6 10 15 10 9 6 10 30 26 12 8 10 6 9 9 6 5 3 3 5 6 3 2 9 8 20 33 27 27 32 34 37 42
35 34 35 34 33 12 23 7 12 12 18 21 29 39 40 32 10 11 14 22 11 9 6 3 15 8 8 8 8 7 7 12 14 8 8 7 11 23 25 33 42 39 38 40 40
35 34 34 33 21 18 18 8 16 21 7 14 25 25 24 29 19 29 21 26 6 10 9 10 6 10 9 7 8 6 9 11 10 4 2 4 3 12 21 17 23 31 40 42 42
33 32 33 34 9 25 5 16 17 13 4 8 6 7 13 14 10 44 25 23 5 18 8 7 10 10 9 8 9 9 7 9 5 3 3 3 4 5 14 20 17 28 35 39 42
35 31 29 28 30 25 15 15 10 1 6 3 4 5 14 17 5 19 37 19 10 8 9 9 13 16 11 17 8 11 4 8 3 4 0 5 1 7 16 17 18 24 35 39 45
36 34 30 29 33 12 21 14 2 3 9 5 3 3 5 8 4 8 24 13 14 5 5 12 7 13 11 8 13 4 2 5 3 3 6 16 8 10 8 19 21 26 37 44 45
36 33 29 31 31 23 17 9 3 5 5 4 5 5 4 5 5 5 15 16 10 12 14 6 20 5 6 8 6 5 7 3 3 4 11 9 6 14 8 18 28 26 41 49 47
37 34 29 16 18 7 3 3 6 4 6 5 5 9 3 10 3 5 13 18 14 4 7 9 6 15 6 10 11 8 12 6 8 5 8 6 8 7 17 17 33 42 46 43 43
36 34 28 12 20 9 5 4 7 5 3 8 7 6 5 6 7 8 7 13 15 10 10 9 10 4 15 7 16 8 11 13 1 3 2 5 7 5 8 10 11 24 32 37 42
34 33 13 17 26 7 3 4 4 3 6 5 4 4 5 8 8 8 6 3 8 5 4 8 3 7 11 9 9 15 9 4 2 11 13 5 7 6 7 12 9 11 20 34 41
26 17 11 27 12 5 3 6 6 18 7 6 3 4 2 4 4 3 5 5 13 11 10 3 4 7 6 8 15 4 13 4 6 7 9 9 10 8 10 10 11 12 25 36 40
14 4 19 24 8 5 4 13 15 11 14 3 3 4 3 5 3 2 5 5 18 7 5 6 3 14 17 7 19 19 16 9 7 12 6 7 11 4 16 14 10 15 23 28 36
18 9 12 10 4 5 7 7 15 13 6 5 5 5 6 2 2 3 5 7 19 10 6 7 4 2 6 4 3 10 12 13 10 4 21 9 7 6 8 8 15 16 16 22 25
7 4 6 6 7 4 5 4 10 19 6 12 3 3 4 4 5 4 4 3 18 8 12 3 3 4 5 5 4 7 11 20 17 11 17 20 8 5 8 11 10 15 17 24 28
3 3 2 4 5 5 7 5 6 9 9 15 4 7 4 2 2 2 1 7 10 7 6 4 3 3 5 13 14 15 12 25 20 23 16 18 12 14 10 11 12 24 17 14 22
5 3 3 7 6 5 5 5 5 5 4 4 8 12 2 4 4 4 5 2 5 5 6 3 4 6 5 9 10 15 20 25 24 23 18 17 8 9 15 24 11 23 25 19 17
6 10 7 5 3 2 3 2 9 15 7 12 9 11 5 3 11 17 21 18 10 3 3 2 1 5 5 8 11 11 25 20 23 13 17 19 9 8 11 11 14 29 35 34 30

GFSSW_850_spd_018.txt.gz
Wind_Speed
17 17 17 16 16 16 16 17 17 16 15 15 16 16 17 18 19 22 27 20 15 16 18 27 23 21 23 13 7 5 1 3 4 3 3 10 5 11 7 19 8 14 12 29 37
20 19 19 19 18 17 17 17 18 18 16 16 15 16 16 18 21 26 22 21 19 23 25 34 31 27 13 10 8 5 3 6 5 4 3 9 10 15 6 16 7 12 10 36 38
22 22 21 20 20 19 18 18 18 19 18 16 16 16 15 15 19 6 2 7 18 25 21 31 27 21 9 9 11 8 6 5 7 12 8 11 13 16 13 10 20 27 30 43 42
23 23 24 24 23 22 20 20 19 19 19 18 15 15 14 11 6 3 2 2 17 30 31 31 29 12 7 7 12 4 14 15 11 5 3 8 14 11 19 9 19 27 40 47 45
24 23 23 24 25 25 24 23 21 20 18 18 17 14 14 11 26 10 4 3 18 35 36 32 32 15 7 7 11 6 9 13 24 20 13 17 18 11 20 11 10 27 46 45 44
25 24 24 25 25 26 26 26 26 23 19 18 17 15 15 9 14 8 19 20 11 35 31 35 24 25 5 4 9 6 19 23 20 20 9 17 16 18 20 13 20 36 38 43 44
28 28 28 28 28 28 27 27 27 24 21 18 18 17 21 30 10 5 13 19 17 30 35 30 15 27 8 2 15 14 5 6 11 11 8 18 6 18 13 21 29 33 36 36 40
31 30 30 31 31 30 29 28 22 21 21 17 16 17 14 9 23 30 12 17 18 21 28 29 26 21 7 3 4 3 2 4 3 6 5 17 12 18 23 30 29 31 32 33 37
32 33 32 31 32 34 24 23 17 15 13 9 10 13 10 11 22 25 34 25 16 21 25 15 25 13 10 2 4 3 5 6 4 5 4 9 6 16 31 33 28 32 33 33 34
33 33 33 33 32 27 24 16 8 7 3 3 5 5 15 6 5 11 22 32 20 28 14 14 9 5 2 6 12 5 4 4 4 1 5 12 6 7 30 32 31 33 31 33 36
34 35 34 32 32 17 23 8 7 2 6 11 5 7 2 12 8 8 12 26 19 21 8 10 5 13 7 7 6 5 4 4 1 4 3 8 4 11 24 23 25 32 33 35 41
34 35 36 31 30 13 11 8 11 13 16 22 31 41 31 6 3 15 15 18 13 7 8 4 19 9 10 9 8 5 5 8 3 6 2 6 7 11 16 28 36 35 34 39 37
34 34 36 32 24 16 5 10 18 22 7 14 22 20 26 29 20 20 22 16 6 9 14 15 7 12 12 7 9 7 11 5 4 3 2 3 5 4 15 10 23 28 30 35 35
34 34 35 36 11 28 5 13 20 13 4 7 5 5 12 11 8 35 28 20 5 21 8 6 5 13 8 12 10 8 8 6 7 4 4 4 5 5 7 18 18 24 31 35 38
34 33 34 34 30 24 13 17 15 1 6 1 2 7 12 11 1 14 32 16 11 8 9 10 13 14 14 8 8 8 9 9 5 5 4 5 2 6 9 11 16 20 31 37 45
33 32 37 31 25 19 22 15 2 3 9 3 3 1 4 5 4 5 18 11 11 6 1 9 7 13 12 7 10 7 4 5 5 4 5 10 8 5 7 14 19 19 30 37 38
33 32 32 14 24 20 17 6 2 5 6 5 3 5 5 4 2 5 11 14 10 8 8 5 15 3 6 7 4 6 8 2 2 3 10 8 8 14 8 16 17 23 38 42 42
31 32 16 16 23 20 7 3 5 2 4 4 5 7 3 7 4 5 10 16 5 5 6 12 6 20 6 9 9 8 9 6 8 5 6 6 9 6 13 17 28 34 42 42 41
32 29 12 21 23 18 5 2 5 3 5 9 7 4 4 5 1 4 5 10 7 4 8 9 10 3 7 5 16 6 10 9 4 1 2 5 7 5 6 10 10 25 24 29 39
34 27 18 26 22 7 4 4 4 6 13 5 4 4 5 6 5 6 5 7 11 7 4 3 1 6 15 6 6 10 8 4 1 7 6 4 5 6 7 13 12 9 21 32 40
26 11 17 25 10 6 2 5 6 16 16 4 5 6 4 4 5 4 4 6 11 8 8 5 3 2 7 9 19 3 6 3 5 6 6 1 7 8 10 12 13 15 28 34 38
15 4 18 18 8 3 4 7 13 13 14 5 5 4 4 4 3 4 4 4 15 8 4 1 3 6 6 3 8 22 15 9 6 10 3 4 9 4 8 11 12 17 27 34 34
19 6 12 15 4 4 6 6 2 9 10 7 4 4 4 5 2 5 3 4 17 9 4 5 2 2 4 4 2 5 13 9 6 2 15 7 8 15 6 8 16 18 23 21 23
9 5 7 8 6 4 5 5 6 8 5 11 5 5 5 5 4 3 5 5 9 5 7 2 2 3 3 1 2 6 5 9 14 13 17 21 16 5 5 9 8 20 29 28 26
4 2 2 4 5 6 2 4 7 7 7 6 6 11 5 3 4 4 6 5 5 6 4 3 1 2 1 10 6 10 12 10 10 22 15 16 24 11 9 11 17 31 31 27 26
4 3 3 7 8 8 4 4 5 8 3 6 3 13 12 3 3 3 6 2 4 5 4 4 2 2 4 9 11 9 12 12 12 11 10 21 11 9 18 30 18 27 26 29 29
5 9 7 4 2 3 3 4 6 12 10 9 10 13 5 7 9 16 17 17 12 4 2 2 1 2 4 4 8 11 9 16 12 8 12 17 12 7 9 10 17 32 37 36 35

GFSSW_850_spd_021.txt.gz
Wind_Speed
19 19 19 18 18 18 18 17 16 16 16 16 16 16 17 18 18 21 25 18 13 19 11 22 23 18 19 10 3 1 3 3 3 2 3 10 5 9 8 15 8 9 9 19 32
21 20 20 20 20 19 20 19 18 17 16 16 17 16 17 19 21 24 20 20 20 18 21 30 25 23 11 9 7 5 3 4 4 4 5 8 10 12 7 15 8 10 13 28 34
21 21 21 22 21 22 22 21 21 20 17 16 17 17 15 16 20 12 4 7 21 22 24 29 26 20 10 10 10 8 5 6 4 3 6 5 10 10 11 10 15 21 25 34 33
21 22 22 22 23 23 22 23 22 22 20 18 16 16 14 11 6 4 1 6 14 24 27 25 26 16 9 9 16 6 14 14 5 5 2 3 9 9 16 1 16 21 27 35 36
23 23 23 24 24 24 24 25 24 23 21 19 18 16 13 10 23 8 4 2 19 29 31 30 31 19 13 11 10 17 11 12 15 16 16 8 18 9 20 10 11 20 28 34 33
25 25 25 25 25 25 26 29 27 24 20 20 19 17 14 10 12 14 22 16 13 31 30 27 23 17 12 5 17 8 11 15 11 15 10 11 11 9 11 13 14 23 29 35 35
29 29 29 28 27 26 30 24 25 23 18 17 19 19 19 28 12 10 15 21 16 29 34 33 15 21 7 4 15 14 12 15 12 7 7 9 7 16 12 19 19 21 26 32 32
30 30 30 31 29 29 22 25 23 18 13 14 17 18 13 10 28 14 18 18 23 25 27 30 19 21 6 2 2 4 5 9 6 8 6 13 16 14 20 23 22 23 26 30 33
31 31 31 30 30 28 23 20 16 12 7 6 12 14 9 11 25 31 16 24 28 29 20 20 18 12 9 11 8 8 9 11 11 10 3 12 12 6 25 24 25 29 30 31 31
32 33 32 31 30 23 22 15 11 10 3 1 4 6 14 6 10 23 30 23 24 23 16 10 15 12 10 13 15 11 13 12 12 5 11 14 16 3 24 27 28 29 31 32 33
32 33 34 31 30 19 17 7 6 3 7 10 4 7 6 7 7 16 37 31 12 22 15 21 13 22 24 18 16 9 17 12 11 12 7 11 12 11 18 23 24 29 30 32 34
33 33 35 32 28 12 11 6 10 11 16 19 26 35 23 4 5 15 33 26 21 18 16 10 25 21 16 15 18 19 20 15 8 6 5 6 10 9 15 25 32 30 32 35 31
34 33 35 33 20 20 9 3 14 23 7 13 15 14 19 28 9 21 35 22 24 23 28 24 9 20 19 18 20 24 24 19 12 1 4 7 12 7 10 20 23 28 30 32 34
34 34 33 33 13 22 3 6 19 17 5 6 5 5 12 13 11 23 30 22 11 27 21 21 21 23 22 24 22 23 20 17 15 9 13 5 12 7 10 16 16 25 30 33 35
33 34 33 26 21 16 19 17 14 1 6 5 4 6 9 15 1 15 33 17 22 21 15 19 23 19 26 26 22 17 12 17 14 13 10 15 9 13 4 11 18 23 32 34 37
32 32 29 16 18 23 23 13 2 4 9 2 5 5 6 12 3 4 20 20 12 13 22 20 10 24 19 19 21 12 9 8 4 8 15 20 13 17 13 15 14 20 29 32 35
34 31 15 16 23 23 23 4 4 7 6 4 3 5 4 2 7 7 20 26 17 18 17 22 14 10 17 17 18 22 16 7 10 12 16 13 14 20 11 16 19 18 30 34 37
35 30 7 18 21 21 18 3 9 3 5 9 7 11 3 3 2 2 17 23 21 18 16 19 18 22 16 18 14 26 22 9 14 13 12 7 14 12 17 22 24 24 25 28 31
36 24 14 25 21 16 6 6 4 8 9 13 13 4 1 2 4 3 7 20 20 12 12 19 20 8 20 12 23 15 24 23 7 2 5 14 16 10 9 18 19 23 22 23 29
35 21 17 27 17 7 2 3 4 12 16 8 5 7 5 7 2 2 2 6 5 2 5 5 7 13 21 21 23 15 18 11 12 14 12 9 9 13 18 19 19 19 23 26 27
27 10 21 21 10 5 3 5 6 11 17 7 7 8 5 5 5 3 5 8 7 6 5 2 5 4 17 19 21 10 19 10 11 9 8 8 10 7 14 18 20 21 29 28 27
17 3 20 17 9 4 5 12 9 10 10 5 7 7 5 6 4 3 3 6 14 7 0 4 3 11 17 11 21 24 18 21 11 10 12 9 7 3 13 12 16 21 23 19 21
11 5 11 18 5 7 10 7 7 12 10 8 7 9 6 5 3 5 4 4 14 9 5 4 4 10 9 11 8 20 23 21 19 9 16 12 5 10 5 1 5 10 17 18 15
7 4 6 7 3 7 10 6 9 12 6 7 9 6 9 3 3 2 4 4 10 8 8 2 1 9 14 9 3 6 8 23 23 17 18 21 17 6 4 6 11 14 18 17 18
6 3 2 5 5 11 8 4 10 9 7 9 2 10 11 4 3 4 7 6 4 10 6 4 1 3 2 4 4 8 10 11 16 22 22 20 26 20 18 18 20 16 12 17 23
5 4 3 8 8 9 4 3 9 10 9 8 5 13 12 6 8 7 10 5 3 6 6 5 0 2 5 9 10 12 12 13 15 17 16 21 23 14 8 20 26 31 31 27 32
9 10 7 4 6 3 3 6 12 14 8 5 7 12 14 9 12 16 15 16 14 9 4 5 1 2 5 5 10 14 21 16 15 14 15 21 17 13 15 17 20 27 30 30 35

GFSSW_850_spd_024.txt.gz
Wind_Speed
18 19 18 18 19 19 19 18 18 18 18 19 18 19 19 18 18 21 26 19 12 17 9 21 22 17 18 13 9 5 6 3 6 2 7 8 5 7 4 14 8 9 11 23 31
19 19 19 19 19 20 21 20 19 19 18 19 19 18 19 18 19 27 25 19 16 17 20 27 27 22 19 14 9 9 8 5 4 6 8 4 5 10 8 13 14 10 16 31 33
20 20 20 20 21 21 21 22 22 21 19 19 19 17 17 15 15 12 12 14 23 23 24 23 22 22 17 12 14 9 9 5 5 3 7 4 7 9 9 11 16 17 25 33 34
22 22 22 22 22 23 24 23 23 23 21 20 19 16 14 9 5 3 6 10 16 25 24 25 26 24 17 13 17 10 14 8 2 2 1 3 5 9 13 6 15 19 26 34 34
24 24 24 23 23 24 25 25 25 23 21 20 19 16 12 10 17 9 6 2 17 29 29 30 30 27 19 18 12 19 11 9 11 12 11 7 7 5 12 7 19 21 27 32 31
26 27 27 26 25 26 26 28 25 21 20 20 20 15 11 16 12 14 20 15 22 29 29 30 29 25 14 12 17 12 18 13 10 10 11 9 9 12 11 15 19 24 28 30 32
28 29 29 30 28 27 29 25 26 21 18 18 19 16 15 24 13 10 15 19 24 27 31 30 20 26 10 14 16 19 13 14 15 12 8 9 10 13 10 19 22 24 26 27 30
29 30 30 30 30 28 27 25 24 17 12 12 15 13 13 12 23 13 15 20 22 21 22 24 17 28 14 4 7 16 17 16 17 16 12 11 8 18 18 22 23 23 26 28 30
31 32 31 31 31 28 25 24 21 16 10 5 8 10 8 13 23 26 20 22 24 20 20 20 22 22 23 14 13 14 15 20 16 14 6 13 10 12 18 22 22 24 25 28 29
32 33 32 31 32 25 21 21 18 13 3 1 3 7 14 7 10 24 23 17 27 24 19 19 19 17 18 17 19 20 20 17 16 16 15 14 14 8 16 21 21 23 24 26 28
32 32 32 31 31 17 21 13 8 5 7 12 4 8 1 5 9 19 30 24 25 29 19 27 19 25 27 24 20 18 19 20 16 13 11 13 13 7 12 20 20 23 26 28 29
35 34 33 31 28 15 14 4 7 8 18 22 29 31 20 3 11 20 34 24 28 27 23 18 27 23 22 21 20 21 18 22 15 9 9 15 14 12 12 17 19 23 27 29 26
35 34 33 31 18 18 8 4 11 14 10 15 19 22 23 26 14 26 43 34 27 28 31 25 15 23 23 22 23 23 24 21 15 12 15 16 17 14 12 15 18 22 24 26 30
34 33 32 30 9 18 5 16 16 10 6 7 8 7 17 19 15 23 42 41 18 29 28 28 22 22 25 26 23 25 25 21 20 17 15 15 15 18 21 16 16 22 26 28 30
33 30 28 22 18 10 19 21 13 2 7 8 8 6 10 22 8 27 33 40 26 24 27 22 27 23 29 26 26 22 18 20 21 19 18 23 13 16 12 16 18 20 25 28 31
34 29 22 15 13 15 23 20 2 6 10 6 6 9 9 20 9 15 29 35 30 24 27 27 19 24 22 20 23 15 16 14 15 17 20 24 21 19 19 18 18 19 22 26 31
33 28 10 13 15 23 21 7 7 9 5 4 3 1 9 12 19 15 29 31 24 25 30 26 27 18 17 21 21 22 17 9 12 17 20 21 20 19 11 20 20 18 23 24 30
30 22 9 15 21 22 14 9 14 2 7 17 10 16 12 11 13 21 21 27 32 26 17 22 21 30 24 28 18 27 23 12 16 14 17 19 22 21 25 25 11 27 23 22 26
29 17 8 19 21 16 11 9 9 13 14 14 19 10 11 8 6 14 22 25 33 29 23 22 26 30 20 21 26 25 25 27 6 5 9 17 19 18 10 18 25 26 20 21 25
24 12 11 22 17 9 8 8 9 11 17 13 14 7 7 1 8 8 16 2 25 32 8 16 19 19 24 27 25 20 25 22 15 17 18 13 19 12 22 21 19 22 27 24 27
16 8 16 20 11 10 5 10 13 16 14 10 14 13 12 9 9 6 4 7 6 13 5 14 14 23 22 25 26 22 19 23 18 17 13 12 11 15 17 16 21 20 26 27 26
15 6 19 20 5 6 7 11 16 12 16 11 10 12 13 11 10 4 4 7 8 7 17 17 10 11 26 25 26 29 23 27 14 23 19 14 5 4 7 15 17 21 24 25 25
13 7 13 17 6 7 10 9 10 12 11 11 9 10 14 14 5 3 1 4 11 5 1 7 14 15 16 21 23 30 28 25 25 16 21 16 4 10 7 3 6 9 7 11 12
10 5 8 8 6 13 11 11 11 9 6 15 8 16 15 15 10 4 3 5 8 9 9 5 14 23 19 20 19 26 29 27 27 19 17 17 15 11 6 5 7 3 3 4 10
7 5 5 7 11 14 13 9 11 9 12 11 3 10 11 7 12 12 6 10 1 9 6 5 14 9 15 2 6 18 28 30 30 26 23 18 20 17 7 8 7 10 13 11 6
8 5 4 14 12 13 5 9 10 14 14 11 11 8 9 6 11 12 11 6 5 9 8 5 4 6 14 10 7 10 12 13 22 27 26 25 22 11 11 7 17 18 18 20 22
5 6 5 6 9 8 7 12 15 15 10 8 15 14 12 11 10 17 18 17 15 11 8 7 3 8 15 10 10 15 20 19 18 17 17 21 16 17 17 16 20 22 22 22 21

GFSSW_850_spd_027.txt.gz
Wind_Speed
19 19 19 19 19 20 20 20 19 19 19 20 20 20 18 19 18 20 26 16 14 16 12 16 22 21 20 21 20 14 11 8 4 7 17 9 16 7 11 15 11 5 22 32 33
20 20 21 21 21 21 22 22 21 21 20 19 20 19 18 18 19 26 27 20 19 18 18 24 29 24 25 22 21 17 1 11 8 10 11 8 12 10 13 13 15 15 26 32 34
20 21 21 22 23 24 24 25 24 22 22 20 19 19 15 14 16 22 18 21 22 20 20 23 24 24 25 20 24 19 9 25 7 13 7 17 11 9 15 12 17 21 31 35 34
24 24 24 24 24 25 25 26 27 26 23 20 17 15 13 6 6 2 5 11 22 26 23 26 28 27 23 23 21 19 9 32 8 9 4 3 12 11 8 17 18 20 30 35 34
26 27 27 27 27 26 27 27 27 23 23 21 18 13 11 12 22 16 8 10 18 30 30 31 32 30 23 21 18 19 19 11 6 7 6 2 3 4 10 9 19 22 28 32 31
27 28 28 28 29 29 30 27 26 24 24 20 17 14 12 20 12 17 12 12 18 32 31 31 31 30 26 23 20 15 20 15 11 13 13 11 10 9 12 14 22 25 28 30 30
29 29 29 29 29 30 32 29 25 23 20 18 15 13 16 26 9 12 18 18 20 29 30 29 27 27 28 15 22 23 10 16 16 16 9 10 10 15 20 19 24 26 28 29 31
33 32 31 31 30 30 31 30 25 23 19 15 9 11 13 7 23 13 17 21 21 24 24 24 27 26 30 21 14 19 19 18 19 19 16 12 13 16 22 24 24 25 27 29 31
33 34 34 33 32 31 27 26 25 21 16 7 3 11 13 12 20 27 20 26 25 24 22 21 25 23 26 21 15 20 18 24 21 23 18 17 16 18 22 24 25 25 26 27 29
31 32 33 32 32 30 24 23 24 15 8 3 6 8 18 13 16 23 27 25 28 25 22 23 22 18 20 20 21 22 24 21 23 18 14 18 19 15 22 23 23 25 26 28 30
35 35 34 31 30 24 26 19 8 5 11 18 10 18 4 13 8 21 30 27 29 28 21 30 20 27 29 27 22 22 21 24 18 23 22 18 18 15 20 20 21 25 27 28 29
34 34 33 31 22 22 19 12 9 11 19 27 38 36 29 11 13 19 33 29 29 27 26 19 28 26 24 26 27 26 26 24 22 13 11 15 20 17 14 16 19 24 26 28 27
32 31 31 29 14 17 10 13 15 16 11 24 34 36 34 31 21 29 41 39 30 31 32 28 19 27 26 25 27 28 28 24 20 18 19 14 19 17 16 19 20 21 25 27 31
33 32 28 25 7 18 6 20 18 12 7 9 10 11 31 27 22 29 41 44 20 34 32 30 26 26 27 27 26 27 26 23 18 19 17 21 16 20 17 18 19 23 27 28 30
32 32 27 19 14 12 18 21 17 5 7 13 11 6 16 31 12 36 40 45 26 26 29 32 28 23 27 26 26 24 20 24 23 20 19 22 19 18 24 25 21 20 27 29 29
27 26 21 13 13 14 22 20 7 7 10 7 7 10 15 27 27 28 37 44 40 27 28 30 25 24 22 24 22 21 16 19 22 19 20 25 21 19 17 20 24 26 28 29 29
26 21 13 11 16 22 21 13 9 11 3 11 10 6 16 19 25 19 33 33 30 29 29 28 32 24 21 22 24 18 19 13 16 18 17 25 24 20 20 19 19 20 29 27 25
24 16 10 11 20 19 16 12 15 18 15 22 20 23 19 20 22 24 28 27 36 32 19 22 25 34 22 27 25 27 25 16 21 18 17 24 27 24 25 16 22 26 26 29 27
21 12 5 18 17 14 16 11 15 12 18 19 26 21 18 23 15 25 28 28 32 33 31 25 31 30 25 24 27 23 26 28 22 22 14 20 28 24 21 26 20 17 29 28 30
21 16 5 21 15 11 12 15 19 14 19 16 21 18 22 11 14 19 28 24 28 36 30 28 20 28 32 24 28 25 25 22 16 20 19 14 15 18 20 16 26 25 20 31 27
17 14 11 19 13 15 7 9 10 21 15 14 21 22 18 21 27 17 17 6 6 13 34 33 22 16 25 28 27 26 22 25 20 18 13 11 11 17 19 19 18 20 33 28 27
15 7 18 18 17 6 8 9 11 15 16 15 21 21 17 11 17 17 17 10 13 13 18 35 13 21 31 28 27 26 29 27 17 24 17 12 1 9 9 10 19 22 24 32 30
17 15 5 16 7 10 14 15 11 12 11 11 10 18 20 18 9 16 15 10 12 14 6 9 17 16 22 25 28 31 30 24 26 18 21 15 7 9 5 2 15 18 20 23 25
12 5 14 13 10 10 11 16 14 6 7 14 8 12 19 19 17 11 11 13 9 10 17 10 17 23 19 25 24 29 29 30 24 19 17 19 15 13 8 8 7 8 9 15 14
7 7 7 7 11 13 15 13 13 8 10 16 3 7 9 8 17 10 10 16 8 6 10 7 15 20 26 18 20 28 29 30 30 24 24 15 19 15 13 11 13 14 11 6 7
9 8 10 16 12 14 15 9 13 13 17 15 9 15 9 11 13 15 14 11 6 15 11 10 12 19 23 24 5 14 26 32 30 27 24 23 14 18 18 13 11 9 7 6 7
8 10 9 12 11 10 10 14 12 11 13 10 15 13 15 8 16 20 17 22 17 15 13 11 9 12 17 22 11 16 20 20 24 27 22 22 19 9 6 4 4 7 10 11 12

GFSSW_850_spd_030.txt.gz
Wind_Speed
22 22 22 23 22 22 22 21 21 20 21 20 19 18 16 19 20 21 31 23 14 17 13 11 18 21 20 24 21 25 9 12 6 14 12 7 22 19 15 22 18 13 36 39 38
23 23 24 24 25 25 24 24 24 23 21 22 20 17 16 17 21 30 30 21 21 17 20 19 24 24 26 24 24 18 3 6 9 10 14 16 6 16 16 19 26 34 34 36 40
24 24 25 25 26 27 27 28 27 25 24 19 18 15 12 12 16 24 15 21 23 24 23 19 21 25 27 24 22 23 6 13 26 28 10 18 17 18 18 17 34 36 39 38 40
25 26 26 26 27 28 28 29 28 25 24 20 18 15 10 7 6 1 1 12 22 23 23 23 26 29 23 21 24 17 20 22 17 29 9 7 20 3 16 15 29 33 37 41 35
27 27 27 27 28 29 29 30 28 26 24 21 18 13 11 12 22 12 16 6 19 26 28 29 31 31 24 22 23 21 22 28 10 28 6 26 34 6 2 27 27 31 35 37 35
27 27 28 28 29 30 30 31 29 26 23 19 16 11 15 19 17 19 12 12 19 29 31 29 29 30 27 25 22 24 20 20 29 40 10 7 22 32 20 29 28 32 34 33 33
31 31 30 30 29 30 30 29 27 25 22 18 15 11 16 33 7 10 20 17 20 27 32 30 29 29 30 22 29 26 19 16 15 16 12 14 12 15 10 31 31 32 33 33 31
32 32 32 32 31 30 28 27 28 24 23 16 12 8 14 9 19 18 19 19 19 22 28 25 26 26 30 25 25 20 20 18 18 18 14 11 13 21 32 31 31 31 32 33 32
35 35 34 33 32 29 27 25 25 22 20 6 1 9 13 7 23 28 21 26 22 22 24 26 26 29 26 21 20 21 19 22 21 20 19 18 15 14 31 22 33 31 31 32 32
33 34 34 32 31 26 26 23 21 17 11 4 8 8 20 16 14 26 27 24 27 25 25 28 26 20 21 19 21 22 21 19 22 19 22 20 13 11 20 24 33 36 35 33 34
34 34 34 30 26 24 27 25 27 2 9 24 14 18 12 8 7 20 31 27 29 29 24 30 19 25 30 26 22 23 21 24 20 22 24 22 19 18 15 24 24 32 35 35 34
34 34 34 30 20 22 17 19 18 19 30 28 39 45 43 28 19 20 29 33 30 28 26 22 28 27 26 25 26 28 25 24 23 23 19 22 20 18 23 37 46 30 31 36 33
35 33 33 29 14 18 14 18 22 23 17 31 42 42 48 36 34 25 37 41 29 30 30 28 19 27 26 26 28 28 27 24 22 22 19 19 21 19 21 28 16 37 41 36 38
35 35 31 30 9 15 17 23 23 19 8 11 14 12 39 32 32 35 36 41 28 32 30 27 32 29 27 29 26 26 27 25 25 21 18 20 14 17 19 19 19 20 29 25 38
30 30 27 15 18 15 25 25 21 10 8 8 10 5 11 36 10 43 37 42 32 25 31 30 26 30 28 28 26 24 24 25 25 23 19 20 16 14 22 22 21 24 31 50 34
29 26 22 13 13 18 24 23 13 6 10 8 12 22 9 29 36 13 43 43 39 26 28 31 32 25 25 25 26 24 22 23 23 18 17 23 19 19 18 22 20 22 29 33 34
31 15 9 10 11 24 21 16 7 9 16 18 27 28 27 19 28 30 31 31 28 31 28 29 34 29 27 22 25 22 21 14 14 16 16 21 21 15 20 25 21 22 29 30 36
32 11 11 10 19 19 17 11 11 13 25 31 24 26 23 20 18 27 26 28 33 30 17 23 26 36 23 31 25 28 25 15 22 17 17 23 25 21 23 20 36 38 35 35 34
30 18 12 6 20 14 15 10 7 18 16 20 27 20 22 29 22 19 31 30 32 34 32 23 30 31 33 26 26 23 25 24 21 20 16 18 25 22 25 24 21 18 30 34 37
29 23 16 11 17 14 12 15 9 10 19 20 21 21 23 26 24 25 17 25 27 33 31 28 18 30 33 26 28 27 22 21 17 20 19 19 22 19 22 25 22 16 18 29 35
20 14 6 17 14 19 10 13 20 20 22 17 18 20 18 20 20 24 10 10 24 18 31 30 24 22 29 31 27 22 21 25 19 16 15 13 14 17 25 22 21 22 25 26 32
16 8 17 17 19 13 9 10 10 17 24 17 13 15 10 17 14 16 19 12 37 28 16 34 23 21 27 27 30 28 28 25 13 22 15 14 4 12 15 21 17 12 31 23 28
18 22 8 17 7 10 15 15 19 13 20 11 18 15 17 13 10 14 17 30 37 28 14 12 19 20 26 23 29 32 29 26 22 18 19 14 7 8 11 12 19 18 26 33 23
11 7 19 16 17 17 15 15 19 11 17 15 12 14 16 13 13 9 17 15 35 30 19 9 10 21 19 21 19 27 29 28 25 17 16 18 7 8 8 4 10 17 14 17 24
8 6 12 8 13 14 16 14 19 18 8 17 17 10 14 15 13 9 16 26 26 25 23 8 13 19 29 24 22 26 27 29 30 21 22 18 18 15 11 9 9 11 7 15 21
6 7 12 22 22 16 12 7 14 16 12 16 17 15 16 14 11 14 16 15 10 22 20 19 8 13 17 22 19 18 31 29 29 29 23 24 18 19 16 15 13 17 11 10 11
8 15 10 12 16 12 11 15 16 18 16 18 12 18 19 15 19 20 23 20 18 21 18 14 12 9 16 17 21 19 16 28 26 24 24 20 17 17 20 17 16 16 11 7 3

GFSSW_850_spd_033.txt.gz
Wind_Speed
23 24 24 24 25 25 25 25 24 23 23 20 20 17 16 18 19 22 32 27 18 17 13 11 16 20 15 23 20 20 5 8 10 10 4 7 9 21 32 37 12 10 35 39 44
23 24 24 25 25 25 26 26 27 26 22 21 19 16 14 17 21 31 32 23 23 20 20 17 18 21 28 19 18 9 4 13 8 4 12 16 16 19 29 29 30 39 35 44 39
24 25 26 26 27 26 26 27 27 27 24 21 18 15 14 13 18 25 5 19 24 24 23 19 18 23 25 26 24 21 9 6 14 17 23 25 7 8 23 20 44 43 44 43 38
27 27 27 28 28 28 28 28 27 26 24 21 18 15 11 9 4 4 3 8 22 27 22 22 24 28 16 17 29 16 13 15 21 11 9 11 23 18 10 24 44 54 48 46 40
28 28 28 28 28 28 28 28 27 25 24 20 17 13 9 10 26 9 5 2 18 28 31 28 28 27 20 20 25 17 12 24 27 9 4 25 21 15 18 41 44 46 46 42 39
30 30 31 31 30 29 28 26 27 27 23 21 18 12 12 9 17 14 17 10 15 33 31 29 20 26 18 24 19 21 25 21 9 28 17 9 10 15 37 46 44 46 45 43 38
32 32 33 32 32 30 27 26 26 28 22 21 18 15 17 33 9 5 17 15 14 31 34 31 28 25 30 13 32 27 13 16 14 35 11 22 2 8 47 44 40 41 45 46 43
33 32 33 33 32 29 27 25 26 26 22 18 16 11 16 16 9 24 22 24 15 18 30 27 26 30 29 21 23 18 18 13 24 21 21 20 17 15 42 47 41 41 41 42 43
35 35 33 34 32 26 25 24 25 29 13 12 2 5 17 7 17 30 23 27 18 21 21 24 28 32 27 15 13 12 12 11 11 18 12 8 9 19 34 38 33 34 36 38 40
35 36 34 33 30 23 23 24 36 12 16 15 4 10 15 11 10 23 26 23 26 20 26 26 20 16 15 12 16 8 8 9 13 15 11 9 7 23 32 37 33 11 27 33 35
34 34 32 30 27 20 27 29 32 8 14 24 29 29 58 19 16 21 27 23 27 29 17 27 11 21 22 18 11 10 17 15 13 11 8 16 8 27 26 30 25 18 23 34 36
36 36 34 30 22 15 21 25 24 24 29 35 44 47 47 41 24 18 28 27 25 20 19 13 24 19 15 16 18 18 21 21 12 17 15 16 12 23 26 32 44 47 45 34 39
38 36 35 31 14 14 18 25 26 27 12 29 23 27 37 27 32 47 24 38 16 23 25 25 14 20 19 20 23 23 20 19 13 15 16 11 21 20 22 33 21 36 48 29 44
34 33 32 29 7 20 19 31 29 22 5 9 4 10 13 23 13 45 34 33 20 24 22 25 22 26 25 24 21 21 18 20 21 14 8 13 10 11 21 15 18 35 40 50 48
35 30 28 12 19 20 27 32 24 18 5 12 19 20 58 14 7 20 40 32 27 22 21 26 25 28 28 26 21 16 16 21 22 15 7 18 3 16 22 13 20 26 45 41 42
37 31 20 11 10 18 23 25 24 3 4 8 26 26 33 34 29 24 20 37 25 23 21 25 20 22 26 19 18 17 12 9 15 12 13 16 6 6 16 16 26 34 44 49 51
37 31 10 10 13 18 24 24 4 3 18 14 27 27 30 23 22 26 16 19 19 23 26 19 30 23 16 19 21 17 12 8 9 13 12 8 8 8 7 16 15 25 49 55 58
40 23 10 9 11 18 22 10 7 8 16 20 20 23 17 25 26 32 22 17 21 21 10 17 19 31 20 21 16 22 20 5 9 10 11 8 11 9 9 9 17 33 57 55 48
41 21 7 8 11 16 18 6 6 6 10 14 18 17 19 22 16 22 24 11 19 24 23 17 25 14 28 15 18 20 19 12 3 6 4 5 10 11 18 15 7 17 29 41 53
39 23 3 5 13 11 6 12 7 15 13 15 18 17 18 15 15 19 14 12 24 24 17 23 10 21 21 23 22 18 12 12 9 10 10 9 16 17 14 21 13 10 14 37 54
25 14 10 12 18 17 7 7 14 19 17 11 18 16 15 7 13 15 10 27 25 25 29 18 18 28 17 26 28 12 13 15 6 5 6 5 9 18 21 21 15 16 23 47 44
16 6 10 17 11 8 6 11 17 15 20 13 13 12 10 13 7 14 12 10 32 27 23 16 8 17 27 16 25 16 16 18 11 14 6 5 10 9 12 26 19 19 26 35 43
18 9 16 23 5 8 13 15 17 10 11 13 7 12 15 5 5 8 9 14 20 25 17 15 5 9 18 13 16 30 23 16 9 5 13 5 6 6 10 21 20 19 26 25 40
9 5 12 19 22 16 13 14 13 13 8 12 9 15 11 10 4 7 14 11 23 29 40 27 10 11 11 16 8 25 22 21 13 13 16 8 7 8 9 10 9 19 19 36 25
6 5 10 5 10 16 18 15 12 12 10 8 9 11 13 11 9 7 13 18 20 27 17 11 7 12 14 14 13 17 25 22 23 13 17 12 7 5 2 7 7 16 16 24 28
5 4 6 14 19 16 12 11 18 17 14 11 12 9 13 13 3 13 16 9 5 16 17 17 7 16 5 11 14 18 26 23 21 19 10 14 8 8 7 23 21 24 25 26 22
6 7 7 6 10 11 9 14 18 17 12 19 15 14 10 14 20 24 19 19 14 13 17 15 10 10 5 5 6 3 14 24 18 18 16 13 8 6 7 12 15 25 23 21 23

GFSSW_850_spd_036.txt.gz
Wind_Speed
23 24 24 24 24 24 24 24 23 22 20 17 15 15 16 17 18 22 31 25 18 13 8 19 18 16 21 17 11 9 2 1 4 12 7 16 8 17 5 26 5 12 17 37 48
24 25 26 26 25 25 24 25 25 24 20 19 16 15 14 17 20 29 23 20 20 20 18 23 24 23 19 13 10 8 3 6 10 10 11 10 5 7 8 14 17 22 32 43 50
25 26 27 27 27 27 27 26 24 23 22 20 17 14 14 15 19 13 3 16 25 25 27 19 15 23 15 11 16 9 6 7 11 19 15 16 14 17 18 7 24 39 44 45 48
27 27 28 28 28 28 28 26 24 23 24 23 19 14 12 9 5 4 4 4 27 29 31 24 21 19 8 11 23 6 26 18 15 17 9 9 16 17 23 12 27 43 54 51 47
29 29 29 29 29 28 26 25 25 26 25 24 19 15 9 8 24 11 6 4 24 34 33 33 28 20 10 14 20 16 22 27 25 22 20 11 12 4 11 27 32 39 44 43 41
29 30 30 31 31 28 25 24 27 29 24 23 20 16 9 6 7 13 16 7 17 36 34 31 25 31 10 13 17 12 29 24 9 11 5 12 5 3 23 40 40 42 40 37 41
30 31 31 31 31 27 23 24 22 36 28 21 19 17 15 30 6 4 17 19 13 27 37 36 24 26 15 9 38 26 18 15 15 12 5 10 4 7 35 43 40 40 38 37 36
32 32 31 30 30 26 22 25 24 27 19 18 14 12 14 9 10 22 17 24 19 19 28 31 32 23 13 13 12 11 15 16 12 12 13 14 8 14 33 37 36 37 37 36 35
35 33 32 30 29 23 22 27 31 15 15 29 7 6 15 6 11 10 26 27 21 20 31 22 25 17 11 5 5 4 8 6 12 21 6 13 8 22 38 36 37 40 40 38 36
35 34 30 29 26 18 21 26 28 16 16 19 5 9 7 4 9 15 9 25 27 22 20 22 16 5 10 5 12 6 5 6 11 12 20 18 15 27 39 40 42 40 39 42 38
39 38 35 30 23 14 21 27 31 9 38 24 33 29 40 37 38 20 1 25 26 24 9 21 11 17 25 15 6 5 9 8 10 13 7 16 17 30 40 38 34 38 41 46 49
39 40 38 33 19 12 15 20 21 22 18 22 15 18 20 26 17 25 12 23 18 17 12 4 20 21 7 12 14 14 9 11 16 16 5 7 20 30 28 33 43 41 40 39 39
39 38 38 34 16 13 14 19 21 24 5 17 10 18 17 23 6 26 15 11 6 12 17 20 6 16 16 15 17 15 14 13 9 8 5 5 10 21 16 24 30 35 40 42 43
38 36 36 31 9 19 20 21 19 27 3 6 10 11 32 27 3 34 26 16 10 19 16 17 23 22 20 21 18 17 18 18 13 8 9 7 7 14 20 19 18 30 34 49 45
36 37 36 17 16 19 22 24 28 5 3 6 7 9 28 18 20 18 40 21 18 14 10 23 24 26 24 25 19 19 12 16 16 6 3 13 2 7 24 22 21 27 37 33 50
37 38 26 6 13 17 23 29 12 5 4 5 12 18 27 22 20 25 27 33 21 21 20 22 14 22 30 21 20 10 11 9 11 4 9 21 7 4 21 27 28 30 37 38 43
39 31 15 4 10 19 23 28 5 3 10 10 13 21 13 18 16 15 20 15 9 7 22 20 22 23 11 21 16 14 8 8 7 8 10 15 6 11 27 30 33 32 40 43 47
40 19 12 2 8 15 21 6 5 9 3 7 11 11 11 18 8 17 17 17 16 21 5 17 21 24 19 9 20 17 12 6 13 6 12 4 7 6 14 37 39 46 55 50 48
38 12 5 8 10 11 6 4 2 4 4 6 7 6 13 10 10 12 11 3 13 20 11 6 20 14 26 20 20 10 19 11 6 2 3 5 5 4 11 8 16 36 35 44 51
39 9 16 16 12 13 3 5 2 6 4 5 4 4 10 5 9 11 7 6 20 21 24 7 8 28 22 20 18 21 8 10 4 7 5 5 6 10 10 13 10 24 37 48 49
29 11 6 16 15 6 3 4 1 14 12 4 3 3 6 4 4 8 7 17 11 22 20 16 5 7 1 19 29 7 15 6 6 6 7 3 11 7 12 10 13 20 44 49 48
19 4 15 29 6 3 2 5 8 5 12 3 3 3 3 3 5 5 7 5 16 18 14 14 6 6 14 8 2 20 9 11 9 11 3 5 10 4 14 15 16 17 42 53 56
18 9 12 15 4 4 7 7 3 1 2 3 3 3 3 4 3 3 3 10 15 10 8 9 4 7 6 5 6 5 15 13 6 5 11 11 11 1 7 9 24 34 40 50 54
9 4 9 8 16 2 6 5 8 12 4 5 5 4 3 2 6 5 2 5 12 13 10 12 5 7 6 4 8 4 9 13 17 9 10 14 10 9 13 17 8 24 34 42 54
3 2 3 4 6 12 4 6 10 7 6 8 4 2 4 3 6 3 9 6 10 9 6 4 6 7 18 24 21 20 6 19 14 14 15 12 7 10 11 12 6 20 29 34 45
5 3 4 10 12 8 6 4 9 14 9 6 7 13 5 4 6 7 12 5 5 5 3 5 5 9 11 12 15 11 7 7 18 15 7 8 9 6 6 19 10 15 28 32 43
5 11 7 5 4 4 3 10 18 16 9 20 14 7 6 9 14 19 20 18 12 5 5 4 3 5 6 9 7 2 10 7 14 8 13 6 9 5 9 9 15 12 28 29 34

GFSSW_850_spd_039.txt.gz
Wind_Speed
24 25 25 25 25 25 25 23 21 19 17 16 16 16 16 16 16 21 27 21 21 11 14 19 19 17 17 17 9 6 1 3 4 5 2 7 5 8 1 13 3 6 14 32 45
24 25 26 26 26 26 26 24 23 21 20 18 17 16 16 17 20 25 21 19 17 22 19 28 26 23 12 10 8 5 2 6 7 10 4 2 1 1 4 11 5 10 19 43 49
25 25 25 26 27 28 25 24 23 24 25 24 19 16 14 15 18 2 1 14 26 26 20 23 23 23 12 7 9 7 5 7 12 11 15 10 9 6 10 4 11 27 41 52 51
26 26 26 26 27 27 24 23 24 23 27 23 20 16 11 9 3 3 2 6 31 30 27 28 26 15 7 8 14 5 14 11 7 15 14 7 9 8 20 8 21 27 52 59 54
27 27 27 26 26 25 21 21 23 22 30 26 21 14 10 7 14 7 8 2 33 33 35 33 31 17 8 10 8 16 14 9 22 20 18 13 16 9 28 4 19 42 46 48 49
29 28 27 26 27 25 20 20 23 28 21 21 19 14 6 4 3 6 16 3 28 37 37 36 24 26 13 4 16 6 19 21 19 21 12 15 9 10 3 22 32 41 43 45 45
33 31 29 27 27 25 20 21 25 28 17 18 26 15 10 17 6 3 7 9 22 35 40 39 13 24 9 1 25 17 11 8 12 18 5 12 4 6 23 29 33 36 38 37 38
35 35 32 29 28 26 20 23 26 21 15 19 26 9 9 8 3 6 8 10 17 33 31 33 24 30 6 5 7 3 5 3 9 9 11 13 6 13 33 34 30 32 35 35 39
35 36 33 32 28 26 22 25 25 14 14 26 12 9 8 9 21 12 19 15 18 24 32 14 30 7 9 2 5 3 4 6 6 12 6 8 6 18 31 33 33 33 35 35 36
34 37 34 33 30 24 23 27 21 10 18 11 12 6 11 27 26 17 17 10 20 18 20 10 13 5 2 5 11 6 4 5 7 5 13 9 3 20 32 31 34 35 35 36 40
33 34 36 33 29 18 23 21 20 4 24 8 17 6 19 27 15 16 11 3 15 16 7 14 6 19 29 20 4 4 4 5 5 8 8 12 10 20 30 27 26 33 35 36 40
35 35 36 35 25 11 16 17 15 11 13 8 9 5 25 22 7 28 21 4 9 7 6 5 18 21 7 7 12 8 6 6 10 5 5 6 15 20 22 31 39 39 37 37 36
37 37 36 34 15 11 10 17 16 22 3 10 6 17 29 17 4 12 35 12 5 10 14 13 5 15 12 14 13 16 15 8 9 5 4 5 7 17 21 15 23 27 39 37 41
35 36 35 25 6 13 10 17 23 9 4 5 9 12 25 6 7 19 25 7 5 9 14 15 20 13 20 17 15 18 13 14 13 1 4 5 4 8 15 18 19 31 35 38 41
34 36 28 11 10 13 16 21 13 0 3 4 5 12 13 15 13 19 20 9 2 9 6 17 13 17 20 22 18 13 8 9 10 3 3 6 2 6 19 17 23 27 40 39 44
34 32 19 11 10 14 19 22 2 5 4 2 4 9 10 19 8 15 16 15 5 6 14 16 16 16 25 15 16 5 6 6 1 2 11 14 8 6 14 21 23 30 42 41 42
33 24 13 8 12 17 22 9 4 2 5 4 3 6 5 8 7 11 13 16 8 9 7 10 24 15 9 19 13 10 9 2 5 6 15 8 8 13 17 26 27 29 45 45 44
31 13 7 12 11 15 19 5 3 2 1 3 5 5 5 10 4 8 6 4 14 6 3 5 13 21 14 13 17 15 12 6 9 7 12 6 8 6 15 24 42 44 50 38 35
30 11 4 9 14 13 10 3 4 2 3 4 6 3 3 2 2 8 5 2 6 14 6 6 8 13 22 15 18 9 21 9 5 2 3 7 5 7 7 15 21 35 35 36 37
33 15 0 10 14 9 4 5 2 3 4 2 1 2 4 4 4 5 2 2 3 11 14 3 9 9 12 26 17 15 10 11 4 9 10 3 6 8 11 11 11 20 26 37 42
25 8 6 18 19 2 3 5 2 1 5 2 1 2 3 1 2 3 4 4 6 8 6 6 5 11 8 11 29 11 11 8 7 4 11 1 12 8 12 14 15 16 33 38 41
16 3 11 16 7 4 2 7 4 2 4 2 1 5 2 3 4 5 5 4 5 6 3 3 5 7 10 12 17 24 8 7 13 13 1 3 12 4 11 13 19 24 33 39 45
17 8 10 10 3 4 8 5 4 3 4 2 3 4 3 4 3 5 6 5 5 3 0 2 3 5 7 3 5 3 17 9 6 6 10 14 11 6 4 5 20 21 31 32 44
7 4 6 8 8 3 4 5 4 9 4 5 5 4 2 4 6 4 5 5 6 7 11 7 3 7 5 1 6 8 9 9 10 7 8 15 20 16 15 7 7 15 26 32 43
3 1 2 4 2 3 3 5 7 5 6 10 4 4 3 5 4 6 7 5 7 5 2 3 6 7 16 20 18 18 19 17 7 11 14 8 11 16 12 7 8 18 29 36 43
4 4 2 8 6 5 3 2 8 5 4 4 5 16 13 7 9 7 7 6 7 9 4 4 4 4 7 13 18 9 11 14 15 8 6 6 14 3 2 5 12 19 22 24 38
4 7 4 4 2 2 2 3 6 13 7 8 8 13 9 9 15 19 19 21 9 10 8 5 3 3 6 4 1 4 9 9 4 13 3 9 2 10 3 9 13 22 14 28 35

GFSSW_850_spd_042.txt.gz
Wind_Speed
23 24 23 24 25 25 22 20 18 18 18 19 17 17 15 15 14 16 21 16 20 14 21 24 19 17 17 16 7 4 1 3 4 5 4 4 3 8 6 13 7 7 15 28 40
24 24 24 24 25 25 22 20 20 21 19 22 20 17 17 15 16 19 10 15 17 21 25 31 25 23 10 8 5 4 2 5 5 5 5 8 5 9 5 13 4 12 19 40 47
25 25 24 24 24 25 21 19 22 22 23 25 19 15 14 15 12 1 5 6 23 27 21 27 24 24 11 9 8 6 5 4 4 8 7 10 4 7 9 7 11 23 37 48 49
28 26 24 24 24 23 20 20 22 20 27 21 18 12 11 10 1 3 2 4 30 30 23 28 32 18 6 6 13 4 10 7 4 8 2 1 5 4 15 5 8 24 45 53 53
29 29 26 24 24 23 19 20 21 23 28 18 17 17 11 5 5 9 10 5 32 32 31 30 35 14 7 9 6 12 6 6 16 11 13 12 11 6 13 7 5 28 47 51 50
30 30 29 28 27 25 21 20 23 25 25 19 20 25 6 2 3 11 5 2 32 36 32 32 21 18 11 6 10 8 20 13 14 19 14 14 7 8 4 13 19 32 46 45 47
31 31 30 30 29 26 21 20 23 25 18 18 25 11 2 4 2 9 14 4 24 36 35 32 4 23 6 2 13 17 6 4 7 8 5 2 3 6 13 19 28 35 40 38 40
31 31 30 31 31 27 21 20 23 21 15 21 16 12 5 12 14 10 15 6 12 34 24 31 18 21 5 3 2 6 5 1 3 7 7 11 7 5 24 28 29 33 36 36 37
31 32 30 29 30 26 21 22 21 11 19 11 17 7 6 13 23 13 13 2 7 28 24 10 21 3 6 1 4 5 4 6 3 10 3 6 4 9 27 28 30 33 35 37 36
32 33 32 31 29 22 22 22 14 6 18 8 17 5 18 24 16 17 12 5 13 18 17 4 8 2 2 5 6 6 4 4 4 4 7 7 6 11 21 24 30 31 33 36 37
33 35 34 32 25 16 20 11 9 2 10 7 7 1 21 25 11 27 12 10 9 13 7 8 4 17 27 9 3 3 4 6 4 5 5 9 9 14 20 18 22 28 32 36 40
35 36 36 29 15 13 16 11 13 11 8 3 12 11 23 20 7 33 20 5 5 4 5 3 12 12 5 6 6 5 3 4 4 3 6 5 13 12 18 27 36 37 34 35 34
33 35 34 21 7 11 12 15 19 8 1 6 2 14 29 8 6 26 24 6 3 4 7 6 6 11 9 6 10 12 10 6 2 3 5 5 5 7 12 13 23 25 28 32 36
31 33 30 15 4 11 10 17 18 0 4 4 6 9 22 4 6 13 25 6 3 3 7 7 15 6 10 15 11 10 11 15 8 2 3 4 5 6 10 17 19 24 31 32 35
29 31 19 9 6 10 12 20 8 4 3 3 4 7 11 8 8 14 19 7 3 5 2 6 4 11 11 17 12 12 7 12 12 4 2 5 0 7 12 12 16 24 32 34 38
28 27 14 5 6 11 16 17 6 5 4 1 3 4 5 8 4 10 9 8 2 3 2 7 8 4 11 14 17 5 2 5 3 3 11 11 10 6 7 12 17 23 32 35 39
27 21 9 8 14 13 16 4 4 4 3 2 2 4 3 5 6 7 5 11 5 7 7 8 5 5 13 4 14 10 11 1 3 5 14 8 12 10 7 14 16 21 35 38 40
26 19 5 9 11 12 14 4 3 2 1 1 2 1 3 4 3 6 4 3 12 6 2 4 6 5 7 14 8 15 12 6 8 5 13 5 8 6 19 15 30 34 40 32 33
28 17 4 9 9 11 7 3 4 1 2 2 3 3 3 3 2 3 5 3 3 5 4 5 6 11 9 5 13 6 18 10 4 1 2 10 4 7 8 17 18 28 25 29 36
30 18 2 13 11 10 4 4 4 1 1 3 3 2 2 2 1 2 1 2 6 6 7 3 8 7 11 8 12 16 9 11 4 9 5 4 6 9 8 11 12 13 23 30 36
20 6 10 17 11 1 3 4 4 4 0 6 6 4 6 3 5 4 4 2 4 6 4 4 5 9 11 7 14 10 14 10 7 6 9 1 5 8 12 15 13 17 27 35 37
13 3 14 13 6 4 2 5 7 2 2 3 4 6 6 6 3 5 7 5 12 9 3 2 4 7 9 18 9 7 6 10 12 17 3 4 9 4 11 12 12 20 31 36 41
18 6 12 11 4 4 6 5 4 3 3 2 3 6 4 5 2 5 4 7 14 7 6 7 4 6 7 10 4 5 8 9 3 6 19 15 6 2 6 7 20 21 27 35 38
8 4 7 11 7 3 5 4 5 7 2 6 4 1 2 1 3 3 4 6 14 9 7 7 6 9 7 4 6 7 12 7 3 8 11 17 10 9 8 5 5 14 25 21 28
6 2 3 4 4 3 4 4 7 5 5 8 3 4 4 3 2 4 5 3 8 10 6 3 7 12 21 21 17 17 16 14 5 7 11 8 17 13 14 10 13 16 18 22 25
4 3 2 5 5 6 2 2 5 6 2 5 7 8 7 4 6 8 6 5 7 7 7 5 5 6 11 17 18 19 17 17 14 8 8 6 6 3 5 6 2 6 10 21 29
2 4 2 3 2 3 1 4 7 11 8 20 9 6 8 14 17 20 20 18 11 9 12 6 3 3 6 5 10 8 11 5 7 10 2 8 2 9 2 4 6 10 13 21 23

GFSSW_850_spd_045.txt.gz
Wind_Speed
24 24 23 23 22 22 19 17 18 18 16 22 20 15 13 12 11 13 11 7 15 11 23 23 21 18 16 12 6 4 2 4 3 6 3 6 5 7 6 17 6 8 10 28 39
27 26 24 23 23 23 21 18 18 20 17 22 21 14 13 13 11 10 5 7 11 17 28 29 23 21 9 9 5 6 3 4 4 5 2 7 9 14 7 16 5 10 19 32 36
26 26 25 24 23 23 22 19 19 20 20 21 16 15 13 12 4 4 2 3 22 23 24 25 25 18 11 12 8 6 4 3 5 6 3 7 12 9 14 9 10 19 30 36 37
24 24 24 24 24 23 21 19 19 21 23 20 13 15 18 8 1 5 5 4 26 28 26 26 21 13 9 9 13 5 10 9 3 3 6 8 8 5 11 2 13 22 34 42 40
26 25 25 24 24 23 20 19 18 21 22 17 16 19 12 2 2 12 7 1 31 30 29 24 25 15 11 10 7 13 6 4 9 7 8 7 7 4 7 4 13 25 37 40 39
28 27 26 26 25 23 19 18 19 19 19 16 17 14 4 4 6 13 13 11 32 30 25 22 19 15 11 5 9 8 19 11 7 8 9 11 14 3 3 13 20 30 37 41 41
29 28 28 27 26 23 19 18 19 18 14 17 14 14 16 8 12 8 11 6 27 26 24 19 7 16 6 7 9 14 6 5 10 11 6 4 5 8 15 18 24 29 34 37 38
31 31 29 28 26 23 19 18 17 12 13 9 9 11 6 18 13 7 9 5 16 26 18 18 10 14 3 3 2 6 7 4 2 13 8 8 3 7 20 22 23 27 32 35 36
31 32 30 28 24 20 18 18 12 10 5 11 12 6 4 14 19 11 6 4 10 30 13 9 9 5 8 4 4 5 7 13 6 11 8 12 3 7 18 19 23 27 33 34 34
31 30 29 27 20 16 18 14 6 12 8 6 14 4 13 12 15 18 6 7 7 20 13 5 11 8 7 11 10 11 12 7 12 8 13 10 11 8 16 16 20 25 30 33 35
31 32 32 25 12 15 19 6 6 4 13 8 5 5 11 10 12 22 9 11 16 14 12 7 10 20 20 12 13 2 6 12 7 6 10 16 13 11 16 16 19 25 28 32 36
32 32 30 20 7 10 16 11 12 5 4 3 11 8 12 6 5 27 8 3 7 8 11 6 17 15 10 13 12 18 12 8 7 5 9 10 16 11 18 24 28 30 31 34 31
30 29 27 14 10 7 14 15 16 4 1 2 2 9 15 7 7 17 15 3 4 10 15 13 2 16 13 13 16 17 19 15 7 7 11 6 14 12 13 17 19 22 25 28 33
27 27 22 9 1 9 9 16 14 1 2 3 1 5 15 5 5 14 15 4 1 6 11 11 17 8 14 18 17 18 15 17 15 8 8 10 13 16 14 17 19 25 28 31 33
26 25 17 6 3 5 11 15 6 4 3 4 3 5 9 6 6 12 13 5 2 0 2 8 9 15 18 16 15 16 8 16 18 17 13 14 8 17 8 16 19 26 30 32 33
25 21 12 4 4 8 11 9 6 2 5 3 3 4 3 8 3 9 9 7 1 2 2 6 6 5 10 16 16 4 10 10 13 14 18 23 15 15 17 17 19 22 29 33 34
25 20 5 4 7 7 10 2 2 4 1 2 3 2 4 3 3 6 5 10 5 1 1 4 5 4 13 9 11 15 10 6 8 9 17 19 17 19 13 16 17 20 32 36 36
25 17 3 7 3 5 7 1 6 2 1 2 0 2 2 1 2 5 4 3 8 3 2 2 7 1 8 15 12 16 18 8 13 10 13 16 14 15 23 25 20 22 27 27 32
26 11 4 11 4 3 2 2 2 3 1 3 2 4 4 3 1 1 2 3 1 4 1 2 6 6 9 9 8 16 19 20 15 4 10 14 18 12 13 18 28 22 18 27 33
24 5 9 13 6 2 1 3 2 2 1 3 4 3 4 0 2 1 3 5 6 2 5 3 7 2 8 9 14 13 13 17 13 18 19 7 19 12 22 17 19 22 21 25 29
14 3 14 14 6 3 3 1 3 4 1 5 5 4 6 4 6 5 4 4 7 7 2 4 4 2 8 4 10 14 14 16 18 19 11 16 9 11 19 21 19 19 30 28 29
11 1 17 9 5 4 2 6 6 4 1 3 3 7 8 7 6 6 8 5 12 10 4 4 3 5 13 17 22 17 11 22 14 23 19 16 13 4 14 21 25 27 26 31 31
9 6 12 9 3 4 5 4 4 4 4 3 3 5 5 8 4 8 6 8 13 9 6 7 3 5 11 11 18 11 17 17 24 21 23 17 14 14 8 9 15 21 26 21 28
6 3 7 13 7 3 5 4 6 7 2 4 4 2 3 6 5 2 6 9 14 9 8 7 4 7 12 17 11 10 12 16 20 21 21 21 21 22 14 8 10 11 15 15 19
7 3 4 4 6 6 6 5 7 6 7 8 4 7 6 6 5 8 7 6 12 13 9 7 7 8 14 20 24 26 26 26 20 23 22 22 22 24 22 23 21 18 13 7 11
4 3 3 2 3 5 1 2 6 6 2 5 9 11 9 7 10 7 7 8 11 12 11 8 6 9 18 23 23 28 29 26 23 24 19 17 15 2 11 19 17 14 12 15 16
3 1 0 2 3 3 3 4 8 14 8 15 11 1 5 10 17 21 17 17 14 9 12 9 5 7 21 17 17 22 30 25 21 17 21 22 15 7 4 3 1 5 10 15 17

GFSSW_850_spd_048.txt.gz
Wind_Speed
22 22 21 20 19 17 17 15 14 14 15 17 16 18 9 9 8 6 5 8 17 14 20 20 19 18 18 14 10 5 5 3 2 2 7 10 6 10 10 11 7 12 4 19 35
22 22 21 21 21 19 17 15 15 15 15 18 14 12 11 10 6 5 7 9 15 19 24 27 23 22 18 16 11 10 7 3 4 1 3 10 9 15 10 15 9 8 14 35 36
22 22 22 22 21 20 18 16 15 16 16 17 12 10 14 10 2 5 4 8 18 23 23 21 20 22 18 16 16 11 10 5 2 3 9 10 14 9 10 11 13 20 31 36 36
23 23 22 22 21 21 20 17 16 16 17 16 11 14 13 1 1 5 8 8 18 26 23 23 23 22 17 13 17 11 10 9 4 6 11 3 9 7 8 6 14 21 32 40 38
24 24 24 24 21 20 19 16 16 17 16 14 13 12 3 3 3 9 7 4 24 27 28 25 27 20 15 15 9 17 8 5 6 8 8 4 6 2 9 6 15 23 32 38 35
25 25 26 26 23 21 19 16 15 15 14 14 9 5 6 5 4 9 9 12 23 25 25 24 21 16 10 7 15 4 18 9 5 10 7 11 8 7 7 12 18 26 33 37 37
27 27 27 27 25 22 18 16 15 13 8 7 11 18 10 5 4 4 4 10 18 20 24 21 8 18 6 10 14 14 6 10 17 19 10 6 11 9 15 16 20 25 31 35 34
28 28 27 26 23 19 17 15 11 7 5 5 10 10 6 8 8 5 3 11 16 15 18 16 11 20 9 2 7 15 15 13 15 18 13 9 7 12 18 19 20 24 29 33 34
28 27 26 24 21 17 16 13 3 9 6 7 6 3 5 5 8 6 3 9 16 14 13 14 12 14 15 12 11 12 12 18 10 15 12 13 7 15 16 17 19 23 27 31 34
28 27 25 21 15 15 16 7 3 12 3 6 7 3 8 6 10 7 4 14 14 20 11 16 14 11 13 14 13 15 17 13 16 13 18 15 10 12 15 16 19 21 25 29 34
27 26 24 18 9 12 15 5 3 2 7 6 6 5 5 3 8 8 6 7 11 23 14 17 15 19 19 18 16 8 12 16 14 13 14 18 14 14 16 17 19 21 26 29 33
25 26 23 13 6 8 11 4 5 1 2 2 2 4 5 3 1 11 2 8 13 17 19 11 19 18 15 14 15 16 11 13 9 8 11 18 19 15 16 18 21 22 24 27 29
25 25 21 11 4 7 5 7 10 1 6 5 2 2 6 2 5 10 6 3 12 16 18 17 5 19 14 15 17 18 18 14 11 4 14 14 16 17 17 17 19 20 22 26 30
23 22 18 7 1 7 3 14 11 3 5 8 6 2 5 3 2 7 9 2 7 11 15 17 15 6 17 18 17 18 17 14 15 12 12 20 14 21 18 18 18 22 25 28 31
23 21 13 2 1 4 8 13 4 1 5 5 4 2 3 2 4 4 6 3 5 7 7 11 13 19 18 13 20 16 12 13 14 17 16 15 12 17 24 19 19 22 26 28 31
22 19 9 2 2 4 7 8 1 7 4 5 3 1 2 4 2 5 3 0 1 6 11 16 1 7 20 19 11 4 15 13 14 14 18 23 18 18 20 22 21 24 26 28 31
22 16 5 2 3 4 5 1 6 7 3 6 3 2 0 1 1 4 3 2 5 10 14 13 15 13 12 13 21 17 13 9 12 14 20 20 20 19 13 19 19 19 26 28 30
22 10 4 2 2 3 2 7 7 4 1 3 2 3 5 2 3 1 2 5 1 6 4 10 13 15 1 17 13 23 21 12 20 14 20 20 21 22 26 21 15 22 20 26 28
16 5 5 6 3 2 8 6 4 2 3 3 5 8 6 5 5 4 3 2 1 4 6 7 10 3 3 4 9 18 22 25 23 16 13 17 18 18 22 24 29 17 25 22 27
10 4 8 9 1 4 6 5 2 3 2 4 9 3 6 6 5 3 4 6 5 1 5 3 7 4 2 9 17 18 16 18 17 23 23 17 19 16 21 21 23 24 27 23 24
6 3 10 7 3 7 5 3 3 3 4 5 7 9 8 8 7 9 3 7 4 5 3 2 3 8 3 11 17 16 19 15 16 19 18 19 16 13 16 22 22 24 30 31 24
6 1 14 6 2 2 3 5 5 5 4 7 6 12 12 10 11 11 9 5 8 7 3 1 4 8 12 10 11 11 15 18 17 24 20 19 10 15 5 14 24 30 25 31 29
6 4 11 7 2 5 6 4 3 7 5 6 7 5 8 11 7 9 6 3 10 9 3 4 4 6 8 17 16 12 20 15 16 21 23 20 19 17 12 5 13 22 31 26 28
4 1 6 15 14 8 5 8 6 3 6 6 9 10 12 12 12 6 8 6 11 13 5 3 11 12 12 14 11 10 12 14 17 17 20 23 21 17 22 16 9 13 16 23 30
7 5 5 4 8 6 3 3 4 6 5 8 5 8 9 7 14 16 12 11 13 14 13 8 10 14 17 16 16 18 19 19 20 18 22 21 24 25 19 21 17 10 7 4 10
4 3 4 5 4 5 5 5 7 5 2 6 8 10 7 7 14 7 10 15 15 15 17 15 13 13 17 16 18 23 23 26 25 25 25 24 29 29 32 27 31 29 22 13 12
6 5 3 0 1 3 3 2 5 11 4 11 14 9 8 12 17 22 23 19 15 13 17 15 10 12 18 18 20 23 21 27 30 27 27 25 25 27 14 14 22 21 19 14 13

GFSSW_850_spd_051.txt.gz
Wind_Speed
19 19 19 19 18 17 16 13 11 12 14 14 16 10 9 6 6 6 6 10 16 13 16 15 20 18 19 16 14 15 6 7 10 8 7 13 15 11 11 11 12 14 8 25 34
20 20 20 20 20 19 18 16 12 11 15 14 14 8 8 11 4 9 12 15 17 20 21 23 24 21 21 21 16 11 9 6 12 3 8 14 14 18 12 15 11 12 17 32 36
21 21 21 21 21 20 18 17 15 13 13 14 11 11 10 5 2 5 14 12 17 23 20 20 18 21 22 18 21 18 14 9 12 2 8 13 12 16 9 14 16 19 29 36 35
22 23 23 22 22 21 18 17 15 14 14 13 10 11 10 6 1 3 10 10 15 23 19 23 20 22 19 19 21 17 13 10 9 3 8 6 2 15 5 11 21 23 32 38 36
23 23 24 24 23 21 19 16 15 15 14 12 11 9 5 6 1 6 5 11 15 27 22 26 23 22 18 18 18 18 16 1 5 2 6 11 15 2 3 13 23 27 32 36 35
24 24 25 25 24 21 18 15 14 15 14 9 6 2 3 10 3 6 3 7 20 27 23 24 20 21 15 17 15 11 18 5 10 11 11 5 4 12 15 16 24 29 33 35 34
25 24 24 25 25 21 17 15 13 11 8 4 7 7 3 4 3 3 1 8 18 22 22 22 18 19 11 14 16 20 12 16 14 16 9 14 11 18 19 22 25 28 31 33 32
25 24 23 24 23 19 17 15 10 9 2 8 5 2 2 1 1 2 3 10 16 18 18 18 17 15 21 12 7 17 18 15 20 18 19 24 9 23 22 25 25 27 29 32 31
25 24 23 21 20 16 16 13 2 5 5 7 0 4 8 2 2 2 5 12 15 16 16 16 14 18 21 13 13 15 15 21 19 23 21 20 5 27 25 24 25 27 29 31 31
23 23 21 20 16 14 16 7 2 5 1 1 5 8 3 2 4 1 6 10 17 15 16 15 14 16 17 16 15 17 18 17 19 16 21 18 16 19 24 25 24 26 29 31 33
23 22 18 16 11 11 12 9 5 5 10 8 4 2 4 3 3 3 8 13 15 18 17 24 16 19 22 20 21 17 16 20 19 15 16 17 12 28 21 22 24 26 29 31 34
22 22 17 13 7 6 9 5 4 5 9 7 4 3 1 4 5 4 7 14 16 18 21 14 21 20 18 17 19 18 14 15 16 14 10 16 15 11 18 19 25 26 27 29 31
22 22 16 10 4 4 2 2 5 5 8 11 7 5 2 6 2 2 5 12 12 19 22 22 13 20 21 19 17 18 18 17 13 11 16 11 19 15 15 24 24 24 26 29 33
22 20 13 4 1 4 2 7 7 4 6 13 10 5 5 4 9 2 2 8 10 16 20 21 22 11 22 21 17 19 18 18 15 13 13 20 13 21 18 18 22 25 25 29 32
21 19 11 5 4 5 6 8 3 4 6 7 8 2 3 9 4 8 3 8 14 14 12 17 18 21 18 22 17 18 16 17 17 17 16 21 17 11 28 24 23 25 28 28 32
21 17 6 2 3 4 6 6 2 7 4 7 4 4 9 4 4 2 3 6 8 8 10 19 10 13 19 16 17 18 17 15 14 15 17 24 18 19 20 17 25 27 31 30 32
20 13 2 5 3 7 7 6 7 9 3 8 5 6 4 3 7 4 4 11 11 11 15 17 20 13 16 17 22 16 15 13 14 15 18 23 23 19 18 21 25 28 34 33 33
18 6 5 2 6 6 5 10 10 4 3 5 2 5 9 3 8 4 8 10 10 13 15 13 16 21 17 21 18 26 22 13 21 15 21 24 26 24 26 19 23 55 32 37 35
9 5 1 6 6 3 10 9 5 7 6 2 7 11 12 7 6 4 10 12 5 4 14 10 18 7 3 8 18 17 24 27 25 22 19 19 25 24 25 27 20 23 27 30 38
6 3 5 7 3 4 9 12 4 8 7 6 11 6 10 8 6 8 7 4 3 6 9 6 10 10 9 6 16 16 17 18 18 25 26 18 23 20 25 22 25 21 17 22 33
4 7 5 8 4 10 8 6 4 6 7 7 10 12 9 11 5 13 6 8 4 5 8 12 8 15 9 12 19 16 19 20 19 18 21 19 16 13 21 24 21 25 32 24 24
4 4 10 4 12 3 7 5 3 7 3 4 6 8 13 15 13 11 14 9 7 5 10 5 8 15 18 13 14 23 13 22 16 22 17 21 16 14 11 20 22 24 30 36 32
8 3 11 6 3 1 4 2 3 6 5 6 8 9 10 8 8 11 15 6 5 7 4 4 10 12 17 15 16 16 17 17 17 21 25 18 20 20 5 6 5 16 28 30 33
7 2 6 13 8 5 2 5 4 6 6 6 10 12 12 15 13 7 12 5 6 10 6 2 13 14 15 5 12 9 21 21 18 16 20 21 19 25 11 4 5 11 17 31 26
7 5 5 3 7 5 3 3 4 8 11 9 2 6 9 7 10 14 14 10 10 12 9 10 16 16 19 18 13 15 13 12 17 18 22 22 22 24 15 12 12 10 12 18 22
6 2 4 8 3 2 7 8 8 9 4 5 6 9 8 9 12 17 6 11 16 11 15 14 16 16 22 15 17 19 18 19 19 20 22 24 27 23 27 29 31 32 17 10 12
6 4 3 4 6 5 6 6 7 6 2 7 6 7 9 11 11 17 18 17 15 15 15 16 14 14 20 19 19 21 21 21 22 22 21 23 25 24 25 25 35 34 25 26 18

GFSSW_850_spd_054.txt.gz
Wind_Speed
20 20 21 21 20 19 17 15 15 14 15 14 15 11 6 7 7 8 10 9 19 10 17 12 16 20 17 18 21 13 6 8 3 6 4 23 17 19 19 17 19 17 20 32 35
21 21 22 22 22 21 19 17 14 14 14 15 13 9 9 11 10 14 11 18 15 14 21 18 21 22 23 19 20 10 7 6 8 12 9 12 21 23 13 18 14 15 25 36 38
22 23 23 23 23 22 20 18 16 13 14 14 13 10 10 10 6 5 19 18 17 19 19 17 18 21 21 21 20 22 15 12 18 12 23 19 18 22 12 17 23 26 32 40 38
23 24 24 24 24 23 21 18 16 15 14 15 12 13 9 4 2 5 7 9 15 20 20 18 20 23 19 19 22 20 23 21 1 11 9 9 15 5 19 14 4 31 33 40 39
22 23 24 24 23 22 20 17 16 15 15 14 11 10 3 5 5 4 6 7 14 23 22 19 24 21 18 19 22 19 20 9 7 10 8 18 9 5 16 25 15 30 35 37 37
23 22 23 24 24 22 19 16 16 15 13 10 9 5 5 10 1 3 2 9 13 24 22 20 20 19 18 21 19 19 20 19 4 12 11 13 10 19 23 24 28 32 37 37 36
23 22 22 22 22 21 18 16 14 12 8 6 2 3 9 9 4 3 3 7 16 23 22 19 19 18 19 13 19 16 19 11 15 11 10 9 5 9 31 27 32 31 35 37 34
24 23 22 21 20 18 16 15 11 8 3 4 2 4 8 2 4 4 5 8 12 20 20 15 18 17 20 15 20 12 17 16 17 16 15 17 10 13 18 7 30 31 33 39 36
23 23 22 21 18 16 14 11 3 3 1 6 2 5 8 3 1 3 7 10 13 16 17 15 17 18 14 16 14 14 15 20 21 24 18 18 10 10 18 34 33 30 34 35 35
25 23 21 20 18 13 10 5 3 2 2 5 11 10 10 4 1 2 6 9 14 16 14 15 15 13 13 15 15 16 17 18 18 18 22 15 6 14 15 14 36 33 34 35 35
23 22 20 18 14 9 7 6 4 4 12 13 1 9 2 3 3 2 6 10 14 17 14 22 13 16 20 21 20 21 19 19 17 17 20 14 12 5 15 13 20 32 33 36 40
24 23 19 16 11 2 5 8 4 6 10 16 11 9 4 5 5 5 6 12 15 14 17 13 20 20 19 19 20 21 20 19 14 17 19 20 17 18 10 20 31 32 34 36 38
25 23 18 14 8 2 3 5 7 7 8 15 13 13 6 7 12 9 7 15 14 16 18 21 14 22 21 19 19 19 19 17 19 14 12 13 19 17 16 22 24 34 34 35 39
25 23 17 9 5 8 5 5 7 6 5 14 11 6 7 8 9 7 5 10 12 18 19 21 22 19 20 22 19 19 16 18 19 17 12 16 15 26 21 21 5 36 34 35 37
24 21 14 9 9 8 5 7 6 4 5 11 11 5 3 13 8 12 6 10 15 14 11 18 22 21 21 18 21 18 17 14 17 18 18 18 15 17 29 18 17 36 33 35 38
23 19 7 2 4 3 7 7 4 6 5 6 7 8 10 10 5 1 5 10 10 12 18 16 22 17 20 18 17 18 14 19 16 15 16 21 19 16 15 20 14 17 32 23 39
21 12 3 7 5 7 8 8 6 9 10 9 8 7 10 12 7 5 8 11 10 10 12 15 19 17 14 17 21 17 15 12 13 13 17 20 18 16 20 26 34 19 23 60 42
16 7 9 4 7 9 8 10 10 11 6 9 2 3 7 9 8 4 5 9 12 12 12 12 14 20 15 17 14 19 18 14 18 14 18 20 20 18 24 19 46 52 46 21 42
11 2 4 4 8 4 10 8 3 11 17 9 2 6 10 9 3 3 9 13 10 5 9 11 17 5 23 17 18 21 20 22 23 20 17 17 18 24 21 21 14 21 30 38 19
12 2 2 5 4 4 8 12 6 14 13 10 8 11 12 8 11 6 9 1 4 5 9 10 15 16 9 5 9 14 14 14 15 22 23 18 20 14 20 18 14 14 19 25 27
6 7 3 9 3 8 7 4 8 12 11 10 12 12 13 12 14 6 10 6 0 1 3 13 12 19 9 9 14 13 16 14 14 13 19 16 16 17 13 22 19 20 27 34 50
8 3 10 4 8 9 8 7 5 10 7 3 4 6 8 12 15 16 14 9 14 8 5 9 9 13 19 13 14 16 20 18 13 17 15 14 17 22 17 14 17 19 19 38 37
9 5 10 4 4 6 7 7 8 12 11 8 6 9 12 9 7 9 11 14 5 3 6 9 7 9 16 15 18 13 17 18 19 18 22 15 14 22 15 15 10 15 18 11 43
9 2 9 11 10 10 6 9 7 12 11 12 9 8 7 7 6 5 9 7 12 7 9 7 10 14 13 10 14 11 16 18 19 15 15 20 23 20 13 19 24 25 23 12 14
8 6 5 6 9 9 13 11 14 10 12 7 2 6 7 7 12 11 5 5 8 15 7 6 14 17 20 22 18 18 18 21 24 23 21 18 23 22 18 17 21 28 30 31 19
9 7 9 6 3 7 5 8 7 9 6 8 9 11 11 9 11 15 14 12 8 11 13 12 15 17 21 21 21 23 20 20 20 17 22 20 25 24 17 13 23 24 28 35 39
8 6 4 4 10 5 6 5 5 9 9 8 12 9 10 9 16 17 17 19 14 13 11 14 11 12 20 19 20 23 20 20 19 19 15 17 23 21 18 15 23 28 29 33 41

GFSSW_850_spd_057.txt.gz
Wind_Speed
20 21 21 21 21 21 19 17 17 16 15 14 14 13 9 10 10 11 15 12 13 10 15 9 13 20 14 16 23 24 2 5 6 5 2 3 4 8 10 18 6 13 23 39 40
20 21 21 22 22 21 20 18 16 16 14 15 14 14 11 13 15 17 11 16 13 14 16 16 17 17 24 21 19 16 4 8 5 4 7 8 13 13 12 14 7 14 32 38 39
22 22 22 22 22 22 21 18 16 15 16 14 14 13 13 13 9 5 10 12 14 14 17 15 14 18 20 24 24 18 14 15 20 9 17 22 19 15 12 11 10 28 37 42 39
23 23 23 22 21 21 20 17 16 15 15 15 13 13 10 8 2 1 2 8 15 16 21 21 20 25 16 14 26 16 24 27 28 15 19 19 13 4 7 7 8 37 45 46 37
23 24 24 23 22 21 20 17 16 15 14 12 12 10 7 2 8 3 5 5 12 20 26 21 15 24 15 15 20 16 17 26 6 18 28 19 17 14 9 17 14 29 37 42 34
23 23 23 23 22 21 19 16 16 14 12 9 9 8 4 4 2 2 5 4 10 21 27 21 13 20 20 20 15 22 24 22 18 17 27 21 11 10 13 27 14 34 38 38 35
24 23 23 21 21 21 18 16 16 11 10 7 3 2 7 12 1 5 5 9 7 17 24 24 22 23 18 10 24 22 12 14 9 11 7 19 4 4 21 21 30 32 35 36 32
23 22 22 21 20 19 17 16 13 8 5 2 1 4 8 3 8 10 5 10 10 13 21 18 16 23 25 19 20 10 8 6 10 7 9 11 7 18 21 24 26 30 31 34 35
25 23 23 20 18 19 15 14 8 5 3 4 1 5 8 6 2 4 8 10 10 14 18 20 22 24 18 6 6 7 6 8 13 15 6 8 12 20 37 29 26 34 35 33 31
25 25 24 21 18 16 12 11 6 6 5 6 6 10 9 10 5 3 5 8 14 14 18 23 21 5 6 3 8 9 7 8 12 17 15 15 14 18 30 28 23 31 36 38 34
27 26 23 20 17 13 8 8 6 1 11 11 4 8 6 3 1 4 7 7 13 17 9 15 4 9 10 10 12 16 15 13 11 16 17 18 20 21 30 36 30 27 30 39 39
26 25 23 18 13 7 9 7 7 6 9 18 23 21 6 2 4 6 7 9 10 7 9 6 13 11 10 15 16 19 16 16 15 13 8 20 18 16 23 28 31 26 39 45 36
26 24 21 15 8 1 8 6 10 8 6 15 20 18 14 9 10 12 9 13 9 10 11 11 11 19 16 16 17 16 11 12 11 16 8 12 5 6 12 21 27 4 13 31 46
24 23 20 12 2 6 11 2 9 7 3 5 12 6 7 1 5 10 6 4 6 11 12 10 18 17 17 17 13 10 10 12 13 8 2 5 3 7 7 6 12 19 6 13 32
23 23 13 9 6 6 12 9 12 5 3 10 8 7 4 9 4 4 3 4 8 10 6 10 14 16 18 15 17 13 10 10 10 7 7 13 1 7 15 7 9 16 21 37 23
20 19 6 3 2 7 14 12 8 2 5 6 7 7 4 8 9 8 5 7 11 8 11 11 22 11 14 16 11 12 10 11 6 4 7 11 4 1 13 18 16 29 44 53 38
17 11 4 6 4 9 11 12 2 3 10 6 7 7 10 8 6 3 6 7 4 1 5 9 12 10 13 9 11 7 2 3 3 5 8 7 5 8 16 19 24 30 37 36 38
13 2 7 3 6 13 9 4 4 8 13 5 8 5 1 7 5 8 1 6 7 9 5 5 7 11 7 6 4 7 9 5 8 6 7 8 6 7 11 34 40 43 35 48 43
9 2 2 7 9 6 8 3 6 10 14 13 2 2 3 4 1 4 2 6 7 13 1 6 6 16 12 14 8 6 5 9 5 12 4 6 8 10 12 11 32 31 29 27 28
11 1 2 6 4 5 3 3 8 14 11 9 8 8 8 12 1 7 6 5 4 9 10 7 6 7 13 5 8 8 4 5 4 6 6 6 9 5 6 18 24 22 34 31 37
8 5 3 6 2 7 2 5 6 14 13 7 7 6 9 9 10 11 12 15 17 11 11 5 2 11 9 4 3 1 2 1 0 1 4 6 8 8 3 18 23 30 42 41 42
4 1 13 4 4 3 4 5 12 14 17 9 5 7 11 12 8 7 9 9 11 14 6 8 2 6 10 18 15 11 3 0 3 7 3 3 8 11 12 18 6 17 36 46 47
11 0 13 10 4 4 8 16 15 12 15 13 10 11 9 7 5 8 11 17 23 9 5 7 4 5 10 6 5 6 6 6 4 4 10 5 8 4 15 17 23 21 26 27 34
7 2 11 18 19 14 6 12 12 21 15 12 9 12 12 9 8 4 5 5 13 13 9 8 3 3 6 7 9 12 19 17 5 2 5 6 8 9 11 12 19 24 35 29 18
7 5 7 4 7 8 13 9 11 9 12 18 7 13 11 6 8 5 10 9 14 9 6 4 4 7 12 13 14 16 18 19 13 9 4 11 14 4 10 11 20 23 24 23 23
5 5 7 9 10 13 8 8 10 11 9 9 10 13 10 5 7 11 11 9 5 6 6 3 4 7 13 12 17 17 17 20 19 16 15 13 16 6 20 25 23 27 27 21 22
8 6 1 8 9 6 3 5 10 9 8 9 6 4 6 10 14 19 21 20 15 8 3 1 3 5 7 8 13 12 12 16 18 18 11 12 10 10 9 14 18 25 28 32 33

GFSSW_850_spd_060.txt.gz
Wind_Speed
20 20 20 19 19 18 18 16 15 13 13 12 12 13 12 10 12 13 16 10 14 11 16 12 14 15 14 12 13 6 3 2 4 4 5 7 5 10 3 17 10 7 25 42 44
20 20 20 20 19 19 18 16 14 14 13 12 12 13 13 13 15 19 7 13 18 13 18 15 19 20 10 11 5 7 4 5 5 5 6 10 5 10 7 14 9 6 30 38 43
22 21 20 20 20 19 19 18 15 15 14 12 12 12 12 12 12 4 6 14 18 16 11 12 15 17 12 14 11 6 6 5 15 16 11 4 2 6 8 7 13 30 39 39 40
22 22 21 21 20 19 18 18 16 15 15 12 10 11 10 8 2 3 5 6 14 15 14 19 17 11 6 8 18 6 17 19 15 13 8 4 2 5 9 6 18 34 50 41 37
22 22 21 21 20 19 18 18 16 16 14 12 9 8 6 4 8 2 1 3 13 17 19 24 19 12 5 8 18 11 20 22 21 27 31 17 23 5 5 10 14 36 36 38 35
23 24 23 22 19 19 18 16 15 16 13 11 9 6 4 4 2 1 4 3 11 18 22 28 16 25 8 13 9 11 14 15 26 25 16 13 7 5 9 15 26 33 35 34 32
23 24 24 22 20 19 17 16 14 15 10 8 5 4 6 8 3 4 7 4 4 13 24 30 23 6 3 7 25 20 9 9 17 29 12 14 2 10 17 18 26 27 32 31 28
24 25 24 22 21 20 17 15 13 11 7 5 2 3 7 6 8 12 9 7 8 4 17 24 23 15 11 13 10 4 3 4 8 24 15 10 5 4 23 20 21 25 29 29 27
25 25 24 22 19 19 17 14 10 7 4 2 4 5 7 8 7 7 15 13 12 7 8 18 8 14 12 4 5 6 2 4 9 16 11 9 5 13 25 33 26 29 29 30 27
26 25 24 22 18 17 15 11 8 6 5 4 7 7 8 8 9 7 8 12 16 12 12 8 8 3 2 4 4 3 3 4 5 5 10 6 6 13 21 24 32 32 33 34 32
26 24 23 21 17 15 9 6 3 3 6 9 4 5 6 4 5 7 8 9 17 11 5 7 3 6 9 6 6 3 4 9 16 13 6 10 15 20 23 21 27 29 31 36 30
25 24 23 20 13 9 7 4 6 7 8 15 20 22 19 13 2 7 11 7 9 5 4 3 5 8 5 6 7 5 7 14 15 8 6 14 18 18 24 22 26 28 28 33 33
24 24 23 16 4 3 4 5 7 11 5 13 18 16 13 9 3 5 13 7 5 5 5 6 7 9 9 8 8 8 7 12 12 3 8 8 6 13 10 15 20 22 26 25 31
22 21 21 8 3 5 11 10 7 7 4 6 6 5 10 9 2 5 8 3 2 10 6 6 16 11 9 11 6 7 7 14 11 2 3 5 3 6 11 10 11 22 34 35 33
20 20 16 7 2 6 12 9 7 3 2 2 4 8 12 8 6 6 3 1 1 3 4 6 5 8 11 13 7 13 13 11 2 1 4 2 4 5 15 15 16 29 34 43 39
19 17 10 2 5 10 10 7 7 5 2 3 5 4 5 2 2 7 2 2 2 1 0 7 11 3 7 12 10 12 6 5 5 3 2 5 6 5 15 23 23 27 35 34 46
14 9 5 1 7 9 8 9 5 3 7 2 4 4 5 4 3 5 3 1 3 3 4 5 5 4 4 3 5 5 6 3 4 2 5 3 3 7 24 19 26 33 44 44 35
5 4 10 6 8 9 13 4 7 6 6 5 3 5 5 4 3 4 4 3 2 0 0 3 6 4 7 2 5 3 9 6 6 2 4 3 4 5 14 28 40 52 43 36 37
4 6 6 7 9 9 9 5 2 5 7 9 6 9 9 7 4 2 6 10 4 5 5 2 4 6 3 4 3 3 2 7 6 1 4 4 7 5 12 5 19 30 33 40 44
7 3 7 10 7 6 5 4 4 8 9 6 6 4 8 8 7 6 8 9 4 8 3 2 3 3 6 10 9 1 3 3 4 4 4 5 5 4 12 15 6 14 31 35 36
7 3 15 4 0 3 3 1 7 22 19 8 7 7 5 5 5 7 7 7 8 7 14 6 4 7 5 5 3 7 6 5 5 5 5 3 4 2 9 14 15 18 35 31 36
5 4 17 5 4 4 4 5 9 14 21 9 10 9 5 8 6 4 5 6 16 7 4 4 3 3 6 5 4 5 8 7 4 1 3 4 4 2 11 17 26 24 13 18 22
5 7 28 13 4 4 7 9 16 9 8 6 9 8 6 6 5 5 5 17 21 10 5 5 4 5 13 6 8 6 8 7 4 3 3 5 4 8 17 19 25 30 10 24 25
5 4 10 23 21 6 4 8 4 17 19 15 8 11 8 7 5 5 8 12 19 14 15 7 3 4 4 4 4 7 14 9 5 3 3 2 4 9 11 12 20 32 35 7 11
7 3 4 3 8 11 11 5 11 6 9 21 7 9 5 6 7 5 7 8 9 19 10 4 2 4 2 4 5 8 14 11 5 4 3 6 6 3 3 7 16 26 25 23 16
5 5 8 14 11 13 6 5 8 5 6 3 4 5 6 4 1 4 5 4 2 10 7 5 3 5 7 8 9 8 10 12 9 5 5 7 5 5 8 20 18 16 24 25 22
9 9 3 9 6 5 3 3 5 4 8 10 5 2 5 4 12 14 15 11 9 1 2 0 2 3 3 7 8 7 4 5 8 3 0 4 6 5 8 13 14 18 21 18 20

GFSSW_850_spd_063.txt.gz
Wind_Speed
18 19 19 19 17 17 17 17 15 14 13 11 11 10 11 10 11 13 14 9 16 14 18 18 15 15 18 14 8 4 1 3 3 3 2 9 5 8 2 10 7 2 17 38 40
19 19 18 18 18 18 17 17 16 14 14 13 12 11 10 11 14 17 8 12 19 16 23 20 20 20 9 8 7 4 1 6 5 0 5 13 6 13 5 12 9 20 30 41 38
21 21 20 19 18 18 17 17 17 15 14 13 13 11 11 10 11 3 3 18 20 18 18 15 19 16 4 4 6 5 4 3 2 4 10 11 7 9 13 9 9 29 39 41 38
21 22 22 21 20 19 17 17 17 15 15 13 12 11 9 6 1 3 7 15 22 20 19 17 21 11 5 5 12 4 9 12 6 5 7 8 7 7 12 8 15 36 46 43 40
21 22 22 22 22 20 18 16 17 16 15 12 11 9 7 5 7 4 6 14 21 21 21 21 22 11 6 6 9 8 6 10 15 21 19 11 8 6 7 9 17 36 39 37 36
22 22 22 21 21 21 19 16 16 15 15 10 10 9 5 3 6 6 4 7 18 22 22 24 18 21 6 3 3 4 8 15 15 14 12 3 2 6 8 13 24 34 34 34 36
23 23 23 22 21 19 18 16 16 14 12 9 5 5 7 6 6 8 2 4 5 15 23 26 10 16 1 3 9 18 9 10 7 14 3 6 4 5 16 16 32 36 31 28 34
24 25 23 22 20 20 17 16 14 12 10 6 2 3 7 5 9 11 8 6 4 5 14 22 23 8 2 7 6 4 4 1 3 12 4 6 4 8 23 26 27 31 31 32 33
25 24 23 22 20 19 16 15 11 8 6 4 5 4 5 10 12 11 11 9 8 8 8 6 19 6 3 1 4 6 1 1 1 19 4 7 4 12 23 27 24 30 32 33 28
24 23 23 22 19 17 13 10 5 3 4 4 6 5 6 6 9 8 12 14 9 13 7 9 8 4 2 4 4 2 2 0 2 4 3 10 8 11 23 24 30 30 32 33 35
23 21 22 21 17 13 6 2 2 2 5 8 2 7 3 4 8 9 12 15 11 12 5 8 4 6 7 8 7 3 3 4 2 6 6 12 8 17 22 20 23 28 31 33 35
22 21 21 20 13 5 4 4 10 3 8 14 16 20 19 11 4 9 14 9 9 4 4 5 4 8 5 4 5 5 4 4 7 5 4 4 6 8 14 15 19 21 24 28 29
21 20 20 16 3 3 5 13 13 8 2 9 13 13 11 6 4 3 12 9 5 5 5 5 4 6 5 3 3 3 6 3 6 5 2 5 2 5 3 4 14 20 25 25 31
21 19 18 8 3 4 7 10 8 2 4 6 4 7 9 5 1 7 7 4 3 9 6 4 7 6 5 5 6 6 5 5 5 1 3 3 3 7 6 6 9 20 28 33 37
19 17 14 3 2 7 10 4 5 1 1 1 3 9 10 8 6 5 8 5 6 4 6 5 2 5 6 8 6 10 6 7 4 4 2 2 3 5 8 11 20 22 31 32 36
16 13 8 4 6 8 6 5 1 5 1 2 2 3 6 3 2 5 4 5 4 4 2 5 3 5 7 6 10 3 1 4 4 4 1 6 5 3 8 17 14 18 28 32 30
9 9 6 6 7 8 8 3 4 2 7 7 2 3 4 2 2 2 3 3 3 4 1 2 3 2 2 2 3 5 6 2 2 2 5 2 4 8 13 13 19 24 33 34 37
8 10 10 8 6 8 10 5 8 6 4 5 3 7 6 3 1 5 5 7 7 2 3 3 1 2 4 1 5 5 9 6 5 5 4 1 5 2 8 18 19 25 34 33 33
7 8 9 7 7 12 4 6 2 5 6 7 3 8 8 7 5 4 7 8 6 5 4 2 3 5 1 2 2 3 3 5 8 2 3 2 5 3 13 12 14 23 24 30 34
5 4 14 7 9 12 7 5 3 10 7 6 5 5 7 8 5 5 7 6 7 10 3 1 2 2 4 6 8 5 3 2 3 6 4 2 4 3 13 15 15 7 25 32 31
8 3 12 5 8 9 4 3 4 16 12 7 4 5 3 4 5 4 8 3 12 6 11 3 3 6 2 6 5 7 6 4 3 3 6 4 1 5 6 8 10 11 20 26 26
13 4 15 3 8 3 3 5 7 15 17 8 5 6 4 7 7 4 6 7 19 6 4 3 4 3 4 6 11 16 4 4 4 5 3 3 2 7 7 10 17 19 7 22 23
7 11 25 6 4 3 4 5 13 11 8 6 8 7 6 5 5 6 5 12 21 7 3 4 4 3 4 6 8 7 7 5 2 2 2 2 3 7 11 14 23 24 30 18 11
4 4 10 23 7 5 3 6 4 15 12 9 6 6 6 8 8 4 4 6 11 16 16 5 4 5 4 3 3 3 5 5 5 4 5 2 6 8 11 9 19 24 30 28 26
6 3 4 3 8 9 6 3 5 5 6 15 6 6 2 5 4 4 5 6 7 16 9 5 4 2 3 2 2 1 4 5 4 2 1 3 4 7 8 8 16 22 25 32 29
5 4 7 5 5 9 6 3 4 3 4 3 4 3 6 4 3 1 3 3 1 8 5 6 1 3 5 5 4 3 4 5 7 5 6 6 1 6 12 17 22 21 23 26 26
10 10 3 8 4 4 3 0 1 3 7 5 4 3 3 1 4 8 6 5 3 2 3 3 3 3 4 6 7 5 6 5 2 1 3 4 4 12 10 18 16 19 21 23 25

GFSSW_850_spd_066.txt.gz
Wind_Speed
17 18 19 18 18 17 16 16 16 14 13 12 10 10 10 9 10 10 12 8 16 23 22 19 15 16 16 13 5 3 1 2 3 3 2 10 4 7 4 10 6 4 21 28 39
19 19 19 18 18 18 17 16 15 16 13 13 11 10 10 11 12 14 7 12 20 22 24 25 20 20 8 7 4 2 0 4 3 0 3 11 11 12 5 10 9 18 26 36 41
20 20 20 20 20 18 16 16 16 15 14 13 12 10 9 10 9 1 4 16 22 20 22 22 19 17 4 5 5 3 3 2 1 4 9 10 4 13 9 5 7 31 39 40 40
19 20 21 21 20 19 18 16 15 15 13 14 11 9 8 5 1 3 3 19 23 24 23 20 23 12 4 4 8 1 9 10 3 6 7 7 9 4 14 3 16 35 44 44 41
20 21 21 21 21 20 17 16 16 15 13 12 9 8 5 4 4 5 9 20 23 26 24 23 26 9 5 5 4 2 7 11 15 10 5 10 7 4 10 4 18 38 38 39 40
21 21 21 21 21 20 18 16 15 14 12 11 7 7 2 3 5 8 8 18 23 24 24 22 18 10 9 2 4 4 9 18 17 11 10 7 4 5 7 17 28 41 39 39 38
22 23 22 20 20 20 17 16 14 13 11 9 7 5 6 4 8 11 10 10 19 20 23 22 8 10 4 1 2 9 4 7 5 4 4 11 4 5 16 29 30 35 36 36 36
23 22 21 19 20 20 17 14 12 11 9 6 3 4 4 8 9 14 12 10 14 16 15 20 10 12 2 4 3 3 3 3 2 4 3 1 3 3 18 28 32 36 34 33 35
22 21 20 20 21 20 13 12 9 5 4 3 3 4 4 12 12 12 12 10 13 11 13 13 16 3 1 3 4 5 2 0 4 7 4 2 3 5 16 23 29 30 31 34 36
21 20 19 19 20 17 9 5 3 3 4 2 4 2 3 4 11 11 17 11 11 15 9 7 7 3 3 4 4 3 3 2 2 3 1 3 7 6 16 18 22 28 32 32 37
21 20 18 18 18 11 4 3 2 2 4 6 1 4 7 6 11 11 19 18 13 13 4 5 4 7 6 7 4 2 3 1 3 3 2 5 7 10 16 15 17 24 25 29 35
20 19 17 16 11 3 9 5 5 4 7 9 13 18 15 10 2 13 18 11 8 5 5 4 5 6 7 5 4 4 2 2 4 3 4 1 5 5 13 15 20 25 29 26 28
21 18 15 12 2 3 8 12 9 2 2 6 8 10 7 6 3 12 23 11 8 6 6 6 5 9 6 5 5 2 3 2 3 5 2 2 1 3 4 4 14 20 27 27 31
20 17 12 5 3 2 6 10 6 2 4 5 4 5 8 6 2 5 19 11 3 9 9 4 3 8 5 4 5 1 6 4 2 2 2 1 3 3 4 6 5 18 25 31 33
18 13 8 3 4 5 6 6 4 2 2 0 3 10 13 6 9 2 10 5 8 6 6 6 6 5 3 5 6 6 7 6 4 3 2 3 3 4 3 7 14 17 26 35 36
14 11 5 8 6 6 7 7 4 5 2 5 2 4 6 3 2 5 4 7 5 4 2 5 2 5 9 6 8 5 5 7 5 3 2 5 5 5 2 6 4 22 25 31 35
13 10 8 6 5 6 6 1 4 4 6 8 4 3 5 5 5 4 5 7 4 4 3 1 2 2 3 3 2 5 6 1 2 2 5 1 4 4 8 8 12 13 28 28 34
10 10 10 8 8 11 3 5 8 6 4 4 5 7 6 6 8 8 4 6 6 5 3 5 1 3 4 2 6 6 8 5 5 5 4 1 4 4 4 14 20 6 23 28 31
8 10 15 10 11 13 3 6 0 4 7 7 2 8 7 6 5 5 4 6 3 5 4 4 0 4 5 4 2 4 3 3 7 2 3 2 5 4 18 16 26 23 11 26 34
7 4 16 12 14 9 6 4 1 4 7 3 5 3 4 7 5 5 6 4 7 7 2 1 4 4 5 4 9 5 1 2 3 4 3 3 3 4 14 17 20 23 20 16 29
7 4 19 8 10 12 4 2 4 16 7 7 4 5 4 4 5 4 6 1 9 7 9 2 3 4 5 7 5 6 5 5 4 3 6 4 3 5 7 10 15 21 24 9 19
10 3 15 6 8 4 3 4 8 9 14 8 4 5 4 6 6 4 4 4 21 4 4 5 4 5 2 4 5 5 3 3 4 3 2 4 2 5 8 14 19 25 26 25 12
6 11 18 1 4 3 4 5 10 11 7 6 7 7 6 4 5 4 4 8 20 6 2 2 4 4 3 5 5 6 4 3 4 2 2 4 4 6 16 20 24 27 30 31 29
4 4 13 19 8 4 3 5 4 13 7 7 5 5 6 7 8 3 4 5 13 12 12 6 3 3 6 4 3 4 4 3 5 4 1 2 2 6 10 11 20 25 26 29 31
6 3 3 3 9 7 5 4 5 6 7 16 6 6 3 5 4 4 5 6 7 17 7 4 4 3 5 4 3 2 1 3 1 4 4 6 1 3 6 6 16 18 24 30 30
5 4 6 4 4 6 6 5 5 5 5 5 5 5 7 4 2 1 2 3 2 7 5 4 3 3 2 4 0 3 5 6 5 1 2 4 3 5 9 10 17 20 23 25 26
14 10 5 8 4 4 3 1 2 2 7 6 3 3 4 2 3 3 3 3 2 2 3 3 4 2 3 1 2 3 4 2 2 5 2 4 2 10 7 12 15 12 15 20 25

GFSSW_850_spd_069.txt.gz
Wind_Speed
16 16 16 15 14 14 14 13 12 11 11 9 9 9 9 9 8 8 11 7 15 23 22 21 15 15 13 7 2 1 2 2 5 8 5 9 5 6 4 16 5 11 10 23 31
16 17 17 17 16 15 14 13 13 12 11 9 10 9 8 9 11 13 7 13 20 27 26 25 20 18 8 7 2 2 2 2 2 4 4 9 9 8 5 13 8 14 20 33 33
16 16 16 16 16 16 15 14 12 11 11 11 8 8 7 7 9 2 4 17 23 27 25 21 19 13 8 6 5 2 2 2 4 5 7 12 11 13 9 6 9 24 32 33 34
16 17 17 17 16 15 15 14 12 11 10 10 10 5 5 3 0 3 6 18 25 27 24 22 17 12 8 7 9 3 6 7 1 2 3 5 10 9 12 3 11 22 34 37 34
17 17 18 18 17 16 14 13 12 10 10 8 8 6 2 3 3 3 10 23 27 28 27 20 21 11 9 8 6 9 5 5 6 6 5 6 9 5 12 7 18 28 30 32 30
20 19 18 17 17 16 14 13 12 9 9 7 6 5 4 3 5 5 14 23 25 29 26 21 15 9 9 7 7 2 6 14 7 3 6 8 5 6 9 18 24 31 30 31 29
21 20 18 17 16 16 14 13 11 8 8 7 5 3 6 3 8 11 15 21 24 25 25 17 13 6 6 5 3 3 6 4 5 5 5 10 6 5 19 24 27 26 28 30 28
20 20 18 16 17 17 15 12 8 7 6 4 4 4 3 9 12 15 15 19 22 17 18 18 12 6 2 3 2 3 3 3 5 6 5 5 3 7 22 28 28 29 27 28 29
20 19 17 17 17 17 13 9 5 2 4 4 5 4 2 11 12 19 17 16 18 15 9 15 9 7 2 3 5 2 5 4 3 3 5 5 4 8 19 21 23 29 28 29 28
20 18 17 15 17 14 7 4 6 5 7 6 5 2 5 6 11 21 19 15 18 14 9 8 5 6 4 7 10 8 5 3 4 4 2 2 3 8 16 18 19 24 27 28 28
19 18 17 14 14 6 2 5 2 1 7 6 2 2 2 3 11 17 22 16 18 14 6 9 9 15 16 8 4 3 3 3 2 2 2 3 6 6 16 17 20 25 27 28 29
19 17 14 11 6 8 9 4 3 2 5 8 12 15 11 4 7 16 25 9 15 13 10 7 16 9 10 8 4 4 4 2 1 4 3 3 6 3 13 18 22 25 27 28 27
20 16 10 7 6 5 9 9 8 3 2 4 7 9 6 10 7 17 28 10 16 12 12 9 4 13 13 9 8 6 6 4 0 3 2 1 2 1 4 10 16 20 25 25 29
17 12 7 2 5 6 6 10 7 1 2 1 3 5 9 8 4 17 24 13 5 14 13 5 6 15 14 12 8 8 7 5 3 2 3 2 1 2 5 10 13 19 25 28 29
18 13 6 7 5 6 5 8 5 3 1 6 1 4 11 5 16 5 20 8 11 9 7 6 10 17 15 12 10 4 7 4 3 2 2 4 4 4 3 2 10 15 21 29 29
17 15 10 7 5 5 6 6 2 3 2 4 3 4 7 2 3 7 6 7 5 6 3 5 4 11 12 8 10 10 7 4 3 2 5 5 4 4 5 7 7 12 23 26 29
13 13 10 8 7 7 6 2 3 2 4 8 4 2 8 7 6 4 5 6 3 7 10 4 5 2 5 9 6 9 10 5 6 5 6 2 6 7 7 8 11 15 20 28 29
8 9 11 10 10 9 1 2 4 4 4 5 4 7 6 5 7 6 6 6 11 3 3 9 7 1 5 3 6 12 13 5 7 8 9 3 7 7 10 11 15 16 6 16 27
5 6 17 13 11 5 3 5 4 5 7 8 4 6 3 4 4 5 8 5 5 8 1 6 3 4 10 3 2 6 8 1 4 2 8 4 3 5 15 18 25 24 16 6 18
5 2 23 14 11 8 6 5 3 10 8 3 3 5 3 6 4 5 6 7 6 6 4 2 6 6 5 2 11 1 4 7 3 7 9 3 4 5 16 18 19 22 25 12 11
4 2 20 12 9 12 4 4 3 11 9 7 6 4 6 4 7 4 5 4 8 7 6 2 1 4 1 7 6 1 3 2 1 2 6 7 5 6 10 12 14 21 24 24 12
7 3 18 12 7 4 4 4 7 15 13 8 5 7 5 7 6 4 4 5 16 6 4 4 4 5 5 2 4 8 4 1 7 6 2 1 5 7 10 14 18 21 24 24 24
5 9 20 6 4 4 3 4 9 10 10 7 7 7 6 4 5 4 3 5 14 7 4 4 3 5 3 4 2 4 6 3 2 1 2 6 6 9 13 17 20 21 23 26 27
4 3 10 18 7 3 3 5 3 8 10 9 7 4 3 6 8 4 3 5 10 10 10 2 3 3 1 4 2 3 5 7 3 2 7 3 11 8 11 12 16 18 20 26 29
6 3 3 4 8 8 4 3 7 5 5 12 7 9 3 3 3 4 4 3 8 12 5 3 4 4 7 5 2 3 1 4 5 4 2 10 8 6 8 9 11 13 16 21 27
5 4 6 4 3 7 5 5 9 5 6 7 7 9 10 6 5 3 2 3 3 6 4 3 4 4 3 4 3 3 4 2 1 1 3 5 6 3 5 5 8 12 14 17 19
10 9 6 4 2 2 3 3 4 2 7 8 4 6 10 7 3 4 6 5 3 3 3 2 4 3 4 3 2 5 1 2 4 5 2 5 5 6 5 11 11 12 9 14 17

GFSSW_850_spd_072.txt.gz
Wind_Speed
12 12 12 12 12 11 11 10 10 9 8 8 7 7 6 6 7 8 10 9 14 19 21 17 14 13 14 9 4 3 4 7 11 12 8 10 4 6 4 10 4 8 8 30 32
11 12 12 12 12 12 11 11 10 9 8 8 8 6 6 5 8 11 6 12 18 22 23 21 19 18 12 10 6 3 2 11 8 11 11 10 8 8 7 9 5 8 13 31 33
14 13 14 13 13 13 12 11 10 10 8 8 8 8 5 3 4 3 6 17 21 25 19 16 16 15 10 10 8 5 2 3 10 11 11 13 12 11 9 9 9 15 28 35 34
14 15 15 15 13 12 12 11 11 9 9 7 7 6 4 2 1 3 6 17 23 24 21 18 18 15 11 10 10 4 3 1 5 6 7 8 9 9 14 1 9 15 29 37 34
15 15 15 15 14 13 12 11 11 9 8 7 6 4 3 5 3 5 8 19 25 22 23 21 20 14 12 13 9 7 4 2 3 2 2 4 9 5 12 11 13 22 31 33 30
16 16 14 13 11 12 13 12 10 9 7 5 6 3 2 7 3 1 14 22 21 22 22 19 15 11 10 10 11 5 9 6 5 1 5 8 9 10 13 16 20 28 31 31 29
17 16 16 13 11 12 13 12 9 8 8 6 5 4 5 2 5 11 16 18 19 18 20 17 11 13 7 8 9 6 9 8 3 5 8 9 9 6 16 18 23 26 29 28 27
17 16 15 14 13 14 13 10 7 6 8 6 5 4 2 7 9 13 16 18 14 17 14 11 12 10 10 4 8 11 8 11 7 8 6 9 9 14 18 21 22 24 27 26 26
16 16 15 13 12 12 10 6 3 2 6 7 5 5 6 9 12 14 15 18 17 13 13 10 11 13 9 13 11 11 12 12 8 5 8 8 12 14 17 19 21 22 23 26 26
16 15 13 12 11 9 1 2 5 5 6 4 3 5 6 11 15 15 13 17 18 14 12 12 11 10 12 13 14 16 14 12 9 9 9 9 12 13 18 20 19 23 23 25 26
17 15 12 9 8 0 7 4 2 4 7 4 3 2 13 12 15 15 14 16 14 17 13 17 11 16 17 16 7 11 15 14 6 8 6 4 5 10 18 19 21 21 22 25 26
17 14 9 5 5 8 6 1 2 1 4 8 9 7 7 12 14 19 19 13 16 15 15 11 17 15 13 11 9 10 13 10 6 6 6 7 6 7 16 17 19 22 24 25 26
16 11 5 2 10 8 5 1 4 3 6 5 6 8 11 11 17 24 23 12 16 16 16 16 10 11 12 16 14 13 14 12 6 7 4 5 8 8 8 14 14 19 21 23 27
16 10 4 9 5 5 2 7 5 2 5 6 6 8 10 13 10 23 26 15 10 14 15 11 7 15 17 18 16 14 9 5 9 8 10 8 7 8 10 11 11 17 19 21 26
16 15 8 4 6 1 3 5 3 4 4 4 7 4 14 20 22 17 24 14 13 11 10 11 17 18 19 17 15 5 9 12 9 10 2 10 9 9 7 11 10 14 20 22 23
13 12 7 4 3 4 6 6 4 7 5 3 4 11 15 11 10 19 21 12 4 10 15 3 14 14 13 12 13 9 10 8 7 10 11 11 13 8 5 3 1 13 21 22 24
9 11 9 6 4 7 6 4 5 3 1 4 3 12 16 11 9 20 18 15 10 12 13 7 12 11 15 16 15 14 14 9 9 9 9 15 9 11 7 6 6 5 12 24 24
4 8 9 9 7 4 1 6 3 3 6 3 1 8 10 11 7 11 12 11 1 10 14 12 13 15 7 15 13 18 18 8 11 12 13 8 10 7 9 10 11 10 4 19 26
3 5 10 12 7 6 8 5 6 6 7 6 8 10 11 7 7 8 6 4 4 7 6 14 8 6 1 2 8 19 18 13 7 4 12 12 12 13 7 11 16 19 12 5 20
3 1 13 11 8 1 1 7 5 8 6 3 10 4 8 7 10 7 3 5 3 7 6 1 6 3 2 5 2 6 13 10 9 12 14 12 17 9 7 11 14 19 23 14 6
3 4 11 10 7 3 5 5 5 9 6 6 4 8 3 5 5 3 3 7 6 5 5 6 6 9 8 3 5 9 10 10 12 8 13 9 7 6 7 10 12 16 20 22 24
4 1 13 7 2 3 7 4 4 9 7 4 5 6 7 3 7 3 5 5 9 5 2 6 4 10 7 5 2 3 4 9 11 13 8 7 7 7 9 14 13 16 18 20 21
4 6 12 1 3 6 6 8 11 10 10 4 5 6 3 3 4 6 5 4 7 3 3 4 1 8 10 8 5 3 2 4 8 8 17 11 8 10 11 14 16 18 19 20 21
2 1 8 13 6 5 7 7 5 8 11 9 4 2 3 5 3 8 6 3 4 7 5 4 3 5 2 7 7 8 4 1 8 11 8 6 19 13 11 12 14 17 18 19 21
5 5 2 4 8 8 7 3 6 3 5 5 5 5 2 3 6 5 4 6 4 5 1 4 4 5 6 6 4 3 3 2 1 5 7 17 16 13 11 11 13 13 15 18 21
3 1 7 7 3 6 4 6 7 7 3 8 8 8 5 7 5 7 4 0 3 2 2 3 3 5 3 1 1 5 3 2 2 3 6 12 14 11 9 9 9 10 11 14 17
8 6 3 2 3 1 7 5 5 4 8 7 5 5 7 6 5 5 4 3 4 3 1 2 5 6 9 3 3 8 10 5 6 2 1 10 13 5 7 5 6 6 6 11 14

GFSSW_850_spd_075.txt.gz
Wind_Speed
10 11 12 12 12 11 11 11 10 9 8 8 8 8 7 7 8 9 9 10 15 15 19 14 16 13 13 12 7 8 3 5 8 11 14 19 11 14 8 12 6 7 16 32 32
12 12 12 12 13 12 12 12 11 9 9 8 7 8 7 7 8 15 13 15 16 19 18 20 19 17 17 14 7 3 2 10 9 16 12 13 11 12 9 12 13 11 28 32 31
12 13 13 13 13 12 12 12 12 11 9 9 7 6 5 5 8 6 15 14 18 21 16 16 15 17 17 11 9 2 1 4 13 16 19 13 7 6 6 8 13 19 31 33 31
14 14 14 13 13 13 11 11 11 11 10 8 7 5 3 4 1 3 8 14 19 21 18 17 16 18 15 13 12 8 11 6 10 11 17 18 15 10 6 4 4 17 29 32 31
15 14 13 13 12 11 11 12 11 11 10 8 6 4 3 7 9 6 7 14 20 22 20 19 19 19 15 14 14 6 7 5 6 8 8 7 11 13 10 10 9 19 29 31 29
15 15 14 12 11 11 12 12 12 10 10 8 6 5 5 13 2 7 9 19 23 21 20 19 16 16 12 10 11 11 7 5 5 7 7 8 12 12 16 15 15 25 32 31 29
16 15 14 13 12 10 12 13 11 11 9 8 7 6 9 5 3 6 13 17 22 20 20 18 12 13 12 8 15 5 11 10 9 9 8 9 10 7 18 16 20 26 31 30 27
16 15 14 13 13 11 12 9 8 7 7 7 7 6 7 8 8 11 14 16 17 17 16 15 12 15 11 8 12 13 15 14 11 10 12 13 8 17 18 19 21 25 29 28 25
15 15 14 12 11 10 10 5 4 1 4 5 3 8 8 8 15 15 16 17 16 15 14 12 12 18 14 13 14 14 14 16 13 14 14 11 15 20 19 18 20 20 27 26 25
15 14 13 12 9 8 3 2 3 5 6 5 6 8 11 15 19 17 16 16 16 16 12 13 12 14 14 14 16 18 20 19 14 11 12 13 3 17 22 20 23 22 18 24 25
15 12 9 8 6 2 6 1 2 4 11 8 8 9 9 18 19 18 19 19 16 15 15 19 13 17 20 20 22 16 18 15 11 16 15 14 13 16 22 22 19 18 21 23 24
16 12 7 3 1 4 4 5 5 6 9 13 7 6 7 15 19 19 21 18 17 15 19 12 18 17 17 17 17 18 19 15 13 6 11 7 8 16 17 23 23 25 24 24 25
15 10 6 2 6 5 2 3 4 7 8 10 13 15 14 18 19 22 25 19 18 18 19 15 14 19 15 14 13 16 15 15 15 10 15 12 11 14 15 18 28 23 23 22 26
16 11 4 9 4 2 3 3 6 5 6 10 12 11 18 17 15 23 24 16 12 17 17 16 16 18 12 16 16 18 16 12 10 16 12 15 7 19 20 16 19 20 24 26 26
11 10 5 3 3 4 3 4 4 3 6 5 10 12 15 21 18 23 22 18 13 13 11 16 16 14 16 18 16 12 13 8 11 15 13 15 9 4 21 20 16 19 19 26 31
7 6 2 3 4 5 6 6 4 7 3 7 5 12 17 21 13 24 23 22 11 14 14 17 14 13 17 19 17 7 9 11 12 14 15 10 17 11 8 8 15 19 19 18 21
6 5 3 4 6 8 7 7 7 5 4 5 12 17 17 14 14 18 19 16 13 14 13 16 9 17 18 20 16 13 14 10 11 12 11 18 16 12 11 8 6 16 19 23 24
3 7 8 8 8 6 6 12 9 6 11 3 8 14 17 16 12 18 18 17 18 14 10 16 14 19 14 20 13 17 20 12 12 13 14 16 11 10 11 13 9 2 16 24 27
4 4 4 8 6 3 13 3 9 8 5 7 8 14 11 8 4 18 18 13 9 7 7 13 12 14 8 16 17 18 19 24 14 14 14 13 15 12 13 12 13 12 9 19 27
4 5 4 8 7 9 10 9 7 6 8 8 9 2 7 14 14 12 9 2 1 3 11 11 9 12 11 8 12 12 14 20 11 17 15 16 19 11 12 10 11 13 17 22 19
5 8 4 7 8 16 3 10 5 6 8 10 2 3 2 10 5 11 4 7 2 7 7 11 10 12 8 14 15 12 12 16 13 16 13 10 9 12 12 9 11 13 14 19 20
6 4 7 3 11 5 9 5 2 4 6 5 7 4 7 11 8 5 5 9 2 5 6 2 8 10 17 4 4 14 15 17 12 19 15 7 8 12 13 15 17 13 14 17 20
3 5 7 6 4 6 5 8 8 3 5 1 3 1 5 7 2 9 1 3 4 1 3 3 9 5 6 6 10 12 10 11 15 18 14 16 10 13 18 16 19 16 15 17 19
5 2 6 6 5 5 5 3 6 4 5 3 2 3 11 9 9 4 6 2 2 5 3 5 7 7 6 3 16 19 9 11 14 11 12 8 23 16 17 16 17 17 16 17 19
7 6 5 7 8 7 4 3 2 3 3 1 2 4 8 6 12 8 6 6 5 3 5 6 10 12 3 8 9 12 14 9 16 17 13 20 19 17 15 16 21 18 17 18 19
4 2 6 6 1 4 3 7 5 6 5 4 4 2 4 4 9 9 5 5 6 5 5 6 3 10 10 5 5 5 6 6 8 5 8 20 19 16 16 18 15 14 15 16 16
4 4 5 3 3 3 6 4 5 2 6 6 4 2 5 5 4 6 5 3 4 8 4 6 9 7 14 13 4 10 12 10 8 6 11 14 18 14 13 12 9 11 11 11 11

GFSSW_850_spd_078.txt.gz
Wind_Speed
12 11 10 10 12 13 12 12 12 11 10 9 8 9 10 11 11 11 13 9 14 7 15 12 14 15 14 17 15 4 3 3 0 13 12 17 15 15 10 9 10 4 28 33 30
13 14 14 14 13 12 13 13 12 12 10 9 8 7 9 10 12 18 13 13 18 11 17 17 17 14 17 17 17 7 3 8 12 20 16 17 14 16 12 6 9 19 30 32 30
13 14 13 14 14 13 13 12 13 12 11 9 8 7 7 7 9 8 14 13 13 17 16 14 14 15 18 14 10 10 4 6 14 21 21 18 12 6 8 10 19 33 35 32 29
15 14 13 13 13 13 12 12 12 12 11 10 8 7 5 5 2 1 3 15 12 17 16 16 17 18 17 13 9 4 10 11 16 22 19 17 13 9 18 9 19 33 33 32 28
16 14 14 15 13 11 11 12 12 12 11 9 8 7 5 7 14 8 6 12 17 21 17 19 18 19 17 16 13 9 18 15 11 24 24 20 17 10 9 7 19 29 31 31 28
17 16 14 14 14 13 10 12 12 11 11 9 8 6 5 12 3 8 5 12 18 22 17 18 15 18 17 11 14 13 16 10 12 16 13 15 18 17 9 11 19 29 31 29 27
17 17 15 15 13 12 13 13 11 10 8 7 8 6 9 17 1 4 11 14 18 21 17 17 15 17 11 15 13 13 20 10 9 14 12 19 12 8 22 19 24 31 31 29 27
17 16 16 15 13 11 11 12 8 7 5 6 5 5 9 9 8 9 12 14 17 18 15 14 14 13 18 14 12 14 12 14 17 14 17 16 9 15 23 22 25 33 32 29 25
16 16 16 15 13 9 9 6 4 2 3 6 4 6 10 10 13 13 14 17 18 16 15 13 11 13 17 15 11 13 14 20 1 15 18 11 10 17 20 23 26 30 32 28 24
16 16 15 12 10 7 3 0 1 4 4 6 4 8 16 13 15 16 15 16 19 18 15 10 10 12 15 13 14 18 19 13 20 17 17 14 10 13 23 23 25 26 27 27 26
18 15 12 9 6 4 4 2 4 4 13 13 8 12 4 12 17 16 18 18 19 18 14 17 11 16 20 20 19 20 18 18 16 11 15 16 18 21 19 20 22 25 18 23 23
19 15 9 6 2 2 5 5 8 9 10 22 15 19 4 20 20 18 19 17 18 17 18 13 17 17 18 18 18 22 21 16 12 15 22 19 14 13 17 25 28 29 18 23 20
18 15 7 3 2 1 3 9 6 7 9 15 16 14 8 15 17 21 22 21 17 18 19 19 14 19 17 17 18 20 18 11 17 7 19 16 17 22 25 26 29 26 27 30 24
14 13 5 3 5 4 9 4 6 7 6 15 14 14 19 16 16 21 23 22 11 18 18 19 18 19 19 17 16 17 19 20 22 21 11 17 9 21 22 21 22 28 33 31 27
10 8 5 7 5 7 6 6 7 4 6 12 12 10 18 18 17 23 21 23 14 16 14 17 18 13 18 16 16 16 18 15 9 16 12 18 8 12 9 23 22 28 33 30 27
10 7 5 5 10 5 8 7 6 6 3 7 10 9 14 18 23 24 20 21 16 15 16 17 16 18 15 11 15 18 16 14 5 11 12 16 15 11 9 10 12 24 23 19 28
6 6 7 9 9 8 6 6 6 5 9 5 9 14 17 15 11 20 17 17 15 10 14 16 18 17 11 13 19 18 15 8 9 10 9 17 14 11 14 10 9 22 32 36 38
3 3 6 5 5 7 5 8 6 16 15 8 6 13 16 18 18 13 16 16 18 18 12 12 15 14 16 19 18 19 18 10 16 13 13 18 14 12 22 39 49 19 19 25 35
8 9 9 8 5 4 12 4 7 13 9 11 4 11 15 17 10 13 17 16 16 18 7 10 20 20 18 19 21 19 18 20 18 19 15 10 13 17 16 11 14 16 26 22 18
13 15 16 5 2 2 8 12 8 7 11 8 10 8 8 8 5 5 12 6 8 8 6 4 11 15 17 19 14 3 14 17 14 10 18 12 19 14 17 13 12 14 19 20 22
14 9 3 7 7 9 6 2 4 6 11 12 10 11 2 11 13 8 10 11 3 8 2 13 4 1 12 11 15 8 13 11 16 15 15 6 6 13 13 12 9 15 20 19 17
16 9 5 3 11 6 4 10 4 7 2 6 8 9 4 10 6 5 6 5 8 11 7 7 6 7 15 10 15 14 14 16 13 20 14 8 4 11 13 15 11 11 17 22 22
10 5 6 5 4 5 5 4 9 11 6 0 2 1 11 4 2 13 5 2 7 8 9 12 8 8 6 10 6 10 15 15 16 18 18 6 10 12 15 15 11 12 14 22 23
10 2 6 5 8 5 1 4 2 3 3 7 5 5 7 5 4 9 9 2 4 9 5 3 12 5 3 15 12 18 18 15 13 11 13 8 22 14 12 13 13 14 14 20 22
7 5 5 7 9 9 9 4 3 2 0 2 3 9 5 6 8 12 6 5 4 2 3 5 10 9 7 9 16 11 20 17 10 14 9 18 19 17 14 14 16 15 15 18 22
9 7 1 4 2 5 5 6 7 6 10 3 3 4 5 11 4 7 17 4 6 7 5 8 9 8 11 11 10 16 4 2 11 12 10 20 18 18 28 22 18 15 15 17 20
6 2 10 6 6 4 7 7 6 2 4 8 7 6 2 11 8 6 11 3 5 11 5 8 5 1 10 12 8 10 8 1 5 10 20 10 15 19 15 17 17 15 14 15 16

GFSSW_850_spd_081.txt.gz
Wind_Speed
12 12 13 14 14 14 14 13 13 11 10 10 10 10 10 10 10 13 16 6 13 4 14 6 13 14 15 19 17 3 3 2 5 13 9 15 8 10 5 12 19 16 31 35 36
13 13 13 13 13 14 14 14 13 12 11 10 10 10 10 11 12 18 11 12 13 10 15 14 14 13 18 17 6 11 3 3 4 12 12 20 11 14 5 5 10 31 33 34 43
14 14 14 14 13 13 13 13 12 12 11 11 10 10 10 10 10 6 5 15 13 13 15 16 13 15 18 19 9 7 5 7 16 24 22 19 13 13 13 7 31 33 39 35 44
15 15 14 14 14 13 12 12 12 11 10 10 10 9 8 7 1 2 2 8 9 13 18 16 21 17 10 9 19 8 16 17 22 25 23 15 20 12 11 6 31 40 37 33 35
16 15 15 15 13 13 12 12 12 13 10 9 9 8 7 5 13 7 6 8 12 17 21 15 17 20 11 9 8 3 4 3 20 23 21 17 21 21 15 16 33 38 34 29 27
17 16 15 14 14 12 12 11 13 13 11 8 8 7 6 6 3 6 7 7 15 21 21 16 15 18 17 19 13 9 8 13 21 23 24 17 17 13 13 28 31 34 30 28 27
18 18 17 15 13 12 11 10 13 10 9 7 7 6 10 18 3 4 9 10 15 23 16 14 16 17 16 12 12 30 7 16 8 28 12 26 7 8 24 22 31 31 28 27 30
19 19 19 17 14 11 9 10 8 7 5 6 6 6 10 7 8 10 4 7 15 20 17 11 14 18 15 16 18 7 7 4 8 20 22 13 6 9 22 23 29 30 28 27 27
21 20 19 17 12 10 7 5 4 3 2 4 5 3 9 4 14 12 11 14 16 15 15 12 13 13 13 5 6 6 6 9 5 17 18 6 9 9 18 22 32 30 29 27 30
20 20 17 15 11 7 5 2 1 3 2 5 5 6 14 17 16 15 14 16 19 17 16 14 6 0 5 3 6 6 8 7 12 7 14 17 14 11 13 6 31 31 29 28 32
21 20 14 12 9 6 3 2 3 2 9 12 9 15 7 10 13 19 18 21 20 21 7 15 4 7 11 11 13 10 8 13 6 8 13 18 3 20 20 8 31 29 29 31 32
19 19 12 9 7 4 2 6 13 12 9 17 19 24 26 12 15 17 19 13 13 8 10 5 8 12 16 15 16 15 12 5 7 13 12 10 11 13 13 14 30 28 28 31 31
16 17 10 7 8 3 6 8 9 10 9 17 23 21 17 22 19 18 20 20 9 9 10 8 12 19 17 15 15 13 8 6 9 8 17 2 5 9 10 19 23 25 25 28 31
12 11 7 10 8 8 16 9 14 12 3 6 13 14 10 8 8 18 22 19 6 11 11 12 22 17 15 12 11 8 10 13 18 12 9 16 5 6 11 16 19 25 28 28 26
11 10 8 9 10 8 11 8 13 7 3 14 11 10 15 12 8 17 21 21 9 9 7 10 14 13 13 13 10 9 10 2 8 5 4 17 1 7 17 13 15 18 26 32 30
9 7 6 7 11 8 15 12 11 2 5 13 7 7 11 13 18 16 20 21 18 10 10 13 18 12 8 9 12 10 9 8 8 7 5 9 15 4 16 17 15 7 7 26 32
8 9 9 9 5 9 9 12 3 4 16 8 4 9 8 8 13 12 11 8 6 3 6 10 14 9 13 6 7 5 4 3 1 2 3 13 1 1 13 14 16 19 35 30 32
10 13 12 7 2 10 10 5 6 11 11 13 15 9 9 11 14 16 11 7 10 9 5 6 6 8 8 6 8 7 6 4 4 3 6 6 6 4 9 26 33 17 31 31 31
14 15 15 3 3 6 8 5 6 5 8 8 18 3 11 11 8 10 9 9 9 12 5 2 7 6 8 4 5 8 10 10 3 6 2 6 7 10 9 9 19 18 13 13 5
11 16 17 6 6 2 4 7 6 11 9 12 11 3 7 2 5 9 3 9 4 10 9 4 5 7 9 11 12 9 3 6 1 2 3 7 7 9 10 14 13 14 16 14 16
11 6 4 3 12 2 3 4 4 6 8 4 11 11 7 6 14 11 6 10 16 12 14 6 1 8 5 7 11 1 2 1 2 1 5 4 3 7 13 14 14 14 12 11 13
5 3 5 2 2 6 5 3 4 9 4 4 4 8 9 7 6 3 3 2 13 15 6 7 2 3 5 8 3 4 6 8 4 6 4 3 2 7 10 17 22 18 13 10 12
7 11 3 5 2 3 3 4 5 9 11 9 4 5 7 5 3 10 2 5 6 10 4 6 5 3 8 7 4 4 6 6 2 1 6 8 4 11 15 16 18 19 15 13 14
5 3 3 6 17 10 5 5 3 7 3 10 8 6 3 4 5 4 5 2 3 6 4 2 4 2 4 5 5 7 16 9 4 1 3 6 11 13 13 11 15 17 17 14 20
4 2 3 4 6 4 5 7 4 5 5 4 3 5 5 6 7 4 11 3 3 2 4 2 1 3 7 5 8 9 16 12 8 4 5 16 14 13 13 13 17 18 16 15 15
8 7 15 1 8 1 3 4 10 9 9 9 8 9 6 5 5 4 5 7 4 1 3 3 5 2 5 10 11 8 16 9 8 10 12 17 15 16 25 25 19 19 18 19 19
15 13 8 9 5 6 5 6 7 3 4 11 8 5 9 9 3 3 7 14 1 3 6 3 3 3 3 8 11 5 6 10 11 12 10 11 14 24 17 21 21 22 19 20 20

GFSSW_850_spd_084.txt.gz
Wind_Speed
12 12 12 13 13 12 12 12 11 12 12 11 11 10 11 11 10 13 16 7 13 8 13 8 12 14 9 6 7 3 1 1 3 11 10 13 6 7 12 30 26 7 35 36 42
12 12 12 12 12 12 12 11 10 10 11 12 12 11 11 12 14 17 8 11 17 13 11 12 16 16 6 6 4 3 2 2 4 8 15 19 15 9 7 24 13 31 34 42 40
13 14 14 13 12 12 11 10 10 9 9 10 11 11 10 11 12 1 1 14 18 15 11 15 14 12 7 6 7 3 3 6 7 20 22 18 14 17 10 6 27 36 43 40 40
13 13 13 13 13 12 11 10 8 9 9 9 9 10 10 7 3 3 3 10 15 16 14 18 15 10 5 7 10 3 4 4 11 23 21 15 22 12 4 6 33 36 47 43 40
14 14 14 13 13 13 11 10 9 9 10 9 8 8 8 6 10 2 2 10 15 18 21 20 15 10 5 4 9 2 4 2 11 20 18 23 18 13 16 16 30 36 42 42 38
16 16 15 14 12 11 11 10 10 10 9 8 8 7 7 4 3 4 2 6 14 18 23 23 10 9 8 8 11 12 13 14 9 18 18 15 13 13 10 24 33 34 37 37 39
19 19 17 15 13 11 9 9 10 9 6 7 6 8 10 13 5 3 6 7 11 18 25 23 14 9 4 7 14 8 6 13 17 15 8 25 6 9 29 23 34 28 35 35 33
21 21 19 16 12 10 8 7 8 7 4 5 5 7 9 6 11 8 4 10 13 17 22 16 10 16 17 8 2 4 3 5 10 18 20 7 8 6 13 26 29 30 29 27 33
21 22 19 15 11 8 5 5 4 3 0 3 3 5 9 5 15 10 9 8 14 16 22 13 9 11 5 2 4 1 5 3 5 24 10 2 10 14 13 12 29 28 27 22 30
20 21 18 13 10 7 5 2 3 2 2 5 5 5 9 11 14 13 10 7 14 14 9 10 5 1 4 4 5 6 4 2 9 16 7 7 10 18 28 24 28 28 28 25 29
19 20 17 13 9 7 3 2 4 2 7 9 7 12 19 6 13 16 18 14 12 11 5 5 3 6 7 6 6 3 4 4 8 16 8 7 15 19 21 10 24 24 26 27 28
16 17 14 11 12 7 2 5 7 8 10 18 20 25 23 13 7 16 20 16 9 5 3 5 5 7 6 7 7 6 3 1 6 10 7 10 9 6 11 17 25 28 27 32 33
12 13 9 11 13 6 10 7 9 16 5 15 14 15 18 8 13 19 18 20 7 6 5 6 6 8 6 8 8 7 4 4 6 9 7 13 6 9 9 7 18 27 29 34 39
12 11 9 9 5 9 9 7 15 13 4 7 4 6 8 10 7 18 17 16 3 9 5 6 8 6 9 10 7 8 8 8 14 5 6 2 4 7 7 10 16 22 29 33 38
12 10 9 7 5 5 9 13 12 6 3 13 4 3 3 8 12 12 15 17 5 6 6 8 5 7 9 16 8 11 6 8 10 7 7 2 4 6 9 12 9 14 25 27 35
12 9 9 5 6 6 11 13 10 5 3 9 3 4 4 3 3 3 23 20 5 2 3 8 18 8 10 11 12 10 2 3 4 4 3 7 5 3 13 16 15 12 21 29 25
12 10 10 12 2 9 15 13 5 4 6 6 5 5 4 7 5 5 6 4 5 2 3 5 5 8 7 7 5 4 6 1 1 1 5 9 8 7 11 17 20 21 33 31 32
11 12 12 10 4 6 11 5 7 3 6 6 8 10 8 7 7 6 7 4 5 4 2 2 6 6 3 9 7 5 8 5 5 4 5 8 4 4 6 13 17 12 8 10 26
9 11 12 3 4 4 5 5 4 4 6 5 11 8 6 5 4 6 9 5 5 5 7 1 4 4 4 5 8 3 3 7 2 1 2 5 4 7 11 12 19 16 13 9 11
6 9 8 5 6 5 4 2 3 5 3 2 6 6 4 7 6 5 3 3 3 5 3 3 3 1 7 2 2 7 4 2 3 2 3 3 3 2 2 5 8 12 11 8 9
7 8 6 7 7 4 2 4 5 5 10 2 4 5 4 4 5 5 4 4 4 7 7 4 4 8 3 1 8 4 2 5 4 4 5 5 1 4 6 5 6 7 8 8 8
4 2 4 12 4 2 1 4 2 8 15 7 3 3 4 6 5 5 4 4 10 5 3 1 3 2 4 6 4 5 2 5 5 4 2 4 2 4 10 9 8 8 8 7 7
11 6 3 9 1 2 5 1 5 6 5 7 6 4 4 3 4 3 3 4 11 6 2 4 3 3 9 6 9 6 5 4 2 2 5 6 4 6 15 12 11 11 6 6 7
4 3 4 8 6 6 4 4 3 10 6 5 3 9 7 7 6 5 6 3 5 4 1 3 4 5 4 3 1 5 11 6 5 3 3 4 10 8 11 11 12 15 12 10 9
2 2 7 1 4 4 6 4 8 5 11 18 10 5 5 4 4 5 5 6 3 7 4 4 2 2 6 7 5 3 8 14 2 5 4 11 14 16 13 14 17 19 16 15 14
6 6 9 6 6 9 6 6 7 4 5 5 7 9 6 4 2 1 1 5 2 7 5 6 2 3 6 6 9 7 14 12 6 9 11 14 9 15 22 23 20 18 17 16 18
10 4 4 4 4 5 1 3 5 6 9 13 7 5 7 3 1 3 3 4 2 2 5 4 3 3 1 4 3 5 7 8 5 6 16 8 9 22 17 20 22 21 20 21 19

GFSSW_850_spd_087.txt.gz
Wind_Speed
11 11 11 11 10 11 11 9 9 9 10 10 11 10 10 10 11 13 15 8 14 11 17 16 14 13 10 6 8 3 2 1 3 10 8 10 6 11 10 22 14 3 24 33 33
13 13 12 12 12 10 10 11 8 9 9 10 10 11 11 11 13 16 7 10 16 16 19 16 16 15 6 3 3 3 1 2 4 9 11 12 11 10 15 21 19 28 24 33 32
13 13 13 12 11 10 9 9 9 8 9 9 9 9 10 11 12 1 2 15 20 15 16 12 14 12 5 4 5 2 2 4 7 22 22 18 11 4 25 8 31 33 35 35 34
13 13 14 14 13 11 10 8 8 8 9 9 8 9 7 7 2 2 1 15 19 17 17 16 13 8 3 3 7 2 2 4 14 24 20 18 15 10 22 7 31 37 36 37 36
15 14 14 13 13 12 11 10 7 9 10 9 8 7 6 5 7 2 1 15 22 21 21 17 16 6 2 3 5 3 3 7 20 19 17 18 14 12 17 11 34 35 37 39 38
17 17 15 13 12 11 11 10 8 8 10 9 7 6 6 4 4 5 6 10 18 23 22 21 13 10 3 6 6 10 2 10 14 18 18 12 10 14 18 19 38 37 41 36 36
18 19 18 14 12 10 9 8 8 9 7 6 6 7 9 11 4 8 5 6 13 18 22 24 11 3 4 6 3 15 5 9 4 13 8 14 7 6 12 24 36 35 37 33 31
19 20 17 14 11 8 6 6 8 6 5 5 6 6 8 3 11 10 7 10 13 14 16 19 15 8 5 6 2 6 6 3 6 8 11 2 6 2 18 22 32 33 30 34 29
17 19 17 12 9 7 5 4 4 5 2 2 3 4 7 7 18 11 8 5 11 14 13 12 4 4 3 3 4 4 5 5 8 18 8 1 6 11 22 17 29 31 29 32 34
16 18 16 11 9 6 3 4 4 3 1 1 5 4 5 1 12 15 12 7 10 12 7 7 5 2 3 4 5 3 0 4 7 13 11 7 6 14 18 15 25 27 28 30 34
13 15 14 12 12 5 1 2 4 1 7 11 8 13 19 3 5 16 15 14 7 8 5 6 4 5 9 5 4 3 2 5 6 11 8 7 5 14 11 6 20 20 23 29 37
12 13 10 11 12 3 4 5 8 7 10 20 19 23 21 18 5 13 15 11 5 4 4 5 4 7 5 6 3 2 2 1 7 8 4 8 6 10 14 11 18 21 20 30 31
12 11 9 10 4 3 8 10 19 17 3 9 7 9 6 7 7 12 18 15 3 4 4 5 3 6 3 1 1 1 3 3 4 5 4 9 1 9 9 7 15 20 15 28 37
12 8 6 6 3 9 5 15 19 10 4 6 4 3 6 7 3 9 17 17 2 8 6 4 5 3 2 3 5 2 6 3 10 5 4 4 4 5 9 8 7 17 20 28 39
14 11 8 6 7 5 9 13 13 1 3 14 4 4 3 8 5 9 15 17 7 5 6 6 5 4 5 7 6 8 5 7 9 5 6 3 2 3 13 10 14 22 32 32 39
13 11 10 7 6 5 12 16 5 5 4 8 5 6 2 1 2 7 12 11 6 4 2 6 4 6 8 6 9 5 2 6 5 4 1 7 6 4 7 17 15 20 28 37 39
12 11 9 8 5 11 16 9 4 4 2 6 4 6 4 3 3 3 4 4 5 4 3 5 4 5 6 2 2 4 6 1 3 1 5 6 4 2 8 6 16 19 21 30 35
8 11 10 7 9 12 13 5 7 2 3 5 5 4 5 3 3 4 6 4 1 4 2 3 2 7 4 9 7 7 9 5 6 5 4 5 5 3 8 10 16 16 15 18 19
4 9 10 5 6 7 5 5 6 4 4 5 6 6 5 2 3 2 4 5 2 6 6 5 5 3 2 4 9 4 3 7 6 3 4 1 2 1 8 12 16 14 14 11 13
5 7 10 9 9 5 5 3 2 4 3 2 3 2 5 5 3 4 5 3 3 2 6 3 1 2 4 1 4 7 6 4 3 4 3 3 1 4 2 4 5 9 10 8 8
6 5 1 4 7 1 2 4 4 5 4 0 3 4 4 5 4 3 3 2 2 3 8 2 2 6 1 5 1 3 2 6 5 4 5 4 5 1 5 5 5 6 7 5 6
4 2 3 2 2 2 1 4 2 5 6 6 3 2 2 2 4 4 4 3 8 3 4 2 4 1 1 6 2 6 3 3 5 3 3 3 4 2 5 10 12 9 8 7 5
8 3 2 10 1 2 5 2 4 6 6 5 6 5 4 3 5 4 4 5 10 4 3 1 3 3 5 6 8 8 5 2 3 3 6 6 4 6 8 8 9 10 10 11 8
2 3 3 7 1 5 4 3 3 13 5 3 3 5 6 8 7 4 5 4 10 7 4 4 3 5 5 4 3 3 5 3 3 4 5 5 6 9 8 8 10 9 7 10 11
3 2 3 2 4 4 4 4 3 3 4 14 6 5 2 4 4 4 6 6 6 13 4 4 3 1 1 6 6 5 6 10 4 4 4 6 9 11 8 8 14 12 12 11 14
2 4 3 2 1 5 3 2 2 2 3 5 6 5 5 4 1 2 1 4 2 7 4 4 2 1 5 3 8 8 13 13 7 5 8 10 0 7 16 16 15 13 14 15 15
5 3 1 5 2 3 2 3 2 6 5 4 5 4 7 3 2 4 2 1 3 2 4 3 3 3 1 5 6 6 5 6 2 5 6 5 6 19 11 15 17 16 15 18 19

GFSSW_850_spd_090.txt.gz
Wind_Speed
11 11 11 11 11 11 8 8 9 9 9 9 9 8 10 10 11 13 15 9 13 17 20 15 14 13 13 7 6 2 2 1 4 8 7 11 7 10 10 20 5 3 24 29 30
12 11 11 11 10 10 10 9 9 8 9 9 9 9 9 11 13 17 8 10 16 17 22 21 17 15 6 4 3 2 2 2 3 6 11 12 16 11 10 11 15 24 27 31 30
12 13 12 11 11 10 10 10 9 8 8 8 8 8 8 9 12 0 2 14 18 17 20 17 16 13 3 4 5 2 3 1 6 15 21 10 8 7 20 4 25 30 35 31 30
14 13 14 13 12 11 9 9 9 8 8 8 7 7 7 4 1 2 2 16 19 22 20 16 17 8 2 2 3 2 4 1 13 23 18 16 12 14 10 8 34 38 36 34 30
15 16 15 13 12 12 10 8 8 9 9 9 7 6 5 5 5 2 3 17 24 21 21 18 18 7 3 2 2 3 0 13 18 24 18 22 12 11 9 22 33 35 33 32 28
17 17 17 13 11 10 9 7 7 8 9 9 7 5 5 3 3 3 3 18 22 22 20 19 14 10 2 4 2 3 6 19 15 19 14 12 10 18 17 19 31 33 33 31 28
17 19 18 14 11 9 7 6 5 7 8 7 5 6 8 8 2 8 7 11 17 17 19 17 15 9 4 2 2 10 5 7 12 13 8 19 5 5 14 27 31 31 33 31 28
15 18 17 13 10 9 6 4 4 5 5 5 4 5 7 4 9 12 11 12 11 15 8 18 16 1 3 4 3 5 4 5 6 11 4 4 8 7 21 34 29 29 29 30 29
14 16 16 13 10 7 5 4 4 6 3 1 1 3 6 5 11 13 10 7 12 11 10 11 11 3 1 3 4 7 4 3 5 7 5 3 3 9 23 31 27 28 29 27 26
14 15 12 11 12 8 4 6 5 3 1 1 3 2 1 4 4 15 10 5 8 13 11 6 5 3 3 4 4 4 2 3 7 7 2 4 2 12 17 25 27 26 28 30 28
14 12 10 10 12 6 5 4 6 3 10 11 12 11 13 4 2 10 14 11 11 12 5 5 4 6 8 5 5 5 6 4 1 11 11 14 3 8 10 13 25 26 27 32 36
14 13 10 10 8 4 8 3 8 9 10 14 15 19 15 14 4 6 17 9 5 4 6 5 5 7 7 5 5 3 2 2 4 10 5 2 4 8 14 6 21 24 28 34 34
14 12 10 10 8 4 4 6 18 15 2 8 6 5 1 9 7 11 20 10 6 4 4 6 3 8 5 4 5 1 3 3 5 4 4 8 4 5 4 6 12 16 30 34 33
15 11 9 8 5 8 2 12 21 8 4 5 4 1 6 6 2 11 18 10 3 7 7 3 3 6 3 4 5 4 6 3 11 5 4 2 4 5 8 9 7 19 20 34 34
17 10 7 6 9 6 7 16 15 1 4 11 5 6 0 6 11 9 20 12 6 6 7 6 5 5 3 5 6 7 5 5 4 4 4 4 2 2 11 12 16 20 24 26 36
17 9 8 7 9 5 12 17 3 5 3 6 4 5 3 2 2 7 10 10 4 5 3 6 2 5 8 5 9 5 4 6 5 3 1 6 5 3 6 12 15 19 24 26 34
14 8 7 9 6 12 15 6 5 3 4 6 3 5 3 1 3 3 4 2 4 5 1 2 3 3 4 4 1 4 6 2 3 2 5 4 5 3 4 8 12 19 18 23 30
10 8 8 5 10 10 12 5 4 4 5 4 4 3 1 1 2 2 5 2 2 6 3 5 3 7 4 7 7 6 8 5 5 5 4 3 5 3 3 10 5 19 23 22 27
6 6 7 6 6 8 5 5 4 4 4 6 3 6 5 4 2 4 3 6 3 5 5 4 4 3 5 4 8 4 4 6 7 3 3 2 3 2 4 8 14 15 22 19 17
6 4 7 9 6 5 5 3 3 5 3 3 3 2 3 5 4 2 3 1 1 1 3 4 1 2 3 4 4 5 5 4 3 4 2 3 4 4 4 5 6 9 11 11 15
4 2 3 1 3 2 2 4 4 5 0 2 1 2 1 2 4 2 2 2 2 3 3 4 3 4 2 4 4 2 1 6 6 4 5 4 6 3 5 8 8 9 9 9 12
2 2 5 9 3 2 2 4 5 4 7 1 2 2 3 1 4 2 3 2 9 2 1 1 4 2 2 4 1 2 3 4 5 4 1 3 4 3 4 9 13 11 11 11 11
5 1 2 6 2 2 3 0 6 6 5 6 4 4 3 4 3 1 2 3 16 4 3 5 2 3 6 6 6 7 5 4 4 3 5 5 4 4 9 8 8 11 10 10 10
1 2 3 2 2 4 1 1 2 6 4 3 4 3 4 5 3 1 3 3 11 9 7 2 3 4 6 4 2 4 6 4 4 3 5 5 5 8 6 6 9 10 10 8 8
3 1 2 1 4 2 3 2 2 4 5 12 5 5 2 3 2 3 4 6 7 12 4 4 4 3 4 6 4 4 7 8 4 1 3 5 8 6 10 9 13 12 11 9 9
2 2 2 3 2 2 4 3 1 1 4 4 5 5 4 5 2 4 1 4 1 6 4 4 2 3 3 5 6 4 9 7 6 2 2 2 3 2 17 16 15 13 12 11 9
3 1 1 3 2 3 2 3 1 2 4 4 3 3 7 3 2 4 5 5 4 2 4 4 3 2 1 5 5 3 5 3 2 2 2 1 2 7 6 12 16 16 15 15 14

GFSSW_850_spd_093.txt.gz
Wind_Speed
10 10 9 10 10 10 9 9 9 9 9 9 8 7 8 8 10 12 13 9 13 19 20 16 14 16 13 6 4 2 2 2 5 13 9 13 8 10 8 17 7 4 17 21 27
11 11 11 10 9 10 10 10 9 9 8 8 8 9 7 8 11 14 7 8 13 21 23 19 17 14 5 3 3 3 2 1 4 11 13 17 16 13 11 14 11 18 21 26 26
14 14 13 12 10 9 9 9 9 8 7 7 6 8 8 5 9 1 1 14 18 20 20 17 17 11 4 3 4 2 2 1 5 14 21 21 14 9 19 7 13 29 32 27 25
15 15 15 14 12 10 9 9 8 8 7 7 6 6 7 4 1 2 3 11 18 19 21 19 15 7 2 2 1 3 6 3 12 23 17 16 13 14 7 2 18 30 33 29 26
14 15 15 13 11 10 8 8 8 7 7 7 7 6 4 6 4 2 3 12 20 24 21 17 17 7 4 2 3 5 2 7 20 19 19 14 13 13 7 16 25 27 27 25 22
13 15 16 13 11 10 9 6 6 6 6 7 5 5 4 3 3 3 3 16 21 23 20 15 11 9 6 2 4 2 7 15 21 19 18 15 13 7 7 21 25 26 25 23 21
11 15 16 12 10 9 6 5 4 4 5 4 3 4 7 6 3 5 7 18 21 19 20 13 19 7 9 3 2 9 16 13 16 16 9 20 6 5 14 23 25 24 23 20 19
9 13 14 13 10 8 5 3 3 3 3 1 1 3 5 5 7 7 14 18 15 13 15 14 16 6 3 4 2 3 9 10 10 14 3 4 10 14 26 25 24 23 22 20 19
10 11 11 11 11 8 5 4 3 5 4 2 2 2 2 2 6 11 16 13 13 14 9 16 10 2 4 7 4 2 7 5 12 16 10 6 2 10 25 27 27 24 22 21 19
12 11 9 10 11 8 5 6 6 4 2 4 1 0 4 3 5 13 13 9 14 14 9 7 4 4 3 6 7 6 5 7 11 12 7 12 6 11 21 25 28 25 23 23 22
13 11 9 8 10 7 7 4 8 3 10 8 7 8 8 4 5 13 12 10 16 12 6 6 7 12 9 3 5 10 7 5 3 10 12 7 8 12 18 21 21 24 24 23 27
14 11 9 8 8 4 5 3 8 7 8 7 8 14 13 6 3 8 19 4 10 14 9 7 14 8 8 4 5 7 8 6 3 14 5 9 1 3 11 21 24 25 26 26 22
15 10 8 6 5 3 2 4 16 11 3 5 4 3 2 11 7 11 22 10 9 13 13 13 6 10 9 7 7 4 6 7 5 13 12 11 3 7 10 11 19 25 27 26 27
17 10 6 5 2 7 1 11 17 5 2 6 2 2 2 5 4 15 20 10 5 12 12 8 5 14 9 11 8 8 8 5 12 10 4 7 1 6 11 14 17 25 27 29 27
17 10 4 2 7 5 4 14 11 1 2 10 2 2 3 3 8 13 23 7 7 7 6 7 12 12 12 9 7 2 5 6 9 5 9 6 7 4 10 15 19 25 24 27 27
17 8 4 3 7 2 10 14 1 2 4 4 4 4 3 3 4 8 12 5 3 6 3 5 4 8 7 7 11 6 8 8 5 4 4 11 6 6 8 21 17 22 23 21 24
16 5 2 6 3 8 10 3 2 3 2 5 3 5 3 1 6 9 11 8 4 8 11 5 6 3 4 7 5 7 8 3 6 5 3 3 8 3 10 4 12 19 27 24 22
11 3 2 4 8 6 8 1 3 2 3 2 2 2 1 2 3 3 10 8 3 3 5 11 9 10 8 9 6 12 13 5 8 6 9 5 9 2 2 6 12 19 24 25 26
6 2 2 4 4 4 1 3 0 2 3 5 3 1 2 3 2 3 1 11 6 5 2 8 8 2 7 6 11 6 10 5 3 1 7 4 3 4 4 1 4 8 20 24 25
1 2 2 5 4 3 2 1 1 3 3 2 3 1 0 1 4 3 2 1 4 3 2 4 5 4 6 6 3 6 11 9 3 8 10 5 4 3 9 6 6 10 11 12 14
2 3 2 2 2 2 1 1 2 2 2 2 2 1 3 1 5 5 1 2 1 2 6 6 3 4 4 4 11 6 6 1 5 3 9 7 5 1 5 11 9 7 9 10 14
1 2 3 6 1 2 1 2 4 4 5 2 2 3 3 3 3 3 3 2 4 4 5 3 2 1 3 3 1 2 4 4 9 7 0 3 3 2 2 9 13 12 10 8 11
1 3 2 4 1 1 1 1 3 4 5 5 4 4 1 2 3 3 4 3 5 2 3 6 1 5 6 5 3 4 2 2 3 2 7 8 3 2 6 9 8 10 9 11 10
1 2 2 2 3 2 2 1 1 5 3 2 3 1 1 4 5 3 4 3 9 3 6 2 3 2 5 5 3 5 5 3 2 5 7 4 4 8 10 10 9 9 8 8 8
1 2 2 2 2 3 1 1 2 3 5 8 2 6 2 3 3 3 1 5 4 12 5 2 4 11 11 11 11 12 8 5 5 3 5 1 4 1 12 11 12 11 8 7 7
1 2 3 3 2 1 2 2 2 1 4 3 4 8 4 4 2 2 1 1 2 5 4 6 4 4 2 2 3 10 10 10 8 4 2 2 3 1 13 12 11 11 10 9 8
3 4 2 1 2 2 1 2 3 1 2 4 1 1 7 5 2 2 3 8 6 1 3 3 5 5 3 4 2 3 5 7 5 3 1 2 3 10 12 12 14 14 13 11 11

GFSSW_850_spd_096.txt.gz
Wind_Speed
10 10 10 9 9 9 8 8 8 8 7 8 8 9 9 7 8 9 10 8 11 16 16 13 11 12 12 7 4 3 2 3 7 11 10 17 15 14 8 14 7 5 16 28 26
9 9 9 8 8 8 8 8 7 7 7 7 7 8 9 8 8 11 7 8 12 18 18 17 15 14 9 7 5 4 3 4 3 10 16 22 16 14 14 13 12 19 23 30 26
12 13 12 11 9 8 8 7 7 6 6 6 6 7 6 7 6 3 3 11 15 19 16 13 13 13 9 7 6 1 2 0 7 15 22 20 15 13 15 11 17 25 32 30 26
11 13 13 13 11 10 9 8 8 6 5 5 5 6 5 3 1 4 3 10 17 20 17 15 16 12 5 6 4 5 1 3 10 18 21 18 14 12 13 7 15 25 32 29 26
10 12 13 11 9 8 7 7 6 6 5 5 5 4 4 5 6 5 2 10 18 18 19 18 17 12 11 4 5 7 0 7 17 18 17 14 12 14 6 9 21 31 28 26 23
8 11 13 11 9 9 8 6 5 4 4 4 5 3 3 8 5 6 6 13 17 17 17 17 13 11 5 3 5 3 4 16 20 21 14 13 17 12 11 20 27 28 25 23 21
8 11 12 11 9 8 6 5 5 4 4 3 3 3 6 4 3 2 12 14 18 15 15 15 10 13 9 4 3 9 13 13 19 19 15 16 10 10 17 23 25 25 23 21 19
8 10 10 11 10 7 6 5 5 5 4 2 2 3 3 5 6 5 12 14 15 14 12 8 12 6 6 6 6 8 15 14 15 17 7 1 13 11 14 23 24 23 21 19 17
10 9 8 10 9 7 6 6 5 5 5 4 1 1 5 1 4 10 12 13 14 11 9 9 10 8 9 10 8 3 10 12 14 11 8 5 4 17 18 17 24 22 21 19 19
11 9 7 8 7 6 5 5 7 3 1 3 1 4 3 5 8 13 10 14 12 13 12 11 11 10 11 11 8 5 9 17 15 12 12 8 5 10 21 18 24 24 23 21 22
12 9 7 6 5 5 7 5 5 1 6 6 4 5 2 5 11 12 12 12 9 17 11 17 11 15 15 13 1 15 9 10 12 18 13 13 7 10 18 18 23 25 23 22 21
13 11 7 4 2 3 4 3 6 6 6 4 6 8 7 5 11 15 13 10 14 15 13 10 16 17 4 6 8 12 16 9 10 15 9 13 10 6 12 18 25 26 26 24 22
14 13 7 3 0 1 2 2 12 8 6 2 2 3 6 10 9 17 18 8 14 15 16 14 14 7 10 11 9 9 10 12 16 12 8 14 7 5 4 10 18 27 26 24 25
14 12 5 2 2 4 2 8 15 7 4 5 5 4 6 7 7 15 19 10 7 14 16 15 6 12 14 14 11 10 2 4 16 12 4 5 2 4 1 8 18 23 25 25 23
14 11 2 3 2 2 5 10 12 2 0 3 5 1 5 7 15 13 18 9 10 11 11 9 15 17 16 14 9 4 3 5 11 8 13 8 3 4 4 11 17 25 28 28 28
13 8 1 3 5 4 8 12 2 6 4 2 1 0 8 9 8 17 17 10 1 8 15 4 12 13 14 9 12 0 7 6 6 8 6 12 5 7 8 17 13 24 26 28 29
12 4 4 4 1 7 8 3 6 4 2 3 2 1 4 6 9 16 15 14 9 11 13 9 12 9 10 14 13 11 10 6 7 7 2 13 8 7 21 14 19 23 29 28 25
9 2 4 4 5 5 4 7 2 2 2 1 2 2 9 6 6 10 15 14 7 11 12 13 15 15 13 14 11 19 15 8 8 11 7 8 6 5 7 10 8 13 28 28 27
4 2 2 3 2 3 9 2 4 2 4 7 5 5 6 9 4 8 13 14 11 11 7 13 12 18 12 14 9 15 17 16 11 2 10 12 6 4 5 5 7 16 24 30 30
1 3 2 5 3 3 6 4 2 5 7 4 6 2 4 11 10 10 10 5 11 5 10 4 11 12 16 12 16 12 15 16 10 12 12 7 10 6 11 9 4 8 20 25 25
4 6 3 2 1 7 1 5 1 3 6 6 6 3 1 4 9 10 8 5 4 9 10 6 9 11 14 15 16 12 12 14 16 15 10 12 12 5 6 10 10 8 7 7 16
3 5 2 5 7 1 2 2 1 3 2 2 4 5 5 2 5 5 6 3 4 6 13 12 7 10 19 5 9 18 17 18 13 17 11 12 3 4 6 10 12 11 11 9 10
2 3 4 3 4 5 5 4 2 3 4 6 3 4 2 1 1 2 1 5 9 5 3 9 9 7 8 9 7 14 12 13 16 15 18 14 6 5 9 9 8 11 12 10 9
3 5 4 4 1 4 2 1 2 3 2 3 4 3 4 3 3 4 6 5 3 7 6 3 5 11 10 15 14 10 11 15 15 12 12 13 8 9 10 10 10 11 9 8 7
3 1 1 5 5 1 2 1 2 2 0 2 3 3 4 3 3 3 2 1 6 7 4 4 1 6 6 8 7 8 12 14 16 16 10 8 10 7 10 10 13 12 11 9 8
2 3 2 3 5 5 4 1 2 0 3 2 2 3 2 1 6 6 2 2 1 6 14 6 4 1 8 5 7 9 5 4 3 5 5 5 4 3 10 11 13 13 10 9 8
2 1 3 5 6 6 2 1 2 2 3 2 3 1 5 7 5 3 5 7 5 6 8 6 8 5 9 3 4 8 6 5 5 2 3 10 8 6 10 10 11 12 12 10 10

GFSSW_850_spd_099.txt.gz
Wind_Speed
9 10 10 10 10 10 9 8 7 7 7 9 9 9 9 9 10 9 8 10 11 9 14 9 11 11 12 8 8 5 3 5 6 16 13 20 16 15 10 13 10 7 24 27 25
9 9 10 11 9 9 8 8 9 8 7 6 8 8 8 9 10 14 12 12 12 11 13 14 14 13 15 11 6 7 3 9 2 9 18 21 17 17 12 12 10 17 27 26 24
9 10 11 12 11 10 9 9 8 7 7 6 6 6 6 5 9 7 16 12 12 14 13 12 10 13 12 10 9 2 2 6 6 11 23 24 16 15 20 11 19 25 31 28 24
10 11 13 12 11 10 9 9 7 7 6 6 5 5 5 5 2 4 8 8 13 15 15 15 13 16 12 12 5 1 6 5 4 14 23 18 19 15 12 14 18 25 30 27 23
10 11 13 13 11 10 10 9 7 6 6 5 6 4 3 7 9 4 7 9 17 19 17 17 16 15 10 10 5 6 2 4 7 22 19 17 13 15 13 11 21 27 27 25 22
9 11 13 12 10 9 8 7 5 5 4 5 6 4 4 15 2 2 4 12 15 18 17 18 13 14 7 13 6 5 7 9 15 16 11 12 17 13 10 16 25 28 26 23 21
9 10 10 11 11 9 7 5 4 4 3 4 3 3 9 6 2 4 9 11 14 17 16 17 14 13 6 3 6 6 4 11 6 17 8 8 13 10 16 22 28 28 24 22 19
10 10 9 10 10 8 7 6 6 6 4 2 1 2 7 4 5 7 11 12 13 14 12 14 12 16 13 8 5 10 14 8 13 18 7 5 12 15 20 25 27 26 23 20 19
11 10 8 8 8 7 6 6 5 3 3 4 4 4 7 3 7 10 12 15 14 12 11 10 14 17 12 11 3 9 6 12 14 16 8 5 13 9 18 23 25 24 23 22 20
11 10 7 6 6 6 7 5 5 2 3 2 5 7 6 7 10 11 11 13 15 13 12 13 11 14 12 14 12 11 3 19 15 11 14 9 2 3 10 7 22 23 23 21 22
12 11 8 4 4 4 7 8 3 3 10 11 0 7 3 5 10 12 11 15 14 14 15 20 14 15 19 20 16 3 3 6 16 14 10 10 7 3 13 9 12 21 22 24 24
12 12 8 3 2 2 4 5 8 8 8 4 5 8 3 7 12 14 15 14 15 15 20 12 17 18 19 14 9 19 18 9 19 23 8 13 5 4 11 14 14 15 26 26 28
12 12 7 2 2 4 5 7 7 9 9 6 3 6 10 10 13 18 18 17 13 17 18 15 15 18 14 10 14 15 11 2 6 13 13 14 5 5 5 18 26 28 24 24 24
12 12 5 1 1 3 4 4 7 8 6 12 9 5 6 10 9 18 18 13 12 15 16 16 16 18 7 14 15 14 18 9 17 18 8 5 5 12 8 7 12 25 25 28 26
11 10 4 6 3 5 4 7 10 4 2 4 7 3 7 15 14 14 19 14 12 13 10 16 17 13 15 17 15 5 16 27 22 12 18 14 6 10 14 5 7 22 17 26 27
11 9 4 4 6 6 8 10 6 8 2 4 4 5 10 12 7 15 19 16 11 14 15 19 10 12 16 15 13 5 10 8 12 10 2 14 12 12 12 10 5 21 23 27 32
10 7 6 6 1 6 8 9 8 2 2 3 1 4 10 8 10 11 17 16 11 11 14 16 9 13 16 17 8 13 15 6 7 2 5 14 9 7 19 20 18 24 34 28 29
9 5 7 7 6 8 8 12 7 4 3 2 3 4 10 6 9 15 15 15 18 16 11 14 13 18 10 18 12 16 18 7 7 6 7 16 5 13 23 31 31 32 31 32 33
6 4 7 5 6 8 12 12 6 3 4 8 7 11 11 3 5 11 14 15 17 10 17 15 17 18 14 13 16 15 17 15 7 5 6 7 9 5 16 18 17 19 31 28 27
4 10 8 6 7 8 13 5 2 5 8 8 12 14 9 9 8 8 14 14 13 13 20 11 12 17 15 13 18 16 15 16 11 14 8 6 5 7 17 17 16 17 20 30 31
7 12 8 5 5 14 10 8 1 5 9 7 11 6 15 7 7 6 5 5 6 14 6 9 10 14 13 15 18 14 12 14 17 14 12 6 4 4 13 18 13 11 17 23 28
12 7 9 7 13 7 2 2 2 4 1 7 6 11 2 14 6 4 4 6 16 7 14 16 9 13 18 15 18 17 17 16 12 18 14 9 2 12 11 13 18 12 8 7 11
15 6 8 9 9 8 9 5 4 6 6 6 7 4 4 9 2 5 3 4 4 7 9 7 12 13 10 16 13 13 15 20 16 15 17 14 7 12 10 11 15 16 11 9 9
8 6 9 12 15 10 4 4 3 5 6 6 9 4 9 8 7 7 7 6 2 10 17 10 14 16 9 5 17 19 20 21 19 14 16 13 20 16 15 13 15 16 14 11 9
11 6 3 9 9 3 2 4 3 2 3 4 5 9 8 1 9 7 5 4 6 3 9 7 15 17 6 15 22 19 21 10 15 16 12 3 6 16 15 14 15 16 13 13 12
7 8 9 1 1 5 8 4 4 2 2 1 8 2 6 5 5 10 2 6 2 9 7 10 7 13 12 9 10 13 16 21 18 17 18 2 9 4 18 18 15 15 14 13 12
4 7 8 11 7 9 3 4 3 1 2 5 4 8 3 10 9 7 6 2 3 6 12 10 6 7 15 9 10 9 10 10 11 8 7 7 15 10 11 13 14 12 10 11 10

GFSSW_850_spd_102.txt.gz
Wind_Speed
11 11 11 11 11 10 10 9 9 9 10 10 10 9 9 10 10 13 11 10 11 10 11 8 9 11 11 10 9 7 4 5 5 17 16 29 16 10 13 17 19 10 27 26 20
11 12 13 13 13 12 11 10 10 9 8 9 9 9 10 9 12 17 13 16 14 11 13 11 12 12 15 11 7 11 4 11 15 9 16 23 20 17 13 11 14 28 30 26 26
11 12 14 15 13 11 10 10 10 9 8 8 8 8 8 9 11 8 14 19 13 12 14 11 11 14 13 12 13 8 4 8 17 6 19 25 17 20 11 10 15 29 28 24 23
12 12 14 14 12 11 11 10 8 7 7 7 6 7 7 6 3 2 5 12 14 13 14 14 15 14 11 9 9 10 5 17 13 26 24 18 18 21 17 13 26 26 26 24 23
12 12 14 14 12 11 10 8 7 5 5 5 5 5 4 7 14 5 6 9 12 17 17 16 16 15 12 4 13 6 3 6 6 19 25 22 23 16 4 19 27 28 25 23 22
11 12 12 13 14 12 10 8 7 6 4 4 5 5 3 13 2 6 3 6 13 17 17 16 14 15 7 12 4 4 3 9 7 13 24 22 19 22 16 21 28 28 24 22 21
11 11 11 12 12 11 9 8 7 6 5 5 4 5 8 18 4 5 7 7 13 16 16 16 16 12 10 9 16 5 6 3 6 15 8 10 14 8 17 25 29 27 24 21 19
12 12 11 10 10 9 8 7 5 5 6 4 2 4 9 4 13 7 10 10 12 14 15 13 15 16 18 4 4 3 9 8 2 4 11 8 6 2 17 28 28 27 24 22 19
13 12 10 9 9 8 8 8 6 4 4 4 1 4 13 8 9 11 12 13 13 14 14 10 14 16 19 16 5 9 6 10 8 14 9 5 8 13 20 24 28 25 24 24 21
12 12 11 9 8 7 9 9 9 5 5 7 7 9 12 12 7 11 12 12 14 13 12 10 11 14 16 13 10 7 7 13 11 10 14 13 5 5 15 20 21 22 18 20 21
12 12 11 8 7 7 10 9 6 3 9 11 4 10 5 4 3 9 12 13 15 14 15 19 13 15 18 19 14 9 3 4 8 17 12 12 5 4 5 5 8 25 22 21 26
13 13 11 7 6 6 9 8 10 11 15 17 8 12 8 2 9 13 13 15 16 14 18 15 17 18 19 10 17 16 16 6 7 14 10 12 10 1 10 7 5 5 19 23 22
12 12 10 6 5 7 7 11 10 11 13 7 3 10 10 10 14 16 16 19 14 15 17 19 15 19 19 17 11 11 16 8 2 12 19 15 6 8 5 19 19 16 9 10 24
12 11 9 4 5 9 12 3 7 11 5 8 9 5 5 10 14 14 16 17 9 14 18 17 20 17 18 14 10 13 19 16 14 12 9 9 5 6 9 13 17 30 18 19 20
12 10 8 7 8 9 5 7 10 6 4 1 6 3 4 11 4 15 15 19 18 15 13 16 16 19 12 18 10 15 22 21 23 11 9 13 5 7 18 18 19 29 26 26 34
13 10 8 6 11 5 8 10 8 5 3 5 3 8 7 14 10 14 14 19 15 14 15 17 16 17 16 9 11 21 11 16 12 5 7 18 14 12 17 20 19 30 25 20 25
13 11 9 13 8 5 9 10 5 5 5 6 1 4 11 11 11 9 12 16 13 11 14 16 20 9 7 11 14 15 15 4 2 4 5 6 11 9 22 22 27 20 20 24 18
12 11 10 12 9 10 9 10 6 7 7 2 5 6 8 10 9 10 11 14 16 18 13 12 14 12 14 15 14 13 18 4 1 6 2 12 7 11 22 24 34 27 33 26 29
11 7 11 8 8 5 10 7 6 10 11 9 12 12 8 8 2 6 13 14 16 18 18 10 14 14 18 12 18 12 14 14 12 3 7 7 11 18 19 14 24 26 41 39 34
10 8 13 8 9 7 9 12 9 6 9 13 14 4 6 14 9 9 12 12 14 18 16 16 11 16 14 11 15 15 11 13 6 5 6 1 4 5 21 17 16 19 32 42 46
10 9 12 8 8 11 9 6 5 6 7 8 15 16 12 9 14 16 4 7 20 3 11 14 11 19 14 11 14 11 12 10 15 13 5 4 6 8 19 18 17 19 28 41 41
8 10 11 9 11 15 9 8 3 7 5 7 6 9 10 9 6 12 8 5 12 8 10 15 11 6 11 12 13 16 15 15 9 15 11 8 8 8 13 12 16 9 22 14 28
8 20 8 12 10 6 13 3 2 7 11 8 11 9 11 3 1 8 6 6 6 10 6 9 9 8 14 10 13 14 17 16 14 13 14 11 6 10 25 23 11 13 11 13 17
7 5 9 14 18 15 12 8 2 9 6 4 11 13 7 3 4 3 4 8 7 9 10 5 13 16 11 8 14 15 19 13 14 12 12 12 20 22 17 14 17 16 14 13 14
8 5 8 8 14 13 2 8 2 6 3 5 6 7 14 3 5 16 4 11 5 1 11 8 14 16 17 7 16 19 16 16 17 18 11 2 17 17 12 15 13 12 13 14 11
9 13 16 9 2 4 6 9 6 4 1 9 2 11 6 11 11 12 6 22 3 6 9 9 9 12 16 10 17 19 21 17 22 15 13 15 6 10 25 22 19 16 10 11 13
9 11 15 10 6 9 5 5 3 4 2 8 8 8 10 12 6 5 10 8 10 7 9 3 6 7 11 17 14 15 15 15 12 11 10 15 6 11 9 15 9 18 18 15 15

GFSSW_850_spd_105.txt.gz
Wind_Speed
12 12 13 13 13 12 11 10 10 9 9 8 9 10 11 12 12 16 16 8 8 10 4 7 10 6 9 16 9 10 4 2 4 8 10 25 9 14 28 24 26 13 30 29 29
12 12 13 14 13 11 10 10 10 8 8 8 7 7 9 12 14 19 13 10 11 8 8 12 13 10 16 11 6 6 3 7 8 6 3 21 16 16 14 17 26 31 31 26 25
12 12 14 14 13 12 10 9 9 8 7 7 7 7 7 10 13 7 4 10 10 11 11 12 14 14 15 9 7 4 3 6 8 21 18 12 19 9 20 9 33 33 35 29 34
12 11 13 14 14 12 11 9 8 7 7 6 6 6 6 6 1 3 5 4 11 13 13 14 16 20 8 7 7 3 17 13 5 26 10 17 22 13 20 24 39 37 33 32 29
13 13 13 13 14 12 10 9 7 6 6 6 6 6 6 4 12 9 9 5 9 15 17 14 15 18 8 7 5 7 8 18 22 30 22 16 17 10 14 42 37 33 27 35 30
14 14 13 13 12 11 10 9 8 6 6 6 6 6 4 6 1 5 7 5 8 15 18 16 14 16 13 8 9 1 9 16 19 12 17 21 14 11 14 39 35 34 27 27 28
14 14 12 12 11 10 9 9 8 7 7 6 5 5 8 18 2 6 9 9 8 14 14 12 15 19 13 8 4 8 6 9 12 8 5 28 10 9 28 33 33 32 29 26 27
13 13 13 11 10 10 9 9 7 6 7 7 5 6 8 2 7 9 12 7 4 11 12 16 13 17 18 11 3 1 1 4 7 5 10 9 5 13 33 29 29 28 27 28 30
14 14 13 11 9 8 10 10 8 7 7 7 4 7 11 6 13 14 12 13 12 11 12 14 18 17 17 6 6 2 2 4 7 5 7 1 5 9 32 33 29 27 24 28 30
14 14 14 11 8 7 10 13 10 8 7 9 6 10 7 5 10 4 10 15 17 14 18 19 4 2 5 3 5 6 4 2 8 8 16 0 4 4 9 23 27 27 26 29 32
14 14 14 12 7 7 9 14 9 1 8 10 13 15 17 2 0 2 9 10 13 13 6 8 3 7 12 15 16 8 9 9 10 9 7 12 4 0 13 13 7 22 20 25 30
14 14 13 11 6 7 9 10 12 13 12 21 18 20 15 10 5 8 11 11 9 8 9 5 8 13 16 4 13 10 5 7 12 10 7 9 5 3 5 3 3 5 9 16 34
14 14 13 11 5 5 9 10 8 13 9 16 18 12 11 10 15 12 13 15 7 8 8 9 13 18 17 10 8 8 4 8 7 8 1 2 5 2 0 4 7 5 3 4 24
14 12 12 9 6 8 14 12 11 12 3 6 7 5 4 5 9 15 18 18 9 10 12 8 20 15 15 10 5 5 9 11 13 9 3 5 1 3 6 9 8 11 14 7 19
15 13 10 10 11 9 12 10 12 11 4 3 5 1 4 6 10 15 17 14 12 12 4 10 11 12 12 11 14 6 17 7 8 8 6 2 4 3 4 10 15 22 22 12 10
16 13 10 10 12 4 15 16 15 2 4 6 8 8 7 13 18 16 14 12 17 12 14 10 18 8 7 1 21 25 18 11 4 2 3 10 5 7 13 25 28 25 23 21 10
16 14 12 13 9 7 8 13 3 4 5 5 2 9 9 7 9 9 8 7 5 3 6 10 10 9 13 14 22 20 12 4 1 2 4 5 6 12 17 16 19 23 22 21 16
16 14 12 13 6 5 8 5 3 9 10 9 6 7 3 4 6 11 7 5 10 10 8 6 7 8 3 4 16 17 12 6 6 4 2 3 2 6 14 28 23 29 25 23 26
14 11 11 7 6 5 5 3 4 12 10 10 12 5 4 11 11 1 4 8 9 11 8 4 4 5 8 9 7 7 4 10 7 1 4 2 2 11 4 5 17 21 25 26 32
14 10 14 7 10 5 3 8 10 2 10 7 9 9 4 8 5 10 6 2 3 6 13 10 6 6 7 12 9 6 5 3 2 4 3 5 3 5 4 4 11 15 22 35 39
11 5 5 10 15 14 5 9 11 4 6 3 9 8 4 3 0 4 8 9 14 12 9 5 1 10 9 6 7 3 3 5 5 5 5 5 5 9 11 4 8 17 27 33 36
4 4 10 14 9 10 8 14 6 11 6 5 6 8 6 4 3 4 4 7 25 17 7 7 2 5 8 3 10 6 7 7 4 4 4 5 3 4 15 28 28 25 31 42 47
6 12 11 10 5 7 7 13 9 3 6 4 6 9 10 5 4 6 3 10 19 12 4 7 4 5 8 7 2 6 8 6 4 1 5 4 4 11 20 20 28 28 38 39 38
4 3 10 15 19 10 11 11 9 7 3 4 3 10 8 5 9 6 10 9 24 16 4 2 2 4 1 5 9 7 7 9 3 3 5 4 7 7 7 5 8 19 15 15 41
4 7 17 3 7 12 14 5 7 3 4 4 2 6 6 4 6 2 2 8 15 6 3 2 4 6 6 10 8 13 13 8 8 8 2 6 7 7 4 8 18 17 19 23 24
6 7 14 21 21 6 6 2 7 4 4 7 7 12 9 6 5 8 5 5 7 9 8 5 4 3 6 13 13 6 10 13 11 10 12 20 7 3 14 23 17 9 9 12 15
6 9 4 14 10 2 5 2 4 7 5 3 5 5 6 5 10 19 26 12 5 6 4 3 3 5 1 11 11 6 12 16 7 23 2 6 10 14 5 14 18 19 12 13 19

GFSSW_850_spd_108.txt.gz
Wind_Speed
11 11 12 13 13 12 10 9 8 7 7 7 7 7 8 10 11 14 14 8 8 5 2 7 12 12 6 5 5 7 3 2 4 5 1 11 11 21 23 26 19 5 31 34 32
12 12 13 14 13 11 11 10 8 8 7 7 7 8 8 10 12 14 7 8 12 6 7 11 16 10 5 6 6 5 2 7 9 6 6 11 11 20 15 24 15 29 28 31 30
12 12 13 13 13 12 11 10 9 8 7 6 6 7 8 9 9 1 6 6 11 9 7 12 12 5 10 8 9 7 5 9 18 18 11 6 19 17 29 12 31 31 37 33 31
14 13 13 13 13 12 10 9 8 7 7 6 6 6 7 7 2 3 4 3 8 9 8 13 12 5 5 7 9 4 10 15 12 17 8 11 14 16 30 19 36 41 37 35 34
14 14 13 12 12 12 11 10 9 8 7 6 6 7 7 5 7 3 6 3 6 11 11 14 13 8 4 9 9 6 13 14 8 11 10 13 12 18 26 29 38 36 34 33 36
15 15 14 12 11 10 10 9 9 8 8 7 7 6 5 4 2 1 5 4 4 10 13 19 10 2 11 11 8 10 12 11 8 6 7 6 8 8 26 41 41 37 31 34 33
15 14 14 12 10 9 9 9 8 8 9 9 8 7 10 11 2 2 4 7 10 11 15 21 15 12 9 9 7 12 7 12 9 10 4 19 9 12 37 33 36 33 35 29 29
14 14 14 13 10 9 10 10 9 9 9 8 8 10 7 2 4 11 7 7 7 7 11 14 10 17 13 9 5 1 3 5 8 11 8 8 15 19 36 37 30 30 35 27 35
14 14 14 13 10 9 10 11 13 10 9 8 8 9 7 3 7 3 14 11 7 3 9 7 9 12 12 2 5 1 3 3 9 8 3 1 1 20 31 30 28 26 26 34 35
14 14 14 14 10 8 10 14 11 8 9 8 6 8 3 11 1 4 13 14 10 8 12 12 7 1 4 4 5 3 2 10 7 6 5 9 7 4 21 30 30 29 23 33 37
14 14 14 14 10 8 7 11 10 3 14 12 16 16 23 6 1 1 6 9 13 10 4 8 4 4 8 7 0 4 7 10 4 3 6 8 10 5 2 18 16 22 30 33 36
14 14 13 13 8 5 7 8 6 8 11 19 19 21 18 11 9 7 8 5 2 5 2 4 5 11 8 4 7 11 14 5 3 2 0 2 9 8 8 3 6 16 27 32 27
15 14 13 11 6 6 7 8 14 20 6 16 10 11 18 11 12 15 9 8 1 3 3 7 12 9 6 4 8 6 8 8 5 6 2 5 4 5 5 8 7 6 20 27 26
16 15 13 10 4 5 6 15 19 15 4 7 3 4 6 7 4 8 12 10 1 9 7 7 15 10 8 10 6 3 9 15 11 2 1 2 3 7 6 10 4 10 11 23 28
17 15 11 10 8 10 13 14 11 1 4 4 3 6 6 7 2 5 13 16 8 6 3 10 6 5 8 11 8 6 8 17 8 2 3 4 2 1 3 7 10 11 17 20 23
18 16 11 11 8 5 12 14 10 5 3 4 5 5 3 9 4 4 21 11 5 2 4 10 18 8 8 2 12 21 16 10 7 1 1 4 2 1 5 13 16 16 21 22 21
17 16 13 11 5 6 13 12 5 3 7 7 2 4 5 4 1 8 7 4 3 1 3 7 6 5 25 20 8 3 6 4 2 1 4 8 4 6 10 11 16 13 18 27 22
16 14 12 8 6 7 10 5 3 5 6 6 6 4 3 4 3 6 5 4 5 4 1 2 8 4 8 11 12 13 6 5 7 4 2 8 3 5 4 18 30 25 26 31 23
16 10 10 9 9 4 2 3 5 2 4 5 8 7 7 5 3 6 5 3 6 7 5 2 6 7 4 8 13 7 5 5 6 3 3 1 4 9 3 2 10 24 27 28 28
15 9 6 15 10 5 4 4 3 4 2 6 3 2 3 4 4 4 5 3 8 5 4 6 4 5 7 6 12 13 8 3 2 5 3 2 2 6 9 5 6 14 25 29 35
9 6 14 14 10 3 2 6 6 14 2 3 3 4 5 2 3 4 5 4 11 9 9 5 4 8 2 1 8 2 4 4 5 5 5 5 5 9 13 9 13 17 25 33 38
4 2 10 15 5 4 3 5 3 11 3 4 4 4 3 5 5 4 4 2 15 14 6 3 3 2 8 7 8 7 8 6 5 3 2 4 6 7 14 12 21 21 23 27 37
10 6 6 6 4 4 8 8 10 7 3 3 2 2 3 2 4 2 3 6 9 5 4 5 3 4 10 7 8 6 5 1 4 3 5 5 5 2 9 7 4 15 19 22 25
5 3 4 7 14 8 5 7 6 9 4 5 4 0 4 3 6 3 2 4 9 6 8 0 3 4 3 6 5 5 12 9 3 3 2 5 5 4 7 4 5 11 13 16 21
2 4 3 3 4 6 2 4 9 4 4 7 4 5 2 3 3 3 2 5 5 4 5 3 2 3 2 4 5 10 15 15 6 4 5 5 6 6 9 10 13 21 15 19 26
3 4 6 9 11 6 4 9 9 3 4 1 6 5 8 6 6 6 5 4 5 5 5 4 2 3 5 7 8 5 19 14 10 13 4 5 2 3 20 25 21 25 25 21 21
3 7 5 6 5 4 2 7 8 10 4 9 9 5 5 3 7 8 12 6 3 1 2 3 3 3 1 5 4 7 10 11 1 11 6 4 3 7 6 12 16 17 24 26 25

GFSSW_850_spd_111.txt.gz
Wind_Speed
11 11 13 13 12 11 9 8 7 7 6 6 6 7 9 9 9 12 11 6 9 8 8 8 12 9 4 1 3 2 3 2 3 1 2 9 7 10 9 24 11 3 23 29 26
12 12 12 13 13 12 10 9 8 7 7 6 6 6 8 9 10 10 4 6 8 11 9 10 11 10 2 2 3 4 2 2 2 3 5 9 19 14 11 18 12 23 25 30 30
12 12 12 13 13 12 11 10 8 8 6 6 6 7 8 8 6 2 3 9 15 9 10 10 12 7 2 3 6 4 5 6 9 7 5 7 5 7 25 6 24 32 32 33 28
14 14 13 13 12 12 12 10 9 8 7 6 6 7 8 5 3 5 5 3 13 13 12 10 9 4 2 4 10 5 8 8 10 7 3 5 4 4 27 13 33 35 35 33 31
14 14 13 13 12 12 12 11 10 9 8 7 7 7 7 3 3 2 3 3 9 12 13 11 12 6 2 2 7 3 6 9 4 6 5 5 10 4 21 27 33 35 35 36 33
14 14 14 13 11 11 11 10 10 9 10 10 9 8 6 3 4 4 5 4 0 9 14 15 9 7 6 6 8 6 10 7 4 6 3 3 7 6 18 31 37 37 38 35 35
15 15 15 13 10 10 10 10 11 11 10 9 9 8 9 5 5 4 2 2 5 6 12 15 13 4 6 7 8 17 7 4 1 2 4 4 7 7 28 33 37 36 32 34 34
14 14 14 14 11 10 10 11 13 12 9 9 10 11 5 6 6 7 7 4 4 2 9 4 11 6 5 7 6 5 4 2 3 3 1 5 4 2 34 33 32 31 29 36 37
13 14 14 14 11 8 10 13 13 10 9 10 9 8 1 1 9 5 13 9 6 1 3 5 2 5 3 1 4 6 2 3 3 9 3 2 3 8 29 34 30 30 31 35 39
13 13 13 14 12 7 9 12 10 8 6 8 5 5 1 10 4 2 6 9 4 4 3 3 4 2 3 4 3 2 4 7 3 4 3 5 7 6 16 27 31 28 29 34 39
15 14 13 13 10 4 5 11 12 4 22 10 15 14 16 4 3 2 5 9 9 3 2 1 3 5 8 4 4 5 5 10 3 3 3 3 3 9 8 13 19 24 31 34 43
16 15 13 12 8 4 6 11 8 11 11 15 8 15 15 13 5 4 5 6 5 5 4 4 5 7 2 3 2 9 9 4 4 3 1 5 9 6 12 6 1 21 32 35 33
15 15 12 10 6 3 5 9 14 17 3 11 5 7 6 6 7 9 4 4 2 3 4 6 6 4 4 2 4 2 6 7 6 6 3 1 3 4 6 5 6 4 28 37 41
16 16 12 8 3 3 3 13 18 7 4 6 2 2 2 6 2 7 7 5 1 6 3 4 7 6 5 5 6 5 6 8 14 6 2 1 3 6 7 6 5 7 19 32 41
16 16 12 7 6 6 7 13 13 2 3 2 2 2 3 4 1 7 11 11 5 4 4 7 4 4 6 9 7 4 12 11 5 4 5 5 2 3 9 7 7 12 14 28 42
16 16 12 8 8 5 7 10 3 5 2 4 2 1 2 1 3 2 7 8 3 4 2 8 9 5 6 1 13 17 9 6 0 2 2 5 3 4 7 19 13 12 17 22 33
16 15 14 9 8 5 8 7 4 3 4 5 4 1 3 3 3 4 5 5 3 2 3 5 1 3 10 12 5 6 5 2 1 2 3 4 2 9 9 9 19 18 16 22 29
16 15 12 7 11 7 7 4 3 3 5 4 3 2 3 3 3 3 4 4 1 2 1 1 3 7 5 6 10 7 6 5 6 4 3 3 5 5 6 14 26 9 16 23 23
16 11 7 9 12 6 0 3 5 4 4 2 4 6 4 4 2 4 3 1 1 1 1 2 5 4 4 5 10 6 4 4 7 3 3 3 6 5 9 5 21 31 37 29 27
15 8 5 14 10 5 4 4 4 5 3 2 3 2 4 4 4 4 5 2 3 0 2 2 4 4 2 5 2 7 6 2 2 5 3 4 6 4 8 11 12 17 31 36 39
11 5 12 15 9 1 3 6 5 10 6 3 4 2 1 2 2 2 1 2 3 5 6 1 4 7 3 4 7 1 2 5 5 4 5 3 6 8 14 13 15 17 31 35 39
4 2 7 16 3 1 2 5 3 4 11 2 4 3 1 3 3 1 2 3 2 4 1 1 3 4 8 2 5 2 0 4 5 4 2 4 6 4 8 7 18 20 27 29 36
11 2 3 18 3 3 5 4 5 4 4 2 2 2 3 3 2 3 3 1 3 4 3 1 3 4 8 6 7 5 5 1 3 4 5 5 6 2 9 10 17 20 24 31 32
5 2 3 16 8 5 2 5 4 9 6 5 4 4 4 2 3 3 3 4 9 3 7 2 3 4 5 4 1 4 7 4 5 4 3 6 6 1 5 9 12 20 25 28 34
2 3 2 2 1 1 3 3 10 4 2 5 4 2 6 3 1 3 2 5 4 3 2 3 2 1 4 1 6 0 5 9 6 3 5 4 6 5 2 7 13 23 27 28 33
2 4 5 5 8 3 2 4 6 4 6 1 6 3 6 7 8 6 5 4 2 6 6 6 5 3 2 2 8 3 10 6 6 6 5 6 5 5 9 5 13 21 26 30 33
2 3 3 4 3 0 3 3 7 10 2 11 11 6 5 4 10 4 8 7 3 2 2 2 2 3 4 6 8 4 5 6 1 5 4 5 2 6 7 12 16 14 13 13 17

GFSSW_850_spd_114.txt.gz
Wind_Speed
11 12 12 12 12 11 9 7 6 6 5 6 7 7 7 8 9 10 10 5 9 7 9 9 11 11 7 2 1 2 3 2 2 5 3 16 6 16 6 18 4 1 23 28 24
13 13 12 13 13 12 10 9 8 6 6 5 6 7 7 8 8 8 4 4 10 10 7 11 13 10 3 1 2 2 2 2 4 3 3 2 17 14 8 13 7 19 26 27 24
14 14 13 13 13 13 12 11 9 8 7 6 5 6 7 7 3 2 2 8 11 12 10 11 10 8 2 1 3 2 2 6 3 5 6 4 10 4 21 3 16 31 31 28 25
13 14 13 13 12 12 12 12 11 10 9 8 7 6 6 4 4 3 4 5 14 11 13 13 10 5 2 1 3 2 5 10 4 11 4 1 4 7 13 7 29 31 32 31 27
13 13 13 13 12 11 11 11 11 10 10 10 8 7 6 2 1 1 3 5 11 12 11 11 11 5 1 2 3 3 3 8 12 18 7 5 4 3 16 12 30 30 30 29 27
13 13 13 13 11 11 11 11 11 10 10 10 10 7 5 1 4 4 7 5 4 10 10 10 6 5 2 2 2 3 7 9 5 7 1 2 3 5 14 25 32 31 30 29 27
12 13 13 12 11 9 9 10 11 12 10 10 10 10 4 1 5 5 4 2 2 2 7 11 7 5 2 4 6 16 4 9 9 3 3 9 5 3 13 29 33 33 31 30 29
13 13 14 13 11 8 9 11 13 12 9 9 12 9 1 8 5 6 5 4 1 1 5 3 10 4 2 4 3 3 4 3 6 6 1 3 5 5 15 29 29 28 32 31 31
13 13 14 14 12 7 9 12 14 10 7 9 7 5 2 1 5 7 10 5 2 4 14 9 7 1 1 3 4 6 3 5 4 6 2 6 4 10 18 31 28 29 28 32 31
13 13 13 13 11 6 9 14 11 6 3 7 3 2 2 6 7 2 5 8 1 4 6 5 3 2 4 4 3 2 4 3 4 3 7 7 8 6 3 14 27 28 30 30 33
14 14 13 12 9 5 9 8 8 3 12 5 8 7 9 2 5 1 7 9 5 2 3 2 4 4 2 5 4 4 3 5 3 5 4 2 1 5 11 4 14 19 26 33 37
15 15 13 11 8 4 8 6 8 10 9 8 5 11 8 5 2 3 7 5 4 3 4 5 1 4 4 3 2 5 7 2 1 4 2 4 3 2 8 4 5 10 28 32 33
15 15 12 10 5 1 5 8 14 14 2 6 4 6 2 5 5 4 9 5 2 2 3 5 3 5 3 2 4 4 5 5 3 5 3 3 4 5 4 9 14 16 24 36 36
15 14 12 8 1 1 2 10 17 5 5 6 3 1 2 2 2 6 7 5 3 4 5 2 3 3 3 4 5 3 7 9 10 5 2 3 2 4 9 6 9 22 21 34 38
15 14 11 5 6 2 3 10 9 3 4 2 2 1 2 3 1 3 9 7 5 3 6 6 2 3 4 7 8 5 11 6 2 3 2 4 2 3 11 13 15 24 22 32 40
14 15 12 9 8 5 3 9 2 5 1 5 1 1 2 1 2 2 4 4 1 3 1 6 3 5 6 2 9 11 7 7 5 3 2 7 5 5 11 22 14 20 24 31 37
14 14 14 9 5 6 4 4 5 3 3 5 2 1 1 3 2 2 4 2 3 3 3 4 3 1 6 8 6 5 7 3 2 0 5 4 4 8 17 14 21 22 26 30 36
15 13 13 7 9 6 2 4 2 2 4 4 3 2 3 5 4 3 3 2 1 4 1 1 5 8 4 5 7 4 6 6 6 4 2 1 5 6 9 25 27 34 31 28 34
14 12 7 6 12 7 3 3 6 4 3 3 3 6 5 4 2 4 4 2 2 4 6 1 5 1 5 5 10 6 5 5 5 2 1 4 6 5 2 8 16 24 28 29 32
15 7 3 9 12 10 4 5 4 4 3 2 3 2 2 5 4 4 0 1 2 2 3 2 3 3 2 5 1 5 7 2 2 4 4 4 5 5 11 9 15 13 23 25 25
10 1 5 14 13 4 3 6 5 7 3 4 3 3 0 3 2 1 1 2 1 3 2 3 2 6 1 2 7 2 2 1 4 4 5 2 6 5 11 15 19 30 42 41 39
4 2 10 17 4 1 3 5 2 3 1 2 4 2 3 2 2 3 3 4 1 1 1 0 4 3 6 7 2 4 6 6 4 4 2 3 6 7 6 8 27 20 26 35 38
10 0 6 14 3 2 4 3 4 2 3 4 4 3 2 4 1 1 2 2 2 3 3 3 1 3 5 4 4 4 3 2 3 3 5 5 6 6 5 5 17 19 21 28 33
5 1 2 10 1 5 3 4 3 3 4 4 5 4 3 2 1 2 2 3 5 3 9 3 2 5 4 6 1 5 5 3 4 3 4 5 6 8 5 2 7 17 22 24 25
2 2 0 2 2 3 4 2 3 3 2 3 1 4 7 4 1 3 2 4 2 5 2 4 5 4 5 3 6 8 4 7 1 3 4 5 4 5 7 5 5 12 19 24 29
3 3 3 4 3 3 5 5 4 3 6 4 5 4 5 6 8 8 5 3 2 3 3 3 1 2 1 3 4 1 8 3 4 4 1 4 2 3 8 9 11 8 15 20 25
2 4 4 3 2 2 4 3 3 5 6 11 11 6 5 6 8 3 5 4 2 1 1 2 3 2 5 6 4 4 0 3 1 4 3 2 3 5 6 12 10 10 13 13 14

GFSSW_850_spd_117.txt.gz
Wind_Speed
12 12 11 11 11 10 9 8 6 6 6 5 5 5 6 6 8 8 6 4 8 8 11 9 13 12 6 2 2 2 1 4 4 7 3 11 5 7 3 16 6 2 12 18 22
13 13 12 12 12 12 11 10 8 7 6 5 5 5 5 6 6 5 3 4 9 9 10 11 15 12 3 2 2 4 1 3 8 9 5 5 12 8 8 12 5 11 17 24 21
13 13 13 12 12 11 11 11 10 8 8 7 6 5 6 5 3 3 1 6 11 12 9 11 14 6 3 2 2 4 2 7 7 9 7 2 6 7 16 8 9 27 25 24 20
12 13 13 12 11 11 11 11 10 9 9 9 7 6 6 1 4 3 3 7 10 11 11 13 11 4 2 1 2 2 8 7 11 10 4 6 5 5 15 4 15 26 27 24 20
12 12 12 12 11 10 10 10 10 10 9 9 9 7 4 1 3 3 4 9 12 9 10 10 9 4 3 1 2 2 8 4 7 13 19 10 8 2 10 12 22 23 23 21 19
11 12 12 12 11 10 9 9 10 10 10 9 8 7 3 2 5 8 10 8 6 6 7 9 7 5 3 1 1 3 11 10 5 8 8 8 8 3 12 18 22 25 23 21 20
11 11 11 11 11 10 10 10 11 12 10 9 9 7 1 2 6 7 8 7 5 4 6 9 9 4 1 1 3 12 8 8 4 7 4 5 4 6 14 20 23 23 21 21 20
11 11 11 11 10 8 9 11 13 12 8 9 9 4 2 7 5 3 3 3 4 4 9 9 10 3 0 1 3 2 2 3 4 5 3 2 3 7 11 22 25 23 21 20 21
13 12 12 12 11 8 9 12 12 8 5 8 4 4 4 2 2 4 7 4 6 7 10 10 10 2 2 1 3 3 2 3 3 3 5 5 3 5 2 19 24 24 23 22 19
13 13 13 11 10 7 9 12 9 3 3 4 3 3 3 2 4 1 3 9 5 10 6 4 3 3 3 3 5 3 2 2 3 2 2 8 7 3 7 21 24 24 24 22 23
13 13 13 11 8 4 9 7 6 2 6 2 4 3 5 3 3 3 8 12 7 3 3 1 5 8 4 3 4 3 3 3 4 3 1 2 2 12 1 9 17 17 18 22 25
14 13 13 11 6 3 6 6 8 8 7 3 3 6 6 3 3 4 11 5 3 3 4 4 6 5 4 6 6 5 5 3 3 4 4 7 5 5 6 5 13 17 23 23 20
14 13 11 9 2 3 3 7 13 12 3 3 3 3 1 6 2 6 13 5 3 4 4 5 3 7 5 5 6 5 8 6 1 6 0 1 4 6 8 8 9 15 22 25 25
14 12 10 8 2 2 2 8 13 5 2 2 1 2 3 4 2 7 10 4 2 4 7 2 3 4 5 5 7 6 9 5 9 8 1 3 3 8 12 12 15 20 22 19 27
14 12 9 5 4 3 2 8 7 3 2 2 1 1 4 3 6 5 9 5 5 4 4 4 5 4 3 4 10 2 7 9 7 3 2 7 4 3 13 15 20 24 27 23 27
14 13 10 7 6 6 3 6 2 2 1 1 1 1 2 1 1 4 4 3 2 3 1 4 2 3 1 4 8 14 10 9 6 2 4 5 8 6 10 23 24 25 29 35 29
14 13 12 7 4 10 4 1 2 2 2 1 1 2 1 2 3 2 6 6 2 3 0 2 4 3 5 8 10 4 7 2 5 4 5 1 6 13 15 20 22 21 30 32 33
15 13 11 8 10 11 4 2 3 1 2 1 2 2 2 4 2 2 5 5 4 2 2 3 4 10 9 4 6 12 7 5 7 4 1 3 7 5 6 24 23 18 26 30 33
15 12 7 8 14 12 5 3 4 4 1 1 2 3 2 2 1 2 2 2 1 5 4 3 4 2 8 5 6 6 8 2 1 1 4 4 6 13 7 11 19 19 23 27 33
15 7 4 11 17 12 2 3 3 3 1 2 3 2 1 0 2 2 1 1 0 1 3 2 4 1 4 5 5 5 8 4 2 4 5 4 5 7 6 10 11 14 26 31 29
11 0 3 14 19 6 4 4 4 7 5 5 4 3 2 1 1 2 2 1 2 1 3 0 3 2 3 7 9 6 5 3 2 2 4 4 3 2 11 14 14 16 24 29 29
4 2 9 20 4 0 3 4 2 3 4 4 3 2 3 2 1 2 2 2 1 1 2 1 3 5 5 2 6 5 6 12 9 10 3 4 6 8 10 10 17 20 26 32 35
9 0 10 9 5 3 2 2 4 3 3 5 5 2 2 4 2 4 2 2 1 1 1 3 2 6 4 4 2 2 4 3 5 2 10 8 6 7 12 5 13 19 22 24 25
3 2 2 8 2 3 4 3 3 4 4 3 3 4 4 3 0 3 4 1 2 1 3 5 3 6 9 2 1 1 7 7 4 8 10 11 11 9 10 8 1 10 17 18 21
2 0 1 3 6 5 3 1 3 2 3 6 2 6 6 5 3 4 3 1 1 1 3 3 6 4 4 1 6 3 8 7 1 4 6 3 6 8 9 7 5 3 9 13 20
2 3 3 3 2 6 6 6 11 7 5 5 6 11 9 6 8 6 6 3 2 2 2 1 2 3 4 7 5 5 5 5 3 4 8 6 4 5 11 3 2 7 11 14 15
2 3 2 2 2 3 5 5 7 3 8 9 11 7 8 7 8 3 4 5 1 2 2 2 3 4 6 5 2 6 9 7 1 5 4 4 5 7 5 3 4 4 7 10 11

GFSSW_850_spd_120.txt.gz
Wind_Speed
11 11 11 10 10 10 9 8 7 6 6 5 5 5 5 5 6 5 4 5 9 9 10 8 9 8 6 3 0 1 4 6 6 9 7 10 8 5 3 13 9 4 8 19 22
12 12 11 10 10 10 10 9 8 7 6 5 5 5 4 4 3 2 5 5 9 10 10 10 12 10 7 3 1 2 3 5 4 7 3 7 8 8 8 12 10 11 15 21 20
11 11 11 10 9 9 9 9 9 8 7 6 5 4 4 2 4 3 3 6 10 10 8 9 11 10 6 4 4 3 2 11 6 10 4 1 7 5 8 8 9 17 23 20 19
11 11 11 11 10 9 9 8 8 8 8 8 7 4 3 4 2 1 2 9 12 10 7 9 12 9 6 4 5 3 8 6 9 7 8 3 6 5 9 5 7 19 22 20 18
10 10 11 11 10 9 8 8 9 9 8 8 7 5 3 2 4 0 2 11 10 10 8 10 13 7 4 3 4 4 11 5 10 10 12 11 8 4 12 2 15 22 19 17 17
11 11 11 11 10 8 7 8 9 9 9 8 7 5 1 5 5 8 9 9 8 7 8 9 8 5 4 2 2 6 8 5 5 7 10 12 8 8 12 13 17 21 20 17 16
11 12 12 11 11 9 8 9 10 11 8 7 7 3 1 4 8 9 8 7 6 6 8 8 7 8 3 6 4 12 8 5 3 7 7 6 11 9 14 16 18 19 18 18 15
12 12 12 12 11 10 9 10 12 9 6 7 5 7 4 8 7 6 6 4 2 5 6 8 5 6 3 3 6 8 6 3 4 6 5 5 8 5 10 17 18 18 18 19 17
13 13 13 12 12 9 8 11 10 6 4 5 4 3 9 3 1 5 5 2 3 6 5 7 7 5 7 9 7 5 3 1 3 5 4 8 6 5 3 14 19 19 19 20 18
14 14 13 12 10 7 8 10 6 2 3 2 2 4 5 5 3 3 8 7 4 9 7 8 9 9 8 9 8 5 5 2 1 5 8 13 6 5 5 15 19 23 20 21 20
13 13 13 12 8 4 8 5 3 1 3 4 2 2 6 3 5 3 10 8 7 8 8 10 10 13 13 9 3 2 2 3 4 4 5 9 11 13 6 8 20 22 20 21 22
14 13 12 10 4 1 4 3 4 4 3 2 2 4 5 4 6 7 12 10 8 8 5 8 13 7 4 6 9 8 8 4 4 5 5 7 11 7 17 14 19 23 22 22 23
14 13 11 9 2 1 1 2 10 8 5 4 3 2 3 7 2 10 13 5 7 7 10 9 4 8 10 9 9 10 11 4 7 6 6 7 13 14 12 20 18 24 24 28 24
15 13 10 7 1 2 2 6 10 5 5 7 7 5 5 4 5 6 10 6 6 6 6 6 9 9 11 11 10 11 8 8 6 5 5 5 5 10 15 19 20 24 25 31 28
15 14 10 6 5 3 6 5 7 3 4 6 7 4 4 5 8 8 8 7 7 7 8 7 10 9 8 10 10 8 2 8 9 7 7 9 7 6 16 16 23 26 30 31 33
15 14 10 8 7 8 6 5 4 6 2 7 5 6 8 6 5 9 9 6 0 4 6 3 3 5 8 2 8 3 5 5 3 4 10 12 8 11 11 23 22 30 31 33 36
15 14 13 9 4 11 7 3 6 8 6 7 5 6 4 5 6 8 9 9 5 8 8 8 13 9 8 9 7 13 11 8 8 8 10 4 7 15 6 10 20 25 34 34 35
16 14 12 10 11 14 7 8 8 3 9 5 4 9 5 6 4 6 8 7 5 5 3 6 11 13 12 15 10 14 15 11 6 9 5 3 7 3 4 6 17 23 28 30 32
17 13 9 10 14 16 11 10 7 8 6 7 8 10 6 6 3 7 8 2 2 6 7 4 6 4 5 6 11 11 9 12 12 9 8 8 9 14 6 8 14 22 24 24 35
16 6 6 10 18 15 10 13 4 3 5 6 8 5 6 6 7 5 7 3 5 0 6 2 7 3 8 6 8 11 5 8 9 8 13 10 5 3 13 10 9 17 22 20 27
10 5 5 12 20 12 10 11 6 9 5 7 5 5 2 2 6 5 3 7 2 3 3 5 5 7 7 12 11 9 11 9 9 9 8 8 2 5 11 12 8 12 18 19 22
3 4 4 19 13 17 12 6 4 12 8 6 4 2 2 1 5 5 3 2 3 3 4 4 6 9 11 7 5 13 14 12 10 16 12 12 10 5 9 12 4 4 9 18 22
6 3 8 9 8 10 8 10 7 11 11 10 10 7 4 3 3 4 4 5 3 3 4 2 8 8 13 11 9 8 7 9 10 7 9 15 5 7 10 10 4 7 7 9 15
4 4 5 12 12 11 15 14 11 9 8 8 7 8 8 7 5 3 5 5 3 4 2 4 13 13 13 9 1 6 4 5 10 10 11 15 18 3 10 11 8 5 7 13 19
3 1 5 8 14 12 9 10 15 10 11 10 9 14 13 7 6 7 5 5 7 4 5 6 12 13 11 10 9 11 5 4 7 6 7 13 10 10 7 6 13 6 10 12 18
4 4 4 9 7 14 11 11 14 13 8 11 12 16 12 11 6 3 6 5 7 7 7 6 8 7 12 11 12 11 9 13 1 1 6 7 11 7 9 7 8 3 4 11 14
4 4 3 1 6 10 14 16 14 14 11 15 12 12 14 13 3 1 2 1 1 7 5 5 7 7 13 7 14 16 17 13 9 6 3 8 12 9 7 7 7 4 1 3 4